GFSSE_prec_cloud_003.txt.gz
Cloud_Cover
88 74 100 100 100 100 100 100 100 100 100 100 100 100 100 100 100 100 100 100 100 0 0 0 0 0 0 0 5 98 100 36 100 99 90 70 22 5 30 0 0 6 2
100 99 100 100 100 100 100 100 100 100 100 100 100 100 100 80 86 100 100 56 0 0 0 0 2 0 0 0 0 4 84 78 100 99 100 100 44 14 5 0 0 0 0
81 99 100 91 100 100 86 100 100 100 100 100 100 100 50 90 100 100 43 0 0 0 0 0 2 0 0 0 2 5 5 88 100 100 100 99 79 7 43 0 4 1 0
76 82 78 100 82 100 100 100 98 58 79 88 82 55 100 100 67 0 0 0 0 0 0 2 0 0 0 0 0 5 26 60 100 100 100 99 96 18 72 66 0 10 6
38 54 82 5 17 40 96 100 94 30 35 70 100 100 94 7 0 1 3 0 0 1 0 2 0 0 0 0 0 3 27 7 93 100 100 99 100 58 48 5 0 5 0
100 92 65 8 41 53 100 87 34 100 100 100 100 8 0 3 5 0 0 2 0 0 0 5 0 0 0 0 0 1 10 55 43 60 100 98 52 35 11 95 1 0 4
16 73 40 50 99 100 100 99 94 90 31 1 4 5 5 5 4 5 5 5 3 0 5 31 3 0 0 0 4 3 28 99 84 100 100 94 50 63 20 100 44 0 0
2 36 27 0 8 54 10 68 100 34 0 0 0 2 3 4 4 5 5 5 4 3 5 46 72 36 6 5 33 4 5 94 68 7 100 96 94 26 9 100 83 5 2
17 23 47 39 7 75 72 1 0 0 0 0 0 1 5 5 5 5 8 5 30 52 100 98 24 32 60 19 26 4 54 19 91 100 55 48 99 84 76 100 62 50 4
30 33 36 28 39 25 4 0 0 0 0 0 0 0 5 0 0 0 69 36 15 44 75 97 22 32 100 5 66 100 46 46 5 5 41 100 88 100 51 73 100 72 50
37 36 29 17 20 10 1 0 0 0 0 0 0 0 0 0 0 0 5 4 5 8 40 100 8 53 57 77 24 68 53 47 16 5 5 23 15 100 99 87 68 83 44
26 20 23 22 11 17 0 0 0 0 0 0 0 0 0 0 0 0 0 0 1 8 40 18 22 41 14 85 100 100 93 48 18 26 39 4 5 95 100 100 100 100 68
3 11 23 31 6 6 26 1 2 0 0 0 0 0 0 0 0 0 0 0 0 0 0 0 0 2 22 100 100 100 100 100 82 8 47 6 16 21 100 100 100 100 100
1 6 5 6 21 34 6 0 0 0 0 0 0 0 0 0 0 0 0 0 0 0 0 0 0 0 0 2 65 99 100 100 100 98 5 49 100 43 12 100 100 100 100
0 6 15 8 8 18 0 0 0 0 0 0 0 0 0 0 0 0 0 0 0 0 0 0 0 0 0 0 0 0 64 100 100 100 92 5 26 12 38 98 100 100 100
0 0 19 30 30 34 11 11 0 0 0 0 0 0 0 0 0 3 1 0 0 0 0 0 0 0 0 0 0 0 0 19 100 100 100 92 38 99 76 73 100 100 100
1 0 0 0 14 30 19 4 0 0 0 0 0 0 0 0 3 0 0 0 0 0 0 0 1 0 0 0 0 0 0 0 0 100 100 100 97 12 64 97 100 100 100
9 0 0 0 0 1 1 0 0 0 0 0 0 0 3 4 2 0 2 0 0 0 0 0 0 0 0 0 0 0 0 0 0 0 92 100 100 93 54 98 90 100 100
0 0 0 0 0 7 10 0 5 0 0 0 0 0 0 0 0 0 0 5 0 0 2 0 1 0 0 0 0 0 0 0 0 0 0 4 78 100 60 82 6 64 100
0 0 0 0 2 3 4 0 0 0 0 0 0 0 0 4 0 0 0 0 2 1 0 2 27 22 3 0 0 0 0 0 0 0 0 0 0 4 83 28 83 9 59
0 0 0 0 0 0 0 0 0 0 0 0 0 0 0 0 0 0 0 0 0 0 0 20 16 11 1 5 0 0 0 0 0 0 0 0 0 0 0 6 18 100 56
0 0 0 0 0 0 0 0 0 0 0 0 0 0 0 0 0 0 0 0 0 0 2 5 2 0 0 13 7 0 0 0 2 0 0 0 0 0 0 0 0 21 100
0 0 0 0 0 0 0 22 11 0 0 0 0 3 0 0 0 0 0 0 0 0 0 5 3 2 2 19 25 0 0 0 0 0 0 1 0 0 0 0 0 0 11
0 0 0 0 0 0 21 3 0 0 0 2 17 12 14 0 0 0 0 0 0 0 0 5 5 3 10 5 6 15 10 3 0 0 0 0 0 0 0 0 0 0 0
0 0 0 0 0 0 3 3 0 0 3 26 22 0 10 21 0 0 0 0 0 0 5 5 5 5 5 6 5 4 0 0 2 0 0 0 0 0 0 0 0 0 0
1 0 0 0 0 0 0 1 0 0 0 17 1 0 0 0 0 0 0 0 0 2 0 3 5 52 43 13 5 5 2 5 0 0 0 0 0 0 0 0 0 0 0

GFSSE_prec_cloud_009.txt.gz
Cloud_Cover
100 94 100 100 100 97 100 100 100 100 100 96 100 100 100 100 50 90 100 97 1 0 0 0 4 0 5 5 4 5 8 4 3 2 4 0 0 0 0 0 0 62 4
100 100 94 100 100 100 100 100 100 100 100 100 100 88 8 8 84 100 67 4 3 0 0 4 5 0 4 5 5 5 17 78 28 3 5 5 2 2 0 0 18 6 0
97 90 99 86 5 98 56 99 100 91 100 92 5 60 10 90 12 5 4 4 4 0 0 5 5 5 0 5 5 18 100 100 100 12 81 59 88 16 9 5 4 5 1
84 86 57 37 16 73 52 31 38 73 5 5 5 68 92 0 0 0 0 0 0 0 0 34 5 5 5 5 5 11 76 42 100 78 21 98 100 77 4 0 3 2 2
97 79 62 100 100 100 99 45 19 17 8 5 95 96 1 0 0 0 3 0 0 0 0 5 33 22 52 5 5 6 93 72 100 85 81 41 100 29 5 0 0 4 8
100 63 100 97 100 84 100 99 5 5 5 87 3 0 0 0 0 0 5 4 2 5 5 5 5 36 9 5 3 5 64 69 100 100 100 5 22 61 45 21 0 0 5
100 100 100 99 100 94 87 8 19 5 10 0 0 0 0 0 2 58 77 47 79 98 92 16 5 11 6 5 3 5 5 46 99 97 100 100 7 45 7 5 4 0 0
66 86 26 86 12 4 3 5 5 0 0 0 0 0 0 0 12 74 15 44 10 62 100 59 44 13 5 5 54 3 5 5 91 100 100 100 50 91 93 6 8 5 2
23 58 58 5 3 5 2 3 0 1 0 0 0 0 0 0 3 2 4 0 1 5 17 12 34 100 86 5 37 99 44 4 100 100 100 100 100 100 67 53 10 36 1
59 90 63 8 26 7 0 0 0 0 0 0 0 0 0 0 0 0 0 0 0 4 5 5 18 5 5 5 5 2 94 100 59 35 96 100 100 100 100 100 100 23 14
68 16 41 39 64 90 20 2 0 0 0 0 0 0 0 60 52 33 23 0 0 0 0 0 0 0 2 23 99 100 100 100 76 100 63 84 100 90 100 100 100 100 48
96 75 96 68 10 50 13 1 0 0 0 1 4 1 1 96 54 2 30 0 0 0 0 0 0 0 61 70 56 74 100 100 100 99 94 94 45 4 100 100 100 100 100
28 79 50 61 54 46 69 0 9 12 14 8 8 19 52 96 63 93 25 93 46 8 94 5 83 30 44 13 63 99 27 94 100 100 100 90 7 6 84 100 100 100 98
42 10 7 36 92 98 100 22 90 66 39 48 4 5 16 14 92 12 99 100 67 93 51 97 95 54 88 24 72 85 17 1 7 94 96 100 78 5 8 100 100 100 100
6 29 4 64 1 54 77 44 64 66 19 81 52 16 44 94 93 21 73 0 70 7 87 100 100 52 91 98 100 12 0 0 0 2 42 95 100 76 5 5 93 100 100
0 0 1 4 0 86 23 40 81 98 100 17 80 81 76 15 93 18 73 100 98 100 86 94 100 14 26 64 76 3 0 0 0 0 0 4 22 83 70 15 98 93 100
0 0 0 1 8 4 6 46 12 93 46 100 51 69 1 2 5 1 22 97 97 100 15 71 100 82 5 7 1 0 2 9 3 0 0 0 1 5 50 48 42 94 100
0 0 0 0 0 4 70 35 40 87 100 88 79 100 17 3 11 34 25 100 100 87 100 81 9 100 66 0 0 0 0 0 0 0 30 0 1 0 4 5 81 60 100
0 0 0 0 1 3 3 19 17 95 75 100 100 38 100 60 100 56 70 76 21 84 76 1 4 87 37 0 0 0 3 27 4 56 2 27 25 34 11 2 5 5 13
0 0 0 10 5 3 64 12 40 73 96 89 95 26 16 21 9 26 41 55 30 95 1 62 89 4 0 2 1 0 4 28 10 39 43 10 3 17 84 39 10 33 6
0 0 0 0 1 5 1 2 20 39 85 20 28 100 0 0 39 1 4 70 16 19 100 71 0 0 0 48 5 81 8 2 19 40 18 5 3 5 3 4 87 68 39
0 0 0 0 0 0 5 0 14 47 83 35 82 79 7 100 100 14 21 1 5 52 0 0 0 0 0 25 9 4 48 57 82 71 1 0 2 8 5 5 2 0 32
0 0 0 0 0 0 0 30 19 48 2 78 64 81 16 14 58 22 12 5 11 0 0 0 7 0 6 39 2 16 21 89 69 55 2 0 0 1 20 0 1 0 0
0 0 0 0 0 0 0 30 36 0 2 0 0 3 0 50 6 33 73 14 0 0 0 0 0 2 1 2 8 0 5 8 5 43 92 31 3 2 0 5 1 5 0
0 0 0 0 0 0 0 0 0 0 0 0 0 3 0 31 1 0 0 0 0 0 0 3 2 2 14 0 1 6 6 5 65 40 8 100 100 71 28 5 0 0 6
0 0 0 0 0 0 0 0 0 8 0 0 0 0 0 0 0 0 0 0 0 0 29 5 8 0 0 0 4 14 22 49 69 100 100 100 100 96 30 7 5 4 3

GFSSE_prec_cloud_012.txt.gz
Cloud_Cover
100 97 100 100 100 100 100 100 100 100 100 100 100 100 100 80 3 97 10 6 60 0 0 0 0 5 5 6 15 2 8 0 0 0 0 0 0 0 0 0 47 6 3
67 64 100 100 100 100 100 100 100 100 90 99 100 10 5 11 96 0 0 5 0 0 0 5 4 5 7 5 1 5 5 36 19 2 2 4 12 2 0 0 0 1 0
38 96 40 18 38 66 5 5 45 5 20 5 5 5 3 74 0 0 0 0 0 0 0 5 5 10 4 5 3 4 5 6 76 5 96 86 5 5 6 14 0 0 2
13 18 12 19 9 95 100 100 58 44 59 13 5 3 1 0 0 0 0 0 0 0 0 4 5 27 6 5 4 0 0 4 63 82 40 7 5 6 0 0 0 0 0
33 11 47 36 70 84 100 94 17 88 19 5 3 0 0 0 0 0 0 0 0 0 1 0 51 3 2 4 5 5 5 9 5 64 49 71 5 93 5 0 0 0 2
72 66 80 79 100 81 100 100 100 100 4 3 0 0 0 0 0 0 3 3 2 77 3 2 5 5 2 4 1 5 11 33 44 80 6 0 0 5 5 2 0 0 0
94 100 100 100 100 100 100 64 2 2 2 0 0 0 0 1 5 39 21 53 4 5 5 14 6 3 0 2 0 0 0 3 100 100 100 45 4 11 100 5 0 0 0
11 24 41 100 49 11 1 0 0 0 0 0 0 0 0 0 1 0 0 0 4 5 4 2 1 36 5 1 5 3 0 2 100 100 100 100 10 62 37 16 5 1 0
32 0 2 77 100 6 0 0 0 0 0 0 0 0 0 0 1 0 0 0 4 5 3 5 0 0 0 0 0 5 9 1 100 100 100 100 34 94 80 84 5 5 0
53 2 4 0 6 0 1 0 0 0 0 0 0 0 0 0 0 0 0 0 0 0 0 0 2 0 0 4 5 5 6 49 86 100 100 100 3 5 100 100 86 100 38
88 14 0 9 0 0 0 0 0 0 0 0 0 0 0 28 10 94 0 0 0 100 100 2 0 0 0 0 0 3 14 17 40 100 100 96 64 16 54 78 100 69 46
80 20 74 0 0 0 0 0 0 0 0 0 0 0 0 100 14 2 87 46 71 100 100 1 0 27 32 3 26 15 100 2 76 86 100 100 100 62 6 84 100 98 98
26 98 10 0 86 2 7 0 0 0 0 0 0 46 38 100 97 100 68 100 52 100 92 4 41 48 4 29 6 0 0 5 99 95 10 100 100 55 5 100 99 96 99
34 45 3 0 0 92 29 0 0 0 0 2 5 5 7 1 85 56 59 78 19 50 90 10 6 100 2 0 98 99 50 0 12 24 0 2 5 5 1 90 98 76 85
0 55 0 0 18 28 93 11 50 80 84 100 41 17 6 5 85 49 3 24 0 65 7 5 10 81 5 0 0 0 0 0 2 0 4 0 1 8 31 2 97 100 96
0 6 0 0 0 13 42 4 56 4 97 4 63 72 2 2 5 36 3 0 87 94 67 100 61 46 3 5 99 51 0 96 14 47 0 0 0 1 76 9 6 38 100
0 34 5 0 0 0 0 9 0 83 0 52 2 1 30 0 1 0 0 2 14 92 100 10 91 0 100 8 100 2 45 6 0 0 0 39 8 0 2 65 77 13 20
0 0 0 0 0 0 0 0 0 0 30 20 77 55 27 1 0 0 1 21 62 9 55 61 15 1 59 54 0 3 5 31 7 8 100 3 29 0 0 2 8 96 100
0 0 0 0 0 0 0 2 0 0 16 85 53 20 100 34 21 2 10 38 65 10 0 15 32 54 0 0 0 15 4 97 39 100 12 95 71 37 88 1 0 3 11
0 0 0 2 2 15 6 23 3 0 100 92 51 96 19 38 0 13 3 5 11 0 38 3 75 44 3 0 0 0 0 18 0 40 99 53 44 93 29 99 1 33 10
0 0 0 2 0 28 0 0 0 0 71 32 1 18 0 58 4 0 0 0 100 1 70 100 0 0 0 2 0 34 3 98 0 79 3 4 7 62 76 9 92 76 33
0 0 0 0 0 0 0 0 0 4 7 4 68 4 71 3 0 73 0 0 25 4 33 0 0 0 2 30 0 0 94 100 100 79 5 5 5 59 59 4 88 0 0
0 0 0 0 0 0 0 0 0 0 40 40 65 30 53 3 0 78 0 0 8 9 0 0 0 0 3 85 30 13 0 45 90 85 99 10 4 99 100 13 8 17 8
0 0 0 0 0 0 0 0 0 0 0 40 8 80 0 0 0 8 1 0 0 0 0 0 2 1 0 45 97 0 0 1 14 99 95 99 61 90 96 32 5 7 39
0 0 0 0 0 0 0 0 0 0 0 0 0 0 69 0 0 10 4 2 0 0 0 0 0 0 0 1 4 96 83 0 1 25 12 95 100 100 54 59 5 52 5
0 0 0 0 0 0 0 0 0 0 0 0 94 49 0 0 0 0 4 0 0 0 0 0 0 0 0 0 4 10 76 32 100 82 26 9 5 100 100 100 23 6 14

GFSSE_prec_cloud_015.txt.gz
Cloud_Cover
97 89 88 87 89 100 100 100 100 100 100 100 100 100 77 8 4 0 0 0 0 0 0 2 0 3 8 1 5 5 14 7 5 7 5 0 0 0 0 0 2 7 17
64 38 100 100 100 100 100 99 57 5 100 90 96 33 6 5 0 0 0 0 0 0 2 5 0 5 5 0 5 1 5 1 5 10 5 2 0 5 22 2 0 0 0
76 8 5 18 65 93 94 84 81 100 23 31 5 5 4 0 0 0 1 0 0 0 4 5 0 1 5 4 0 0 1 5 3 5 5 3 0 1 0 4 4 1 0
73 43 18 5 31 12 5 100 100 100 14 92 80 0 0 0 0 0 0 0 0 0 5 21 16 7 4 5 0 0 0 2 5 0 0 4 3 4 1 0 0 0 0
68 7 23 5 1 1 3 5 9 100 100 26 0 0 0 0 0 0 0 0 4 59 7 11 22 0 0 3 5 0 2 5 12 92 96 88 16 5 5 0 1 0 0
5 11 5 70 100 100 100 100 100 25 0 0 0 0 0 0 1 5 41 5 4 3 0 4 6 0 0 0 1 5 5 40 100 100 100 100 6 67 5 5 22 14 0
5 5 3 71 84 81 29 58 41 0 0 0 0 0 0 0 0 0 0 0 5 0 0 0 2 5 5 0 0 1 98 99 100 100 100 100 49 16 63 5 12 1 0
2 47 4 1 1 66 62 3 0 0 0 0 0 0 0 1 0 0 0 0 3 1 0 0 0 1 3 0 0 20 97 100 100 100 100 100 100 100 47 7 6 70 2
7 0 0 0 0 2 0 0 0 0 0 0 0 0 0 1 0 0 0 5 14 3 0 0 0 0 0 0 0 100 78 100 100 100 100 100 100 100 88 37 77 38 33
0 0 0 0 0 0 0 0 0 0 0 0 0 0 0 0 0 5 20 40 98 77 32 0 4 0 0 0 0 5 31 100 100 100 100 100 100 100 99 9 55 99 58
0 0 0 0 0 0 0 0 0 0 0 0 0 0 0 59 100 100 100 96 100 100 100 4 0 0 0 0 0 17 52 70 100 100 100 100 100 100 100 10 5 5 5
0 0 0 0 0 0 0 0 0 0 0 0 0 1 15 52 100 100 38 100 96 100 99 0 5 7 0 0 0 1 27 0 59 100 100 100 100 100 100 100 61 36 6
16 0 0 0 0 0 0 0 0 0 0 0 0 0 6 52 32 73 5 4 26 78 79 0 0 94 35 34 40 100 46 0 0 4 11 88 100 100 100 100 8 5 35
0 13 0 0 0 0 0 0 0 0 0 0 0 0 0 12 4 98 30 2 3 0 1 5 0 58 17 0 0 0 11 0 46 0 0 0 3 22 99 46 6 6 65
0 2 0 0 0 0 0 0 0 0 3 5 57 4 0 0 2 69 2 2 4 10 12 54 78 93 7 3 99 88 3 23 34 0 0 0 0 1 78 65 10 39 80
0 0 0 0 0 0 0 1 8 48 34 7 100 60 0 0 0 0 0 5 16 78 100 91 62 41 99 4 4 12 12 18 4 0 0 0 0 0 19 50 100 17 86
0 0 0 0 0 0 0 0 62 94 4 74 38 6 0 10 4 0 4 4 0 2 42 2 45 1 0 20 0 5 5 18 5 57 5 0 0 0 0 5 89 100 27
0 0 0 0 0 0 0 0 0 0 0 0 0 0 8 0 0 0 0 0 17 11 32 0 16 0 0 0 0 0 0 32 88 54 22 10 1 0 0 0 0 5 72
0 0 0 0 0 0 5 5 0 0 0 0 0 0 2 27 84 0 0 0 5 97 0 0 36 54 47 0 0 0 0 6 100 100 26 76 39 17 9 11 6 0 2
0 0 0 2 2 24 1 4 1 0 0 0 33 0 37 18 0 0 0 0 0 1 0 19 24 7 0 0 0 0 0 0 10 6 80 16 98 100 28 3 93 24 11
0 0 0 2 0 2 0 0 0 0 2 4 0 62 0 0 0 0 0 0 0 68 2 20 3 0 0 0 0 0 0 91 1 1 0 4 6 95 100 93 44 100 26
0 0 0 0 0 0 0 0 0 0 0 0 0 0 0 24 0 0 0 0 0 0 0 0 0 0 0 0 2 0 1 91 14 68 5 14 3 1 36 80 84 8 2
0 0 0 0 0 0 0 0 0 0 0 0 5 67 100 2 0 0 0 0 0 0 5 0 0 0 0 0 1 1 6 3 100 6 89 27 57 16 4 100 100 42 60
0 0 0 0 0 0 0 0 0 0 0 0 0 0 32 11 0 0 0 0 0 0 2 0 0 0 0 0 2 0 0 0 16 92 37 0 41 29 77 18 34 11 10
0 0 0 0 0 0 0 0 0 0 0 0 0 16 96 0 0 0 0 0 0 0 1 4 5 5 2 0 0 0 0 0 44 5 5 44 71 92 28 100 100 100 18
0 0 0 0 0 0 0 0 0 0 0 0 0 0 0 0 0 0 0 0 1 5 5 5 9 5 5 5 0 0 0 0 0 0 4 4 79 97 50 55 100 100 72

GFSSE_prec_cloud_018.txt.gz
Cloud_Cover
100 100 100 96 74 62 72 40 97 38 51 98 88 6 79 89 3 0 0 2 0 3 0 5 5 8 53 26 7 2 0 5 5 5 4 0 0 2 11 23 6 4 0
100 100 100 56 7 34 42 87 8 77 100 100 11 94 93 1 0 0 0 0 0 1 4 5 5 4 5 5 4 4 3 5 38 76 5 5 0 74 1 8 6 0 0
97 92 51 84 5 4 4 1 0 34 44 56 100 74 0 0 0 0 0 0 0 3 5 77 21 6 2 5 0 5 5 5 5 6 5 5 5 5 3 6 0 2 2
99 99 54 83 19 0 6 47 55 64 86 95 1 0 0 0 0 0 0 1 8 17 5 5 57 17 5 4 4 5 32 11 65 83 6 34 52 22 5 0 7 0 0
98 89 70 9 4 7 100 100 100 100 99 23 0 0 0 0 3 4 0 0 3 1 4 7 5 8 5 4 16 100 97 100 100 100 100 100 100 100 21 5 0 6 0
81 5 0 1 20 89 5 5 75 1 0 0 0 0 0 0 0 0 0 0 0 0 0 1 5 5 5 0 6 38 100 100 100 100 100 100 100 100 100 98 11 17 1
0 0 3 5 5 3 5 12 2 0 0 0 0 0 0 0 0 0 3 5 4 15 0 0 0 3 5 0 27 63 100 100 100 100 100 100 100 99 100 100 98 4 0
3 75 6 0 0 0 0 0 0 0 0 0 0 0 0 0 0 0 0 6 72 100 3 0 0 0 2 17 7 24 100 100 100 100 100 100 100 85 100 100 100 48 1
1 1 2 1 0 0 0 0 0 0 0 0 0 0 0 0 5 5 90 76 100 100 2 0 0 0 4 5 14 28 100 100 97 100 100 100 100 100 100 100 94 75 7
0 0 0 0 0 0 0 0 0 0 0 0 0 1 14 100 100 83 100 100 100 99 11 0 0 0 0 0 0 67 100 100 100 100 100 100 100 100 100 100 100 92 5
0 0 0 0 0 1 0 0 0 0 0 0 0 5 88 24 10 5 91 69 100 68 4 0 0 0 0 0 0 0 45 99 100 100 100 82 100 100 100 100 100 100 8
0 0 0 0 0 0 0 0 0 0 0 0 0 3 20 38 76 5 4 5 2 3 5 0 0 0 0 0 0 9 67 1 93 100 100 100 100 100 100 100 100 100 16
0 0 0 0 0 0 0 1 7 0 0 0 4 5 10 28 7 5 4 0 1 0 0 45 1 1 2 18 0 2 74 5 1 5 39 92 100 100 100 100 100 100 85
0 0 0 0 0 0 0 0 0 0 0 0 0 0 0 2 5 2 7 0 0 0 0 0 0 84 0 0 0 0 0 0 0 0 0 0 0 33 100 100 100 100 99
0 0 0 0 0 0 0 0 0 0 0 0 0 0 0 0 0 0 2 0 0 0 66 1 19 40 48 0 31 0 0 0 2 0 0 0 0 1 83 100 100 95 91
0 0 0 0 0 0 0 0 0 0 0 0 70 72 69 0 26 0 0 0 0 0 16 2 0 59 58 0 43 0 0 1 5 5 4 5 0 0 5 96 100 100 100
0 0 0 0 0 0 0 0 0 0 4 53 26 66 0 0 0 0 0 0 0 8 33 0 0 29 1 43 65 0 0 5 90 5 5 5 4 0 0 0 2 6 71
0 0 0 0 0 0 0 0 13 99 1 23 13 0 0 0 0 4 0 0 0 3 0 0 0 0 0 74 8 0 52 16 69 21 8 5 5 4 0 0 0 0 4
0 0 0 0 0 0 0 2 0 17 2 11 0 0 0 3 0 0 0 0 0 24 68 0 51 36 68 0 0 0 0 3 100 3 5 57 6 22 28 18 2 0 0
0 0 0 0 4 5 0 0 0 0 0 0 0 0 0 0 0 0 0 0 0 0 0 7 12 0 0 0 0 0 0 0 0 0 0 1 2 20 98 38 36 31 11
0 0 0 2 5 2 0 0 0 0 0 0 0 0 0 0 0 0 0 0 0 0 0 0 0 0 0 0 0 0 0 5 0 0 3 8 0 0 0 29 100 84 100
0 0 3 0 0 0 0 0 0 0 0 0 0 0 0 0 8 0 0 0 0 0 0 0 0 0 0 0 0 0 1 71 0 91 11 58 0 0 4 0 4 100 11
0 0 0 0 0 0 0 0 0 0 0 0 0 0 0 9 10 0 0 0 0 0 0 0 0 0 0 0 0 0 0 5 18 8 30 71 5 5 16 7 3 2 94
0 0 0 0 0 0 0 0 0 0 0 0 0 0 0 18 0 0 0 0 0 0 0 0 0 1 0 0 0 0 0 0 0 1 4 4 5 5 32 98 56 36 5
0 0 0 0 0 0 0 0 0 0 0 0 0 0 0 1 0 0 0 0 0 0 0 0 3 0 0 1 0 0 0 0 2 0 0 0 4 5 5 69 100 100 100
0 0 0 0 0 0 0 0 0 0 0 0 0 0 1 2 0 0 0 0 2 1 0 4 2 0 2 4 5 5 0 1 5 5 0 5 0 7 97 32 5 5 40

GFSSE_prec_cloud_021.txt.gz
Cloud_Cover
100 100 100 94 100 100 99 5 5 5 1 6 13 42 95 4 0 0 0 0 6 2 5 8 2 5 5 1 5 4 10 29 5 5 5 34 28 31 1 18 1 2 7
97 96 91 100 100 100 5 5 5 2 4 65 100 96 0 0 0 0 2 0 0 3 5 5 4 4 8 5 6 5 84 100 80 5 5 5 6 30 12 6 1 0 12
100 67 62 100 95 51 5 5 5 6 100 96 86 0 0 0 0 0 0 0 0 5 3 37 9 5 3 5 5 5 5 12 25 5 5 5 8 100 100 100 9 5 15
100 100 91 5 5 6 5 5 19 8 25 2 0 0 0 0 0 0 0 0 0 0 22 5 25 1 2 5 47 49 72 96 100 100 100 100 22 77 100 100 100 22 1
86 7 3 4 1 0 0 2 5 18 0 0 0 0 0 0 0 0 0 0 14 2 5 5 5 2 15 6 42 100 100 100 100 100 100 100 97 100 100 100 100 100 5
2 0 0 0 0 0 0 0 3 0 0 0 0 0 0 0 4 2 5 6 86 0 5 5 0 2 5 16 18 100 100 100 100 73 98 100 100 99 60 100 100 97 6
0 0 0 1 4 0 0 0 0 0 0 0 0 0 0 1 8 52 50 90 20 0 0 0 0 0 0 3 18 100 100 99 74 35 89 100 100 84 75 100 100 20 5
0 1 0 5 4 0 0 0 0 0 0 0 0 0 4 50 100 93 100 73 3 5 0 0 0 0 2 5 35 91 100 79 73 100 97 99 95 100 90 67 100 83 35
0 0 4 2 0 0 0 0 0 0 0 0 0 4 23 100 100 99 100 32 5 5 0 0 0 0 0 2 7 86 100 100 100 100 100 98 65 99 67 64 100 100 55
1 0 0 0 0 0 0 0 0 0 0 1 13 7 14 55 42 90 6 5 5 3 0 0 0 0 0 0 3 19 100 100 100 100 100 100 99 98 18 100 100 100 98
22 2 0 1 2 2 0 0 0 0 0 0 4 64 5 48 6 5 5 0 0 0 0 0 0 0 0 0 0 0 10 84 99 100 100 97 100 100 100 85 96 100 100
21 27 1 12 15 10 0 0 0 0 0 0 2 2 5 5 2 5 4 5 0 0 0 0 0 0 0 0 0 26 100 4 0 8 43 34 73 100 100 100 100 100 100
0 2 14 5 25 1 0 9 22 11 4 7 0 1 0 3 18 5 32 5 5 0 0 0 0 0 0 0 0 0 0 0 0 0 0 0 0 56 100 100 100 100 100
0 0 0 1 24 3 0 17 12 4 14 14 0 0 0 2 4 5 3 2 3 0 7 0 0 57 0 0 0 0 0 0 0 0 0 0 0 17 100 100 100 100 100
0 0 0 0 2 1 0 9 24 24 10 0 0 0 0 0 0 0 0 0 0 0 51 1 11 0 0 0 19 0 0 72 6 5 0 0 0 8 100 100 100 100 100
0 0 0 0 0 0 0 0 1 1 0 0 8 15 66 0 0 0 0 0 0 0 16 1 10 45 88 54 96 3 5 13 5 0 0 5 0 1 2 19 94 100 100
0 0 0 0 0 0 0 0 0 0 0 0 56 100 11 0 0 2 0 0 0 0 0 0 0 2 97 18 25 0 1 23 63 3 2 1 31 11 0 0 0 3 20
0 0 0 0 0 0 0 0 0 0 0 0 9 13 0 0 1 8 4 0 0 0 1 1 0 0 0 88 78 0 7 88 7 0 0 0 2 3 5 1 0 0 0
0 0 0 0 0 0 0 0 0 0 0 0 0 0 0 0 0 0 0 0 0 0 0 21 0 0 0 0 0 0 0 4 100 0 0 0 0 20 14 11 4 0 0
0 0 0 0 0 0 0 0 0 0 0 0 0 0 0 0 0 0 0 0 0 0 0 0 0 0 0 0 0 0 3 2 10 0 0 0 0 0 0 0 1 2 14
0 0 0 0 5 0 0 0 0 0 0 0 0 0 0 0 0 0 0 0 0 0 0 0 0 0 0 0 0 0 0 0 0 0 2 0 0 0 0 0 0 1 100
0 0 0 4 5 0 0 0 0 0 0 0 0 0 0 0 0 0 0 0 0 0 0 0 0 0 0 0 0 0 0 0 0 0 0 31 43 5 3 3 5 2 5
0 0 0 0 0 0 0 0 0 0 0 0 0 0 0 0 0 7 13 0 0 0 0 0 0 0 0 0 0 0 0 0 0 0 0 76 2 5 15 23 46 79 78
0 0 0 0 0 0 0 0 0 0 0 0 0 0 0 0 5 0 0 0 0 7 0 1 0 0 0 0 0 0 0 0 0 0 0 0 0 1 3 0 44 100 98
0 0 0 0 0 0 0 0 0 0 0 0 0 0 0 0 0 0 0 0 0 0 0 0 0 0 0 2 5 5 0 0 0 5 5 0 0 0 0 0 0 18 42
0 0 0 0 0 0 0 0 0 0 0 0 0 0 0 10 7 0 0 0 0 0 0 0 0 0 0 5 0 5 5 5 2 5 5 3 0 0 0 0 0 1 5

GFSSE_prec_cloud_024.txt.gz
Cloud_Cover
100 100 100 100 100 100 100 99 42 0 2 6 5 0 0 0 0 4 0 2 1 4 7 5 5 5 1 3 4 84 100 11 5 5 5 5 8 93 6 5 5 4 0
100 100 100 100 100 100 62 73 0 0 5 5 0 0 0 0 0 0 6 1 3 5 2 3 0 3 5 0 4 6 70 95 5 6 5 5 6 13 8 5 5 10 5
100 100 100 99 100 9 4 0 3 5 0 1 0 0 0 0 0 0 3 0 0 0 1 4 3 2 38 63 5 16 16 81 100 100 100 100 98 92 100 83 10 5 3
100 100 100 25 2 0 2 0 0 0 0 0 0 0 2 0 0 0 0 0 0 0 0 2 5 76 78 71 87 100 96 85 44 98 100 100 80 98 79 100 100 12 26
100 94 26 0 0 5 2 0 0 0 0 3 2 0 0 3 0 5 4 6 0 0 0 0 9 2 28 71 8 72 18 81 17 70 94 100 100 100 74 100 100 94 8
23 0 1 3 5 5 0 11 2 0 0 1 0 0 0 2 5 5 39 16 10 0 10 4 0 3 5 6 5 49 56 79 100 73 97 100 95 100 98 100 100 100 12
2 0 0 5 3 1 0 4 0 0 0 0 0 0 3 4 48 56 5 3 1 0 0 0 0 0 5 5 38 100 98 56 98 74 86 100 100 99 100 87 94 100 87
0 0 1 0 0 0 0 0 0 0 0 0 1 1 36 24 5 4 4 4 8 0 0 0 0 0 0 2 5 61 100 68 92 99 94 92 77 100 100 100 89 100 100
0 0 0 0 0 0 0 0 0 0 0 2 0 4 54 9 1 0 0 0 0 0 0 0 0 0 0 0 0 7 97 88 100 100 99 100 100 96 94 100 100 100 100
0 0 0 0 0 0 0 0 0 0 3 5 35 5 5 5 4 0 0 1 0 0 0 0 0 0 0 0 0 0 40 97 98 99 100 100 100 99 100 100 100 100 100
38 20 3 0 0 0 0 0 0 0 3 4 1 1 4 3 1 1 5 0 0 0 0 0 0 0 0 0 0 0 0 0 0 1 5 10 100 100 100 100 100 100 100
47 61 15 9 1 8 0 0 0 0 5 5 1 0 0 0 5 5 5 4 0 5 4 1 0 0 0 0 0 0 0 0 0 0 0 2 56 100 100 100 100 100 100
18 47 35 15 10 11 0 4 14 2 0 0 0 4 0 0 0 0 0 0 0 7 4 2 0 0 0 0 0 0 0 0 0 0 0 2 100 100 100 100 100 100 100
9 14 25 27 46 27 12 16 14 14 10 12 1 0 0 0 0 0 0 0 0 0 0 0 0 58 0 0 0 0 0 1 1 0 1 0 25 100 100 90 69 56 96
1 1 9 38 61 41 13 28 26 25 14 0 0 0 0 0 0 0 0 0 0 0 8 0 4 6 32 64 43 25 0 70 0 0 1 0 1 6 69 89 100 100 97
0 0 0 14 34 36 4 22 19 24 7 0 0 0 0 0 0 0 0 0 0 0 35 5 45 44 99 84 64 70 0 0 0 0 0 0 4 5 5 1 27 87 100
0 0 0 0 2 12 0 0 21 4 0 0 0 0 100 0 0 0 0 0 0 0 1 53 5 0 0 54 100 5 0 87 51 0 0 0 0 0 0 0 2 1 1
0 0 0 0 0 0 0 0 0 0 0 0 0 72 98 2 0 0 0 0 0 0 0 0 0 0 0 90 63 6 0 54 35 0 0 0 0 0 0 2 5 1 3
0 0 0 0 0 0 0 0 0 0 0 0 0 0 12 0 0 0 0 0 0 0 0 0 0 0 0 11 10 0 0 14 100 0 0 0 0 16 0 0 0 0 5
0 0 0 0 0 0 0 0 0 0 0 0 0 0 0 0 0 0 0 0 0 0 0 0 0 0 0 0 0 0 0 0 0 0 0 0 0 0 0 0 0 0 4
0 0 0 0 0 0 0 1 3 0 0 0 0 0 0 0 0 0 0 0 0 0 0 0 0 0 0 0 0 0 0 0 3 0 0 0 0 0 3 0 0 0 90
0 0 0 0 0 0 0 0 0 0 0 0 0 0 0 0 0 0 0 0 0 0 0 0 0 0 0 0 2 1 0 0 0 0 0 0 0 2 5 3 1 2 5
0 0 0 0 0 0 0 0 0 0 0 0 0 0 0 0 0 0 0 0 0 0 0 0 0 0 0 1 5 1 5 3 0 0 0 0 1 4 3 5 4 0 1
0 0 0 0 0 0 0 0 0 0 0 0 0 0 0 0 0 0 0 0 0 0 0 0 0 0 0 0 2 5 9 15 5 1 3 0 0 0 0 0 0 0 0
0 0 5 0 0 0 0 0 0 0 0 0 0 0 0 0 0 0 0 0 0 0 0 0 0 0 0 0 0 2 5 69 17 5 5 2 0 0 0 0 0 0 0
0 0 0 0 0 0 0 0 0 0 0 0 0 0 0 0 0 0 0 0 0 0 0 0 0 0 0 1 3 5 62 83 12 5 5 7 42 65 0 0 0 0 0

GFSSE_prec_cloud_027.txt.gz
Cloud_Cover
100 100 100 100 100 100 100 100 4 0 5 0 0 0 0 0 0 0 0 0 1 0 1 5 16 14 2 8 10 4 0 5 6 8 85 36 32 4 6 1 0 17 3
100 100 100 100 100 100 100 14 0 5 0 0 0 0 0 0 0 0 0 0 4 0 1 5 8 0 5 2 8 3 19 86 77 96 99 100 100 45 8 80 1 5 7
100 100 100 100 100 92 29 1 5 1 0 0 0 0 2 3 3 2 2 0 0 4 11 4 5 0 15 55 6 12 13 100 5 90 91 82 100 81 82 100 95 14 13
100 100 26 36 5 11 0 1 0 0 0 0 0 2 8 4 7 0 1 0 0 3 1 5 5 52 92 86 92 72 74 63 5 30 60 33 56 100 48 100 100 14 1
100 73 4 5 3 0 0 0 0 0 0 2 1 0 6 0 1 2 0 0 0 0 2 2 5 3 75 90 30 100 100 100 100 71 100 45 64 69 56 82 100 30 4
10 0 0 0 0 0 0 0 0 0 2 0 0 0 0 0 3 8 2 0 40 0 0 0 0 2 5 10 62 100 100 100 100 95 99 98 100 91 100 98 80 100 6
3 0 0 0 0 0 0 0 0 0 0 4 4 2 1 0 0 0 16 0 0 0 0 0 2 3 0 13 34 100 100 98 46 76 63 95 74 46 100 23 56 100 97
2 12 11 0 0 0 100 2 0 0 0 2 2 2 0 0 0 0 3 5 0 0 0 0 0 0 0 0 0 51 95 50 8 63 89 98 100 100 83 22 46 100 100
6 20 1 0 0 0 4 0 0 0 0 0 0 0 0 0 0 0 0 0 0 0 0 0 0 0 0 0 0 1 69 100 36 10 100 100 89 100 100 94 19 100 100
42 15 0 0 0 0 0 0 0 0 5 0 0 0 0 0 0 0 0 0 0 0 0 0 0 0 0 0 0 0 0 0 0 5 64 100 100 100 99 92 99 100 100
72 12 0 0 0 2 0 0 0 0 0 0 0 0 0 0 0 0 0 0 1 1 1 0 0 0 0 0 0 0 0 0 0 0 7 7 90 88 100 100 100 100 100
54 19 0 0 0 0 0 0 0 0 0 0 0 0 0 0 0 0 0 0 0 0 0 0 0 0 0 0 0 0 0 0 0 0 94 64 83 86 78 96 100 100 100
1 0 0 0 0 0 0 0 0 0 0 0 0 0 0 0 0 0 0 0 0 0 0 0 0 0 0 0 0 0 0 0 0 0 0 75 100 99 97 14 100 97 100
0 0 0 0 0 0 0 0 0 0 0 0 0 0 0 0 0 0 0 0 0 0 0 0 0 4 0 13 3 0 0 0 0 0 0 0 5 79 99 100 100 6 19
0 0 0 0 0 0 6 0 0 0 0 0 0 0 0 0 0 0 0 0 0 0 0 0 6 0 78 86 100 1 0 0 0 0 0 0 0 3 54 100 100 100 76
0 0 0 0 1 0 0 0 0 0 0 0 0 0 0 0 0 0 0 0 0 0 0 42 2 19 95 81 98 42 0 0 0 0 0 0 0 0 2 52 22 33 4
0 0 0 0 3 30 3 0 0 0 0 0 0 0 0 0 0 0 0 0 0 0 0 73 88 11 0 72 33 26 0 42 0 0 0 0 0 0 0 0 0 4 5
0 0 0 0 0 5 3 0 0 0 0 0 0 0 0 2 0 0 0 0 0 0 0 0 0 0 0 73 30 91 0 16 68 0 0 0 0 0 0 0 0 0 0
0 0 0 0 0 0 3 0 0 0 0 0 0 0 0 8 0 0 0 0 0 0 0 0 0 0 0 10 49 8 0 6 100 0 0 0 0 0 0 0 0 0 0
0 0 0 0 0 0 0 2 0 0 0 0 0 0 0 0 0 0 0 0 0 0 0 0 0 0 0 0 4 3 0 36 0 1 0 0 0 0 0 0 0 0 3
0 0 0 0 0 0 0 0 0 0 0 0 0 0 0 0 0 0 0 0 0 0 0 0 0 0 0 0 5 5 5 0 0 1 0 0 0 0 0 0 0 0 0
0 0 0 0 0 0 0 0 0 0 0 0 0 0 0 0 0 0 0 0 0 0 0 0 0 0 0 0 0 5 27 7 5 5 5 5 5 4 0 0 0 0 0
0 0 0 0 0 0 0 0 0 0 0 0 0 0 0 0 0 0 0 0 0 0 0 0 0 0 0 0 0 20 59 50 20 5 5 8 5 5 5 5 2 0 0
0 0 0 0 0 0 0 0 0 0 0 0 0 0 0 0 0 0 0 0 0 0 0 0 0 0 0 0 0 4 19 61 82 67 27 87 45 10 92 100 100 44 1
0 0 0 0 0 0 0 0 0 0 0 0 0 0 0 0 0 0 0 0 0 0 0 0 0 0 0 0 0 0 0 0 5 11 13 14 8 27 64 90 98 100 7
0 0 0 0 0 0 0 0 0 0 0 0 0 0 0 0 0 0 0 0 0 0 0 0 0 0 0 0 0 0 0 0 6 55 37 74 76 100 100 86 77 59 17

GFSSE_prec_cloud_030.txt.gz
Cloud_Cover
100 100 100 100 100 100 52 97 98 6 5 0 0 8 0 0 0 0 0 0 2 5 2 4 5 0 4 0 8 0 0 5 5 5 15 65 6 14 6 76 3 3 2
100 100 100 100 99 98 91 88 12 0 1 0 9 0 0 1 0 0 10 0 3 5 4 0 0 5 0 2 7 98 98 83 87 5 50 92 9 5 4 100 34 0 0
100 100 58 96 25 10 11 1 0 0 0 0 0 0 0 0 0 0 0 1 2 4 0 2 4 5 27 28 58 33 99 15 9 5 5 79 5 25 5 19 90 3 5
94 66 30 19 6 5 3 0 0 0 0 4 9 2 3 0 0 0 0 0 0 1 0 20 10 6 45 98 89 55 96 79 29 73 99 92 40 81 5 45 99 8 8
100 47 18 2 0 0 0 0 0 0 0 4 1 1 0 2 0 0 0 0 0 5 0 3 5 35 89 74 100 100 100 100 59 98 100 100 31 98 97 66 96 25 0
53 98 0 11 2 0 0 0 0 0 0 0 5 0 0 0 0 0 0 0 0 0 4 5 5 5 5 100 100 100 100 100 100 100 100 84 50 100 6 58 13 98 64
100 71 0 0 0 0 0 0 0 0 0 0 2 0 0 3 8 0 0 0 0 0 0 0 1 2 4 96 100 100 100 100 100 92 80 73 71 70 31 7 47 100 100
100 28 0 0 0 0 0 0 0 0 0 0 2 0 0 0 0 0 0 0 0 0 0 0 0 0 0 0 1 10 100 68 92 100 95 87 77 100 91 10 15 100 100
98 10 0 0 0 0 0 0 0 0 0 0 3 0 0 0 0 0 0 0 0 0 0 0 0 0 0 3 0 0 4 2 52 95 100 100 99 82 94 9 92 100 100
54 4 0 0 0 0 0 0 5 0 0 0 0 0 0 0 0 0 0 0 0 0 0 0 0 0 0 0 0 0 0 0 8 24 28 99 100 100 100 58 89 100 100
54 1 0 0 0 0 0 0 0 0 0 0 0 0 2 91 81 87 0 0 0 0 0 0 0 0 0 0 0 0 0 52 79 5 100 9 91 100 91 89 100 88 100
50 1 0 0 0 0 0 0 0 0 0 0 11 4 96 33 25 35 0 0 0 0 0 0 0 0 10 22 0 24 100 3 25 66 100 97 69 34 93 98 99 98 93
10 0 0 0 0 0 0 0 0 0 0 0 2 15 39 12 11 93 80 29 9 0 78 82 100 100 24 28 0 1 33 35 4 5 1 35 25 64 23 5 20 10 6
16 0 0 0 0 0 0 0 0 0 0 0 0 0 2 17 27 48 82 1 1 33 8 41 100 10 100 63 100 0 29 55 32 0 0 0 4 74 100 100 98 9 5
1 0 0 0 0 0 0 0 0 0 0 0 0 0 4 30 15 32 21 28 10 26 88 55 19 62 5 100 34 17 60 14 28 50 0 0 0 5 25 5 6 5 4
0 0 0 0 0 0 0 0 0 0 0 0 0 0 0 0 0 36 21 55 84 72 100 18 7 57 0 50 52 7 20 59 3 16 20 1 0 0 0 2 3 5 5
0 0 0 0 0 0 0 0 0 0 0 0 0 0 0 0 0 100 34 50 60 34 0 3 2 35 100 25 2 0 44 54 49 1 53 91 30 0 0 0 0 0 1
0 0 0 0 0 0 0 0 0 0 0 0 0 0 0 0 0 2 0 0 29 23 0 58 6 6 7 46 9 0 9 77 22 4 46 87 70 88 0 0 0 0 0
0 0 0 0 0 0 0 0 0 0 0 0 0 0 0 0 0 0 56 83 6 63 29 8 62 3 5 17 60 8 12 40 6 14 22 23 21 56 97 0 0 0 0
1 0 0 0 0 1 1 1 0 0 0 0 0 0 0 0 0 0 15 1 0 66 95 57 2 0 2 6 26 94 66 79 66 68 10 7 31 41 97 99 33 62 0
0 0 0 1 0 0 0 0 0 0 0 0 0 0 0 0 0 0 5 0 5 22 8 6 15 1 0 19 7 5 5 34 44 42 57 49 27 48 5 7 100 55 52
0 0 0 0 0 2 0 0 0 0 0 0 0 0 0 0 0 0 30 13 4 40 0 10 0 2 0 0 0 3 9 5 5 8 8 17 15 55 49 9 16 96 8
0 0 0 0 0 3 0 0 0 0 0 0 0 0 0 0 0 0 4 0 8 0 52 4 5 0 0 0 0 4 4 19 3 38 20 25 7 93 80 54 100 100 96
0 0 0 0 0 10 0 0 0 0 0 0 0 0 0 0 0 0 0 0 0 0 18 1 22 0 0 0 0 0 0 0 42 68 90 82 53 30 63 50 55 100 100
0 0 0 0 0 0 0 0 0 0 0 0 0 0 0 0 0 0 0 0 0 0 4 2 5 0 0 0 0 0 0 0 0 2 98 25 50 56 6 26 95 100 100
0 0 0 0 0 0 0 0 0 0 0 0 0 0 0 0 0 0 0 0 0 0 0 32 34 0 0 0 0 0 0 0 1 5 5 9 15 31 2 91 100 100 94

GFSSE_prec_cloud_033.txt.gz
Cloud_Cover
100 100 85 82 22 5 10 5 6 4 0 0 0 0 0 0 0 0 0 2 5 4 3 2 0 0 0 5 3 0 0 1 6 38 51 10 3 1 69 18 9 1 3
100 100 100 69 4 5 5 15 11 0 0 0 0 4 0 0 2 0 3 5 5 5 0 1 0 1 6 36 100 90 87 34 12 62 5 5 5 0 8 99 72 0 0
100 100 98 34 2 0 4 3 0 0 0 0 0 0 0 3 0 0 1 1 2 2 2 5 5 5 5 5 15 100 80 5 4 6 100 100 5 4 7 21 1 2 8
77 74 16 4 0 0 0 0 0 0 0 0 0 0 7 6 0 0 2 0 4 1 4 5 0 7 81 96 51 50 92 98 60 83 67 94 3 4 6 8 10 4 1
92 91 4 0 0 0 0 0 0 0 0 0 0 0 0 0 0 0 1 3 0 2 4 12 41 77 45 100 48 98 100 88 96 72 85 100 85 95 67 5 5 16 5
75 99 5 0 1 0 0 0 0 0 0 0 0 0 0 0 0 0 0 0 0 0 0 5 33 6 84 100 99 100 100 100 100 78 96 32 51 97 5 5 7 83 94
84 86 15 0 0 0 0 0 0 0 0 0 0 2 7 7 0 3 0 0 0 0 0 2 0 3 23 92 100 100 100 100 100 100 55 23 5 72 14 5 27 99 100
7 32 6 1 0 0 0 0 0 0 0 0 1 3 4 0 0 2 1 0 0 0 0 0 0 0 0 0 3 3 5 22 100 99 78 67 57 100 99 5 62 90 100
54 0 2 0 0 0 0 0 0 0 0 0 7 0 0 0 0 0 0 0 0 0 0 0 0 0 0 0 0 0 0 5 80 91 100 99 100 99 76 34 100 100 100
98 0 0 0 0 0 0 0 0 0 0 0 0 0 0 0 0 0 0 0 0 0 0 0 0 0 0 0 0 0 0 5 100 17 48 74 50 100 100 62 96 100 100
84 0 0 0 0 0 0 0 0 0 1 0 0 0 81 83 21 0 0 0 0 0 0 0 0 0 0 0 0 5 2 99 100 100 57 20 17 14 36 93 100 95 100
76 10 0 0 0 0 0 0 0 0 0 6 49 0 98 5 45 93 0 0 0 0 0 0 71 0 94 22 1 25 100 6 43 83 12 5 5 4 5 5 5 5 5
43 22 15 1 0 0 24 0 0 0 21 52 94 49 9 54 15 96 13 5 42 4 97 99 91 34 35 37 12 61 4 40 42 13 2 5 5 9 5 10 1 5 5
25 8 0 0 0 0 21 0 3 47 56 45 6 0 15 72 25 99 79 68 23 40 73 100 100 7 72 55 61 4 8 100 90 39 0 1 5 5 0 2 2 0 0
20 5 0 0 0 0 6 2 59 32 17 51 1 0 98 94 15 47 35 100 55 99 45 66 48 32 0 65 22 94 56 49 36 98 0 0 3 5 5 5 4 0 0
6 0 0 0 0 0 0 8 6 0 26 7 8 3 0 54 9 100 69 100 96 83 100 20 3 36 99 27 26 0 59 46 77 86 41 0 0 1 0 2 1 5 4
0 0 0 0 0 0 0 0 0 0 0 0 0 1 1 2 0 10 70 64 95 98 4 34 45 59 46 94 74 87 97 85 48 100 100 98 5 5 4 5 0 1 1
0 0 0 0 0 0 0 0 0 0 0 0 0 0 0 1 0 10 19 43 97 59 23 100 38 8 94 56 64 79 88 98 58 70 81 97 87 100 91 44 8 5 4
0 1 0 1 1 0 0 0 0 0 0 0 0 0 0 0 0 7 34 91 32 29 95 35 97 40 4 8 58 36 57 99 100 100 100 100 88 100 100 100 100 100 53
0 4 1 0 0 0 0 0 0 0 0 0 0 0 0 0 0 0 56 9 0 83 89 51 12 0 19 1 43 2 87 54 96 77 64 100 99 80 96 100 97 91 63
0 2 0 0 0 0 0 0 0 0 0 0 0 0 0 0 0 0 67 40 0 4 1 0 0 8 87 0 12 0 10 5 14 60 62 98 78 100 99 100 100 73 52
0 0 0 0 0 0 0 0 0 0 0 0 0 0 0 2 1 35 1 61 14 90 0 0 0 99 2 0 44 5 27 4 6 96 20 5 18 75 100 100 100 64 91
0 0 0 0 0 0 0 0 0 0 0 0 0 0 0 0 0 100 16 0 28 0 24 9 0 1 97 0 0 43 55 100 12 10 5 74 38 59 100 100 97 43 86
0 0 0 0 0 0 0 0 0 0 0 0 0 0 0 0 0 8 0 1 0 0 55 2 0 0 0 0 0 0 0 5 100 100 68 15 55 64 36 100 100 19 12
0 0 0 0 0 2 0 0 0 0 0 0 0 0 0 3 0 0 27 0 0 0 1 0 4 0 0 0 0 0 0 5 5 84 100 100 25 87 97 99 86 80 22
0 0 0 0 0 0 0 0 0 0 0 0 0 0 0 0 0 0 0 4 0 0 5 6 5 9 0 0 0 0 0 5 20 4 19 18 87 70 54 15 20 21 36

GFSSE_prec_cloud_036.txt.gz
Cloud_Cover
100 100 100 100 100 5 0 0 0 0 0 0 0 0 0 0 0 0 0 0 0 5 0 2 1 4 0 3 0 0 0 5 1 3 5 4 0 1 88 27 42 0 0
100 97 100 93 0 0 0 0 0 0 1 0 0 0 0 3 0 0 0 0 1 3 0 0 0 4 5 5 2 3 5 4 10 4 5 5 5 0 8 100 98 0 1
56 97 58 5 0 0 0 0 0 0 0 0 0 0 0 0 0 0 0 0 0 4 4 0 0 9 6 15 90 100 48 8 23 100 36 5 9 4 7 100 81 4 0
45 46 5 5 0 0 0 0 0 0 1 0 0 0 0 1 0 2 0 0 0 9 0 3 5 6 29 95 59 66 95 60 91 5 18 25 7 8 71 54 58 32 0
50 12 1 2 0 0 0 0 0 0 0 0 0 0 0 0 0 1 2 0 1 5 6 5 5 90 100 51 11 25 95 72 69 100 95 100 30 14 13 5 5 87 43
5 47 0 0 0 0 0 0 0 0 0 0 0 0 2 1 9 0 1 0 0 4 6 5 9 20 95 100 100 100 100 100 96 100 10 17 5 5 13 21 16 100 95
3 24 0 0 0 0 0 0 0 1 1 1 0 0 0 0 3 1 0 0 0 0 0 1 5 25 77 47 85 100 98 62 100 66 12 30 4 42 5 5 5 56 89
85 10 0 0 0 0 0 0 0 5 3 0 3 0 0 0 0 0 0 0 0 0 0 0 0 0 0 0 0 0 5 5 100 100 45 70 40 72 14 5 31 5 5
46 0 1 7 3 0 0 0 0 0 0 0 10 27 0 0 0 0 0 0 0 0 0 0 0 0 0 0 0 0 8 26 89 84 100 65 82 5 21 99 5 5 5
15 0 0 0 5 0 0 0 0 0 0 13 100 100 68 0 0 0 0 0 0 0 0 0 0 0 0 0 0 0 5 58 5 90 72 40 93 69 98 39 16 6 100
0 0 0 0 0 0 0 0 0 1 0 16 100 98 80 73 3 3 0 0 0 1 1 0 0 0 0 2 73 52 1 89 4 99 4 5 5 5 46 17 46 13 97
52 0 0 0 0 1 0 0 0 0 82 100 100 100 13 2 81 66 0 0 98 100 100 40 0 16 1 93 20 100 60 0 4 3 0 4 5 5 2 4 5 5 5
72 0 0 0 0 0 0 0 0 0 75 100 100 100 100 51 100 27 37 1 53 99 100 54 86 2 6 47 85 5 37 98 93 2 0 0 4 0 6 0 0 5 5
39 5 0 0 0 14 5 0 0 0 59 96 12 100 99 93 57 4 0 26 48 91 35 5 30 14 37 97 0 99 74 93 86 77 0 0 4 5 0 3 0 0 3
75 96 38 0 0 36 92 0 12 90 19 95 2 52 45 1 2 98 92 39 10 86 95 97 5 96 18 38 62 67 39 100 90 94 3 0 5 5 5 21 5 9 10
82 24 3 0 0 4 0 7 100 20 70 93 90 0 0 92 81 99 50 66 46 97 37 60 27 18 94 5 25 26 100 52 17 83 16 29 9 5 5 6 5 11 11
14 9 0 0 0 0 0 0 4 0 91 17 96 8 0 8 6 98 14 28 47 5 3 0 35 84 54 5 5 94 8 77 20 100 99 100 100 87 5 5 5 5 5
12 4 0 0 0 0 0 0 0 0 1 79 41 0 0 0 0 0 9 93 49 98 4 92 6 90 53 8 28 99 100 26 29 91 96 97 100 83 13 5 5 4 1
28 0 0 0 0 0 0 0 0 0 0 0 17 1 0 0 10 0 28 92 17 23 19 11 0 100 15 55 100 82 12 75 100 64 5 91 89 89 100 10 31 11 8
0 0 0 0 0 0 0 0 0 0 0 0 0 0 0 0 0 1 31 26 6 9 36 4 0 0 30 63 94 100 38 13 100 71 90 78 85 90 54 65 32 39 7
0 0 0 0 0 0 0 0 0 0 0 0 0 0 0 0 0 0 3 60 0 2 0 0 0 66 76 0 0 0 0 0 0 100 100 98 99 100 100 61 19 95 49
0 0 0 0 0 0 0 0 0 0 0 0 0 0 0 4 4 0 1 0 6 39 4 0 0 71 0 0 14 75 83 11 98 90 73 92 100 100 53 100 61 12 44
0 0 0 0 0 0 0 0 0 0 0 0 0 0 0 0 18 21 0 0 34 6 99 0 0 1 18 0 0 14 100 100 28 77 17 48 62 51 81 100 100 78 56
0 0 0 0 0 0 0 0 0 0 0 0 0 0 0 0 1 0 0 0 0 0 0 0 0 0 0 0 0 0 0 0 9 61 67 34 80 69 91 82 87 55 85
0 0 0 0 0 0 0 0 0 0 0 0 0 0 0 1 0 0 0 0 0 0 0 0 0 0 0 0 0 0 0 0 0 5 98 94 18 31 58 99 99 97 82
0 0 0 0 0 0 0 0 0 0 0 0 0 0 0 0 0 0 0 0 0 0 0 0 0 0 0 0 0 0 5 0 2 0 99 99 35 21 56 100 37 18 40

GFSSE_prec_cloud_039.txt.gz
Cloud_Cover
86 35 55 65 9 2 0 0 0 8 0 0 0 0 0 0 0 0 0 1 0 2 0 0 0 0 0 0 2 5 3 0 0 0 0 2 1 7 20 21 0 8 0
100 74 68 5 0 0 0 0 0 0 0 0 0 0 0 0 0 0 0 0 5 5 3 0 3 4 5 0 0 0 5 0 97 24 0 0 0 0 9 99 83 5 1
100 31 0 0 0 0 0 0 0 0 0 0 0 0 0 1 0 0 0 0 0 5 0 0 4 89 52 99 100 24 20 0 59 5 1 4 4 2 51 100 100 5 0
15 5 0 0 0 0 0 0 0 0 0 0 0 0 0 0 0 4 0 0 0 5 3 0 0 5 80 64 21 38 78 11 66 4 3 1 5 10 39 28 22 33 3
26 1 0 0 0 0 0 0 1 0 0 0 0 0 0 0 0 0 1 3 1 5 5 2 5 58 96 8 5 5 50 4 18 84 86 15 20 3 5 5 21 29 32
0 0 0 0 0 0 0 0 0 0 0 0 0 0 0 0 0 0 7 6 5 5 5 5 65 58 91 4 13 5 5 80 79 13 61 4 2 3 5 12 10 5 63
0 0 0 0 0 0 0 0 0 0 2 22 0 0 2 3 0 0 0 0 0 1 5 5 5 5 57 6 4 4 5 19 89 86 5 7 2 37 4 5 5 3 5
0 0 0 0 0 0 0 0 0 0 94 100 89 3 0 2 0 0 0 0 0 0 0 0 0 0 0 0 0 2 5 91 24 11 16 5 5 5 5 8 5 1 0
0 0 0 0 0 0 0 0 0 22 52 52 82 21 0 0 0 0 0 0 0 0 0 0 0 0 0 0 0 5 0 14 8 60 54 31 37 5 16 9 5 5 4
0 0 0 0 0 0 0 1 0 5 3 5 14 95 0 0 0 0 0 2 0 0 0 0 0 0 0 0 0 5 34 2 5 5 5 5 5 5 5 5 5 5 7
0 0 0 0 0 0 0 0 1 5 69 100 100 90 80 0 0 8 32 96 100 100 17 0 0 0 0 0 0 0 12 29 0 2 4 4 4 3 3 5 5 5 7
0 0 0 0 0 0 0 0 44 98 100 100 96 100 100 0 3 6 7 12 28 100 56 0 3 0 4 65 0 2 10 0 1 15 0 0 0 0 0 2 3 5 7
0 0 0 0 0 0 0 55 80 43 88 99 100 100 100 21 6 5 14 0 6 30 5 0 0 45 2 8 87 22 100 89 27 73 0 1 0 0 0 0 0 0 3
0 0 0 0 0 0 0 6 30 93 84 99 100 100 100 10 1 0 10 8 17 1 3 5 5 5 22 8 5 76 30 55 39 3 5 5 3 2 1 0 0 0 0
0 0 0 0 0 0 0 8 59 11 36 29 79 50 16 1 52 7 92 16 10 48 90 38 5 9 11 5 49 16 7 5 69 6 4 0 5 2 4 3 3 1 5
0 0 0 0 0 0 0 0 0 0 55 11 34 5 4 0 43 3 9 20 89 2 1 1 0 26 5 5 6 100 38 9 10 29 5 2 2 4 5 4 5 5 5
0 0 0 0 0 0 0 0 0 0 32 78 75 2 0 7 5 50 0 9 43 0 0 0 0 32 4 5 96 100 3 6 22 56 100 8 5 5 5 7 5 5 39
2 0 0 0 0 0 0 0 0 0 20 43 0 9 0 2 99 0 7 63 0 0 6 0 95 11 0 42 51 6 4 1 85 94 55 53 6 62 34 6 9 5 5
0 0 0 0 0 0 0 0 0 0 1 46 74 3 2 42 8 0 7 72 0 14 17 6 3 0 77 79 100 28 56 48 2 99 5 65 31 58 12 88 100 4 5
0 0 0 0 0 0 0 0 0 0 0 0 45 2 5 0 0 0 7 42 8 0 2 4 0 37 75 28 35 60 5 98 83 95 62 100 10 98 95 18 99 58 44
0 0 0 0 0 0 0 0 0 0 0 0 0 0 0 0 31 5 8 64 4 4 2 0 0 65 0 0 0 5 14 83 100 80 5 63 26 58 46 6 94 95 70
0 0 0 0 0 0 0 0 0 0 0 0 0 0 4 5 4 4 4 5 5 8 0 0 0 0 0 0 0 98 26 8 5 21 4 14 5 59 36 81 43 86 16
0 0 0 0 0 0 0 0 0 0 0 0 0 0 0 3 21 4 0 3 0 0 0 0 0 0 0 0 0 0 50 9 5 42 28 12 90 93 62 9 62 78 90
0 0 0 0 0 0 0 0 0 0 0 0 0 0 0 14 60 0 0 0 0 0 0 0 0 0 0 0 0 0 7 0 0 5 42 91 77 14 96 96 100 64 5
0 0 0 0 0 0 0 0 0 0 0 0 0 0 0 0 0 0 0 0 0 0 0 0 0 0 0 0 0 0 0 0 1 0 5 6 58 24 87 68 79 96 52
0 0 0 0 0 0 0 0 0 0 0 0 0 0 0 0 0 0 0 0 0 0 0 0 0 0 0 0 0 0 0 0 0 0 0 83 5 6 44 17 89 97 88

GFSSE_prec_cloud_042.txt.gz
Cloud_Cover
100 98 5 5 0 0 0 0 0 0 0 0 0 0 0 0 0 0 0 0 0 5 4 0 6 0 0 0 0 41 21 4 8 5 2 13 3 5 41 6 4 1 43
92 10 1 0 0 0 0 0 0 0 0 1 0 0 0 0 0 0 0 4 5 3 1 2 1 4 3 1 5 3 0 4 5 0 0 0 0 0 88 64 95 9 4
12 0 0 0 0 0 0 0 0 0 0 0 0 0 0 0 0 0 4 2 5 4 1 11 100 99 89 66 23 19 9 5 71 1 0 1 5 42 100 100 43 9 0
10 6 0 0 0 0 0 0 0 0 12 0 2 0 0 0 0 0 0 3 5 5 0 2 60 13 72 44 5 27 98 5 5 5 3 5 3 82 13 8 5 5 3
3 0 0 0 0 0 0 0 0 2 2 0 0 0 1 0 0 0 0 3 6 5 2 4 4 5 5 5 5 5 88 28 5 7 28 5 5 2 7 5 5 5 4
0 0 0 0 0 0 0 0 0 34 94 5 0 0 0 0 0 5 10 0 5 5 5 5 4 14 5 5 5 5 40 100 58 22 5 2 0 0 1 3 0 0 6
1 0 0 0 0 0 0 0 1 100 90 0 0 0 0 0 0 0 4 5 5 5 5 1 0 0 0 2 2 3 100 100 97 37 5 5 4 4 2 3 0 0 5
0 1 1 0 0 0 0 0 47 100 5 3 10 1 0 0 0 0 0 0 0 0 0 0 0 0 0 0 0 5 9 25 5 5 5 5 4 5 7 5 10 1 5
0 8 1 0 0 0 0 4 96 12 5 97 0 0 0 0 3 2 3 0 0 0 0 0 0 2 5 4 0 0 6 5 5 4 5 25 5 41 94 96 15 6 5
0 7 0 0 1 0 0 5 81 5 100 100 8 0 1 22 50 8 100 17 0 0 0 0 0 0 0 4 3 0 2 0 4 0 5 5 5 5 13 5 5 5 34
8 11 0 0 0 0 0 4 6 5 82 97 88 2 1 55 80 72 97 81 6 0 0 5 0 0 2 45 1 5 1 0 0 0 0 0 0 0 0 4 1 5 5
28 27 0 0 0 0 0 15 79 63 39 6 44 47 1 5 0 0 1 9 4 0 0 1 0 0 95 6 0 20 0 1 3 3 2 0 0 0 0 34 7 2 5
0 0 0 0 0 0 0 10 6 96 33 9 73 10 1 5 4 4 1 0 2 11 1 5 5 0 2 80 26 89 6 98 3 5 3 3 4 4 1 0 0 3 1
0 0 0 0 0 0 0 12 64 93 16 70 5 3 0 4 5 5 0 25 4 7 4 5 5 5 5 5 100 5 18 69 0 4 0 5 4 5 5 5 5 5 2
0 0 0 0 0 0 0 5 82 25 22 5 0 0 0 5 5 0 7 2 5 57 13 3 24 16 6 2 4 5 13 4 42 5 11 5 40 5 5 4 6 5 3
0 0 0 0 0 0 5 5 66 59 2 0 0 0 2 5 4 0 0 0 0 0 0 0 18 33 2 12 2 100 4 2 6 5 15 38 5 5 8 52 95 98 8
0 0 0 0 0 0 0 0 6 0 0 5 0 0 5 9 0 0 0 4 0 0 0 0 2 0 0 0 26 69 5 32 14 60 56 91 100 25 100 40 6 5 80
0 0 0 0 0 0 0 0 0 0 0 0 0 41 5 1 0 0 4 1 0 0 0 8 2 0 3 2 9 40 39 5 5 5 25 13 7 52 5 51 38 4 43
0 0 0 0 0 0 0 0 0 0 0 0 0 87 4 0 0 0 4 25 0 2 0 16 78 0 14 92 5 8 44 32 71 5 24 27 88 17 28 47 92 3 5
0 0 0 0 0 0 0 0 0 0 0 0 5 16 0 0 4 0 0 0 0 0 1 3 17 52 80 30 8 8 45 5 100 20 46 97 63 64 90 99 75 5 5
0 0 0 0 0 0 0 0 0 0 0 0 2 0 5 5 5 15 0 12 1 16 20 0 0 0 0 0 36 5 46 63 5 42 10 71 33 65 44 96 100 57 8
0 0 0 0 0 0 0 0 0 0 0 0 0 0 0 3 2 5 5 5 5 0 0 0 0 0 0 0 0 0 8 45 11 32 69 13 85 64 98 95 97 100 43
0 0 0 0 0 0 0 0 0 0 0 0 0 0 0 1 5 0 0 0 0 0 0 0 0 0 0 0 0 0 0 0 2 5 5 74 100 98 100 97 100 75 87
0 0 0 0 0 0 0 0 0 0 0 0 0 0 1 5 5 0 0 0 0 0 0 0 0 0 0 0 0 0 0 0 0 0 0 0 1 97 100 95 69 98 93
0 0 0 0 0 0 0 0 0 0 0 0 0 0 0 6 4 0 0 0 0 0 0 0 0 0 0 0 0 0 0 0 0 0 0 0 0 0 18 98 100 98 100
0 0 0 0 0 0 0 0 0 0 0 0 0 0 0 0 0 0 0 0 0 0 0 0 0 0 0 0 0 0 0 0 0 0 0 0 0 0 0 12 6 92 100

GFSSE_prec_cloud_045.txt.gz
Cloud_Cover
81 3 0 0 0 0 0 0 0 0 0 0 0 2 4 3 1 0 1 0 0 3 21 76 0 0 0 2 7 0 1 5 5 5 4 0 11 4 4 5 5 16 29
6 0 0 0 0 8 0 0 0 0 0 0 2 14 0 0 0 0 0 0 5 14 5 18 0 2 0 32 3 0 0 5 1 4 34 9 4 15 5 6 5 2 0
1 0 0 0 2 4 0 0 1 4 0 0 0 1 0 0 0 5 1 5 20 9 7 5 6 5 5 48 50 89 45 5 34 5 5 5 12 100 77 49 5 5 0
2 1 0 0 0 0 0 0 3 5 7 4 0 0 0 0 0 6 1 4 5 5 44 48 100 3 5 23 86 91 100 76 26 43 41 7 46 80 5 5 6 0 0
13 0 0 0 0 0 0 1 17 38 5 11 0 0 0 0 0 1 4 12 14 5 10 4 18 4 5 5 58 45 100 65 5 5 7 5 5 6 7 9 2 3 0
13 0 0 0 0 0 0 2 8 28 0 0 0 0 0 0 0 49 16 5 6 5 6 0 5 45 13 9 5 100 100 100 100 41 8 5 5 57 4 5 0 0 0
4 0 0 0 0 0 0 1 85 5 1 0 0 0 2 43 94 18 6 8 5 5 0 24 20 6 23 5 7 24 100 63 99 100 99 99 43 7 5 5 5 5 1
11 2 0 0 0 0 0 5 69 40 4 0 0 0 0 5 13 13 6 2 0 0 0 5 5 5 5 4 4 83 100 72 100 84 72 21 5 5 5 5 57 35 5
19 0 0 0 0 0 1 5 82 100 27 0 0 5 14 93 84 3 0 0 0 0 0 4 3 3 0 3 26 100 86 5 5 49 67 39 5 46 30 89 12 9 12
27 0 11 0 0 0 1 16 52 69 100 52 5 3 27 100 100 76 0 0 0 0 0 0 91 6 5 1 0 0 5 3 5 5 5 4 20 99 95 3 2 5 5
61 24 8 1 2 0 1 9 5 50 75 56 0 3 0 3 23 6 5 0 0 0 0 0 1 3 0 0 2 0 0 0 0 0 0 2 1 8 9 0 8 5 11
99 72 15 12 15 1 1 6 4 78 28 51 1 0 0 0 0 0 0 0 0 1 0 4 3 13 5 6 0 5 5 3 3 3 0 3 5 6 2 17 1 1 7
76 72 15 10 7 0 1 62 98 100 79 62 0 2 4 0 5 0 0 0 0 0 5 5 5 5 18 48 59 5 5 5 5 17 54 5 0 0 16 63 1 3 6
52 32 0 0 3 0 1 75 20 5 28 16 0 0 0 0 0 7 4 2 0 0 4 5 5 5 3 30 5 17 2 5 2 4 0 1 7 5 5 5 8 2 0
11 2 0 0 0 0 5 100 15 4 2 0 0 0 0 0 8 82 0 0 0 0 0 3 0 0 2 3 1 4 1 5 5 5 17 5 6 5 3 5 5 0 0
0 0 0 0 0 0 5 88 44 1 0 0 0 0 0 0 0 0 0 0 0 0 0 0 0 0 0 2 0 2 0 5 5 22 7 5 81 42 4 9 0 0 0
0 0 0 0 0 0 9 15 48 0 0 0 0 1 0 0 0 0 0 0 0 0 0 0 0 0 0 1 28 4 2 9 5 5 5 6 5 5 5 7 5 8 9
0 0 0 0 0 0 4 5 0 4 1 1 0 2 4 0 0 0 0 0 0 0 0 1 0 0 1 5 12 2 5 5 7 42 81 12 8 30 94 5 5 11 28
0 0 0 0 0 0 0 0 0 0 0 43 0 0 0 0 0 0 0 1 0 0 3 100 0 1 95 2 9 5 5 6 68 84 100 25 100 30 94 97 70 18 86
0 0 0 0 0 0 0 0 0 0 0 77 0 0 0 1 0 0 0 0 0 0 0 2 67 0 48 44 2 7 7 55 56 53 66 60 100 96 90 99 60 56 32
0 0 0 0 0 0 0 0 0 0 0 5 0 0 0 5 7 18 5 5 0 0 26 0 0 0 5 1 5 6 5 57 29 94 100 100 99 100 90 100 100 100 92
0 0 0 0 0 0 0 0 0 0 0 0 0 0 5 5 6 5 7 22 0 0 0 0 0 0 0 0 9 26 3 3 5 1 53 74 81 98 100 91 100 85 100
0 0 0 0 0 0 0 0 0 0 0 0 2 2 5 4 4 4 0 0 0 0 0 0 0 0 0 0 0 0 0 0 0 0 0 16 34 2 5 62 24 91 98
4 0 0 0 0 0 0 0 0 0 0 0 0 2 5 5 5 0 0 0 0 0 0 0 0 0 0 0 0 0 0 0 0 0 2 0 0 0 0 5 8 11 86
10 0 0 0 0 0 0 0 0 0 0 0 0 0 4 5 5 5 0 0 0 0 0 0 0 0 0 0 0 0 0 0 0 0 0 0 0 0 0 0 0 0 5
47 1 0 0 0 0 0 0 0 0 0 0 0 0 0 4 7 0 0 0 0 0 0 0 0 0 0 0 0 0 0 0 0 0 0 0 0 0 0 0 0 0 0

GFSSE_prec_cloud_048.txt.gz
Cloud_Cover
5 8 0 0 0 0 0 13 1 1 0 0 0 0 0 0 0 8 17 8 3 2 31 0 0 0 3 0 0 0 3 3 4 4 2 8 3 3 0 23 40 41 3
5 0 0 1 8 0 0 3 0 1 2 7 2 1 0 0 4 6 2 20 4 5 56 3 4 0 1 7 1 0 4 36 1 5 55 5 89 90 32 84 62 8 9
3 0 0 0 0 4 0 0 0 3 2 1 7 1 0 66 78 0 5 5 20 15 25 36 96 26 13 27 44 60 49 11 100 84 5 5 73 62 100 96 56 50 6
6 0 0 0 0 0 0 7 5 0 0 2 0 11 14 51 8 0 1 2 99 100 100 100 100 99 51 71 98 100 100 100 14 55 25 17 86 23 5 6 5 2 0
9 5 0 0 0 0 1 15 7 10 2 0 0 1 0 0 2 4 0 4 87 16 6 50 67 100 88 83 66 96 100 100 100 72 15 16 16 21 4 4 5 0 0
22 0 0 0 0 0 15 52 8 7 1 2 5 0 2 0 4 3 5 5 0 0 2 12 5 1 0 33 34 100 98 100 100 100 62 28 6 42 5 0 5 1 3
16 0 0 0 1 0 21 1 4 8 1 0 3 0 51 100 92 0 0 0 0 0 6 8 94 5 5 5 66 100 100 78 86 57 86 76 89 35 6 5 5 20 6
5 0 0 0 8 0 0 8 47 3 2 5 5 5 5 2 0 0 0 7 0 0 2 3 44 20 5 94 38 72 15 5 5 5 4 5 4 5 5 5 7 6 15
3 0 0 0 1 0 11 5 5 5 0 8 4 15 34 1 0 0 0 0 0 3 3 28 5 1 5 14 44 2 1 5 5 2 5 5 5 5 5 4 9 15 38
28 14 18 0 0 0 0 4 100 6 2 1 1 6 14 62 4 4 3 0 5 5 3 0 0 0 4 5 4 5 3 4 4 2 5 5 100 4 4 5 11 14 39
50 33 22 1 0 2 0 2 24 7 5 2 0 0 0 2 0 0 0 0 46 0 0 0 2 1 4 5 10 5 5 4 1 1 0 15 3 52 5 1 12 7 5
37 69 27 16 13 1 0 6 9 3 4 0 0 0 0 0 0 0 0 0 0 4 3 5 4 4 5 5 5 1 0 0 0 1 1 0 3 14 4 14 1 11 12
73 82 35 26 16 9 1 5 6 4 5 8 0 0 0 0 0 0 0 0 5 0 0 5 2 0 80 17 3 0 0 0 2 2 4 0 1 1 42 6 6 10 17
98 99 39 18 24 14 7 13 4 9 8 9 0 0 0 0 1 5 0 16 5 0 0 5 0 0 0 2 14 0 0 1 5 4 2 0 3 0 0 10 15 0 0
81 82 44 11 14 20 6 20 10 5 0 0 0 0 0 0 41 66 0 0 26 0 0 1 0 2 0 1 0 5 0 1 2 5 5 0 4 5 22 1 2 10 4
29 45 20 4 0 14 7 7 3 0 0 0 0 0 0 0 13 5 2 0 0 0 0 0 3 3 5 0 5 4 1 20 4 5 5 39 5 83 78 62 4 7 2
0 0 1 0 0 5 4 0 0 0 0 0 0 0 4 0 0 0 0 0 0 0 0 0 0 2 5 5 5 5 5 90 98 38 100 12 22 68 15 5 100 98 100
0 0 0 0 0 3 14 3 0 0 0 0 0 5 2 0 0 0 29 0 0 0 0 0 4 5 5 13 28 5 5 5 5 15 64 60 33 96 82 100 100 100 100
0 0 0 0 0 3 5 0 0 0 0 0 0 0 0 0 0 0 0 23 0 0 23 14 0 18 4 5 5 7 32 58 69 88 100 94 72 79 5 12 96 92 92
0 0 0 0 0 0 1 0 0 0 0 0 0 0 0 0 0 0 1 0 0 0 4 4 0 55 27 3 6 5 6 6 3 21 45 66 22 39 79 16 19 34 92
0 0 0 0 0 0 0 0 0 5 2 0 0 0 0 5 5 3 4 0 0 0 0 0 3 0 50 9 0 2 40 99 0 0 0 0 1 5 10 5 75 18 51
0 0 0 0 0 0 0 0 0 3 4 0 0 0 0 5 2 3 0 0 0 0 0 0 0 0 46 0 0 0 0 0 0 0 0 0 0 0 2 0 32 74 100
4 0 0 0 0 0 0 0 0 0 1 0 0 0 0 0 4 0 0 0 0 0 0 1 0 0 0 0 0 0 0 0 0 0 0 0 0 0 0 0 0 3 7
1 1 0 0 0 0 0 0 0 0 0 0 0 0 0 0 1 0 0 0 0 10 0 0 0 0 0 0 0 0 0 0 0 0 0 0 0 0 0 0 0 0 0
0 5 0 0 0 0 0 0 0 0 0 0 0 0 0 0 0 5 0 0 0 0 0 0 0 0 0 0 0 0 0 0 0 0 0 0 0 0 0 0 0 0 0
1 3 4 0 0 0 0 0 0 0 0 0 0 0 0 0 0 4 0 0 0 0 0 0 0 0 0 0 0 0 0 0 0 0 0 0 0 0 0 0 0 0 0

GFSSE_prec_cloud_051.txt.gz
Cloud_Cover
95 10 0 1 0 0 0 0 0 4 5 2 0 0 0 0 0 5 11 4 0 1 0 0 2 10 2 6 0 1 44 70 0 6 9 0 28 69 36 33 11 23 1
56 3 0 0 1 0 0 0 5 61 5 0 0 0 0 0 2 0 1 0 5 8 4 5 3 0 0 5 5 0 54 5 0 3 5 9 34 5 59 6 5 14 5
31 0 20 0 0 9 3 5 3 0 0 0 3 0 3 25 2 3 2 93 50 5 17 32 71 14 1 44 100 84 47 40 96 100 0 92 89 10 88 35 5 5 5
1 0 14 0 0 0 5 5 1 0 4 7 3 97 75 4 10 0 97 100 98 100 92 93 70 37 6 7 88 100 100 100 74 5 43 93 43 24 11 5 10 4 3
3 0 0 0 0 10 6 5 4 4 1 0 3 18 35 2 0 21 95 87 29 16 4 5 5 2 7 91 100 52 100 100 100 14 46 29 85 9 5 7 5 5 5
0 0 0 0 0 4 4 9 0 0 0 5 5 4 3 0 0 5 4 0 0 4 5 5 5 5 10 72 100 98 98 100 82 78 100 100 55 93 99 37 41 20 7
0 7 3 0 7 17 34 6 8 4 0 0 2 0 0 0 0 0 2 6 4 2 5 0 0 25 85 84 65 100 100 76 91 69 34 20 18 25 11 30 68 49 44
0 2 18 0 1 12 5 56 6 0 0 4 4 0 0 0 8 1 0 0 2 0 0 0 0 13 63 82 29 52 46 19 36 4 24 38 1 3 5 6 5 10 82
0 14 4 20 0 5 5 5 13 6 3 0 0 2 0 0 0 0 5 6 6 0 2 4 5 5 5 4 5 0 1 0 2 10 6 3 0 2 11 8 5 5 84
0 26 2 43 0 0 0 2 3 2 8 3 5 5 2 1 5 5 5 4 0 0 0 3 3 5 5 5 5 3 1 0 0 0 7 0 0 5 5 3 1 6 5
1 21 0 24 0 14 8 92 80 0 8 3 0 0 0 0 4 5 2 1 3 2 0 6 4 3 0 4 5 5 1 0 0 0 0 0 0 32 2 4 3 2 0
0 12 0 0 6 1 0 61 44 22 1 1 0 0 0 0 0 4 1 0 0 0 1 2 0 0 5 1 3 1 0 0 0 0 0 0 0 1 0 9 2 9 2
0 4 0 0 27 1 6 18 12 8 0 1 0 0 0 0 0 0 0 0 0 0 0 0 4 1 5 1 5 4 0 0 3 48 1 0 0 1 8 3 0 10 0
0 5 9 0 5 5 2 0 0 0 0 0 0 0 0 0 0 0 0 2 0 0 0 0 2 2 0 0 0 0 0 5 5 20 12 6 62 5 27 11 3 14 6
0 2 8 0 0 4 10 0 0 0 0 0 0 0 0 0 0 0 0 0 9 0 0 0 0 0 0 0 5 5 7 16 5 5 62 32 5 5 100 24 63 5 0
0 0 0 0 0 0 0 0 0 0 0 0 0 0 0 0 0 0 0 0 0 0 0 0 0 0 0 0 5 36 66 56 24 6 48 5 43 6 46 100 100 100 5
0 0 0 0 0 0 0 0 0 0 0 0 0 0 0 0 0 0 0 0 0 0 0 0 0 0 5 5 6 15 17 74 19 5 5 22 19 3 20 5 98 57 54
0 0 0 0 5 0 0 0 0 0 0 0 0 0 0 0 0 30 57 0 0 0 0 0 0 0 5 42 5 57 57 7 41 83 30 26 22 35 8 5 9 15 100
0 0 0 0 5 2 0 0 0 0 0 0 0 0 0 0 0 2 7 0 0 0 20 0 0 0 0 0 0 1 1 0 1 0 0 2 40 78 15 98 43 76 77
0 0 0 0 5 5 0 0 0 0 0 0 0 0 0 0 0 0 3 0 0 0 0 0 0 31 0 0 0 1 0 0 0 0 0 0 0 5 88 47 64 78 52
0 0 0 0 0 0 0 0 0 0 0 0 0 0 0 0 0 0 0 0 1 0 2 0 0 1 0 0 0 0 94 49 0 0 0 0 0 0 0 0 0 24 94
0 0 0 0 0 0 0 0 0 0 0 0 0 0 0 0 0 0 0 0 7 0 0 0 0 0 3 22 0 0 0 0 0 0 0 0 0 0 0 0 0 0 0
0 0 0 0 0 0 0 0 0 4 0 0 0 0 0 0 0 0 0 0 9 0 0 0 0 0 3 0 0 0 1 3 0 0 0 0 0 0 0 0 0 0 0
0 0 0 0 0 0 0 0 0 4 3 0 0 0 2 0 0 0 0 0 0 0 2 0 0 0 0 0 0 0 0 0 0 2 0 0 0 0 0 0 0 0 0
0 0 0 0 0 0 0 0 0 0 0 0 0 0 4 0 0 0 0 0 0 0 1 0 1 0 0 0 0 0 0 0 0 0 0 0 0 0 0 0 0 0 0
0 0 0 0 0 0 0 0 0 0 0 0 0 0 0 0 0 0 0 0 0 0 0 0 0 0 0 0 0 0 0 0 0 0 0 0 0 0 0 0 0 0 2

GFSSE_prec_cloud_054.txt.gz
Cloud_Cover
96 5 0 5 3 4 17 5 5 11 13 4 0 0 0 0 0 5 5 0 12 0 0 1 0 2 1 0 1 56 100 100 63 8 92 99 100 99 100 100 100 59 32
34 0 0 0 0 0 5 5 0 1 11 17 0 0 0 3 4 15 0 13 23 0 0 5 4 0 2 5 1 15 100 96 47 20 11 5 87 95 100 21 99 10 5
2 0 0 0 0 4 5 4 0 0 6 0 0 0 15 4 10 36 100 85 1 4 22 40 74 6 6 9 100 89 100 58 9 51 80 100 55 99 35 10 5 5 1
0 1 0 0 1 5 5 1 0 4 17 13 10 28 3 5 46 100 15 100 77 7 3 40 18 5 4 6 97 100 100 100 100 58 99 100 52 50 15 3 0 2 0
9 11 0 0 2 2 3 11 1 5 8 10 9 3 2 45 100 91 9 5 0 0 0 0 0 26 98 100 100 45 100 100 100 93 98 99 100 96 33 73 69 14 5
6 2 2 0 9 5 1 6 5 6 2 1 0 1 0 2 4 0 0 0 2 0 2 3 90 46 5 54 100 99 86 58 78 100 100 100 100 79 100 72 64 5 5
0 0 0 0 0 5 16 0 2 3 3 2 0 1 2 5 0 1 2 1 0 4 0 0 5 5 30 96 35 100 100 41 100 100 30 91 16 5 17 99 86 86 5
0 0 0 6 12 0 7 8 1 11 0 0 0 4 3 0 1 2 5 5 2 0 0 0 5 6 96 100 95 23 0 0 28 51 100 62 5 5 11 6 74 22 49
4 1 0 4 4 2 5 5 0 3 0 0 2 2 3 0 0 2 0 3 4 4 0 5 5 4 0 0 0 0 0 0 65 78 22 4 1 3 5 5 89 92 99
10 0 0 1 25 3 5 87 0 2 0 0 0 0 1 0 0 0 0 2 0 0 0 4 3 2 5 3 0 0 0 0 0 4 10 5 0 0 1 5 5 5 14
10 1 10 0 1 18 8 20 3 4 4 0 0 0 0 20 1 28 0 0 0 0 0 0 0 0 0 0 0 0 0 0 0 4 28 3 4 0 0 12 2 6 0
0 0 0 0 0 14 14 19 26 15 6 16 0 2 10 12 14 2 0 0 0 0 0 0 0 1 64 20 0 0 21 1 1 26 6 41 5 3 4 5 0 3 6
0 0 0 0 3 9 29 18 32 47 32 14 6 6 1 1 0 93 26 56 13 1 36 6 7 95 95 100 94 38 4 9 16 5 3 5 2 6 14 0 16 0 8
0 0 0 0 27 16 46 39 46 37 23 0 0 0 0 6 1 12 97 20 37 40 0 55 78 3 20 42 96 34 31 15 54 75 18 5 5 1 0 2 1 18 8
0 0 0 0 18 27 40 44 28 13 1 0 0 0 0 44 40 27 2 90 42 18 0 1 1 14 5 4 38 47 2 28 29 0 8 7 9 1 6 2 12 5 4
0 0 0 0 0 19 42 24 27 49 33 1 0 0 0 7 3 57 0 34 100 50 0 4 0 1 5 15 5 46 20 22 14 11 64 2 5 2 4 4 4 2 1
0 0 0 0 0 4 25 22 11 22 4 40 15 0 0 1 0 3 53 25 83 7 0 0 0 2 2 26 4 1 6 4 10 7 99 96 6 2 6 4 10 50 5
0 0 0 0 0 0 1 1 0 0 8 12 0 0 0 7 29 0 4 31 7 5 14 41 84 62 72 34 38 71 38 1 0 1 48 94 90 92 18 48 49 100 92
0 0 0 0 0 0 0 0 0 0 14 46 36 73 0 98 20 0 28 3 12 7 49 73 73 85 43 36 23 20 5 0 9 34 0 12 20 45 98 16 62 72 85
0 0 0 0 0 0 0 0 0 0 0 1 6 38 0 15 40 0 49 0 0 93 12 99 7 23 85 65 42 23 50 0 0 13 11 0 0 0 4 39 52 75 5
0 0 0 0 0 0 0 0 0 0 0 0 0 0 0 0 57 0 7 0 0 52 90 0 0 33 10 0 0 13 0 0 0 0 0 0 0 8 0 0 0 1 27
0 0 0 0 0 0 0 0 0 0 0 2 0 0 0 0 0 0 60 9 0 6 0 0 0 50 42 0 99 52 75 2 0 0 0 0 0 16 1 0 0 0 0
0 0 0 0 0 0 0 0 0 0 0 0 0 0 0 0 0 0 9 22 0 43 28 0 0 1 48 0 0 62 23 94 10 0 0 2 0 19 0 0 0 0 0
0 0 0 0 0 0 0 0 0 0 0 0 0 0 0 0 0 0 7 5 5 28 5 7 1 14 8 9 0 0 33 16 100 77 0 0 0 0 0 0 0 0 0
0 0 0 0 0 0 0 0 0 0 0 0 0 0 0 0 0 0 0 0 4 56 1 6 5 0 0 36 11 0 1 0 0 52 66 0 0 0 0 0 0 0 0
0 0 0 0 0 0 0 0 0 0 0 0 0 0 0 0 0 0 0 0 2 0 0 0 6 0 0 0 0 0 21 44 36 5 0 0 0 0 0 0 0 1 2

GFSSE_prec_cloud_057.txt.gz
Cloud_Cover
55 39 0 13 8 9 14 8 3 0 9 0 5 25 0 0 4 1 2 8 0 0 3 0 7 1 4 3 9 83 80 82 5 20 50 79 85 100 100 100 100 75 84
47 29 4 12 5 15 10 4 9 9 6 14 0 1 4 1 3 0 8 5 0 0 13 8 0 2 5 45 0 100 98 100 11 5 12 26 95 94 100 96 100 88 5
8 7 10 2 23 1 0 0 1 2 18 2 0 5 0 9 77 100 72 10 3 5 5 39 39 100 6 95 100 100 99 54 64 100 100 99 36 99 100 100 98 80 7
0 4 4 5 5 0 0 1 2 0 5 5 3 1 6 53 98 97 77 100 46 2 3 5 1 5 2 16 100 84 7 58 100 100 100 100 96 93 100 37 10 84 5
0 0 3 3 4 0 0 0 54 2 3 4 9 9 100 100 100 5 3 0 12 0 0 1 4 78 100 97 43 8 80 100 100 100 99 100 100 100 100 100 92 12 5
18 0 0 0 3 16 9 0 0 1 4 1 2 49 26 11 1 0 1 3 0 0 2 4 72 70 26 22 21 63 6 6 93 55 100 100 95 51 98 100 100 44 3
26 0 0 1 6 7 13 8 3 5 0 0 0 2 0 3 1 0 14 0 0 3 4 5 5 53 17 56 86 33 17 13 98 100 96 87 10 61 51 94 58 22 5
2 0 0 0 2 5 0 4 2 0 7 0 5 14 4 2 2 2 0 1 0 0 4 4 84 100 100 100 36 5 6 79 100 100 95 25 9 100 38 100 89 91 95
28 0 2 18 0 10 9 1 0 1 0 11 15 1 10 0 0 0 1 0 0 2 1 0 3 2 0 0 1 5 5 90 94 85 58 5 5 22 8 100 99 11 11
82 0 1 12 10 4 7 2 0 8 0 6 0 0 0 0 0 0 0 0 0 0 5 0 3 0 0 0 0 5 5 4 20 54 8 0 0 9 0 0 8 12 5
44 0 0 2 1 0 23 5 1 0 4 0 0 0 32 23 12 0 0 0 0 0 0 0 0 0 0 4 3 5 5 94 100 16 4 0 0 0 0 0 1 1 0
48 25 0 1 0 0 14 7 13 6 1 12 1 32 100 100 40 0 0 0 0 0 0 0 0 28 55 33 29 4 26 6 84 0 0 0 3 4 0 0 0 1 1
30 9 0 2 1 20 0 57 21 10 99 38 7 96 10 12 17 0 4 78 0 68 0 0 22 100 66 41 92 93 13 20 77 2 0 0 15 2 0 2 0 0 0
17 1 4 0 0 95 0 50 87 99 100 1 10 4 0 87 100 90 82 2 89 47 28 46 80 70 89 100 22 99 91 60 44 0 1 0 2 5 0 4 8 6 2
5 0 0 0 0 37 27 93 96 84 36 20 0 2 100 38 53 86 30 100 33 100 29 83 37 73 15 54 97 100 3 3 21 40 5 2 0 2 5 20 3 4 5
0 0 0 0 0 0 100 98 51 63 99 3 5 0 0 100 71 76 7 70 2 94 98 32 94 79 100 40 39 83 100 67 48 100 0 2 2 0 5 5 2 4 4
0 0 0 0 0 2 100 10 74 90 56 94 40 0 0 35 3 53 2 84 35 78 0 19 0 7 51 79 96 97 6 100 88 87 100 94 11 2 4 0 5 10 3
0 0 0 0 0 1 28 84 84 59 83 100 40 2 9 12 0 24 67 63 44 14 98 98 42 97 42 76 100 88 99 8 16 17 100 89 61 58 19 5 35 2 0
0 0 0 0 0 0 1 28 97 94 100 86 76 86 0 16 0 81 25 40 66 52 90 59 50 100 36 41 53 88 60 10 100 66 5 77 46 100 91 75 10 82 3
0 0 0 0 4 0 16 18 89 30 100 99 99 65 82 4 2 9 87 0 45 4 27 69 22 51 8 100 98 36 88 68 58 50 13 20 0 0 51 0 74 49 99
0 0 0 0 0 0 0 16 27 100 100 100 92 79 52 76 4 5 88 0 62 100 96 1 0 2 13 98 66 0 0 1 25 20 37 88 0 9 0 0 62 23 4
0 0 0 0 0 0 0 0 26 50 34 97 76 0 1 2 5 100 88 13 20 70 16 0 81 98 61 58 33 62 89 42 27 100 6 0 7 41 17 4 0 0 37
3 0 0 0 0 0 0 0 8 2 84 10 85 0 2 11 1 79 6 85 4 56 20 0 0 10 95 19 5 84 77 100 30 0 0 29 5 86 6 0 0 0 0
0 1 0 0 0 0 0 0 0 0 3 12 55 20 22 3 1 6 66 3 11 100 16 48 49 15 98 48 0 27 20 17 99 97 4 0 0 0 6 10 6 0 0
0 0 0 0 0 0 0 0 0 0 0 0 25 52 5 0 13 15 8 5 38 93 0 91 52 0 2 93 37 30 0 0 34 39 100 5 2 0 0 0 0 0 0
0 4 1 0 0 0 0 0 0 0 0 0 0 18 0 2 1 10 11 17 2 12 0 3 2 0 6 15 33 24 38 49 71 2 8 2 20 0 0 0 0 2 0

GFSSE_prec_cloud_060.txt.gz
Cloud_Cover
53 24 50 36 5 4 0 1 0 1 3 0 4 4 0 6 1 14 5 0 0 2 0 11 3 5 5 33 37 5 5 8 5 60 96 100 100 100 92 100 100 100 100
19 75 19 13 9 4 5 0 0 0 0 0 0 0 1 2 0 5 4 3 0 9 3 0 9 2 38 1 6 18 86 97 22 73 17 60 36 95 100 100 98 100 17
34 14 17 5 5 6 0 1 0 0 0 1 4 4 2 26 100 70 10 12 49 5 4 16 13 97 3 96 99 100 98 100 100 100 100 100 5 97 100 100 100 100 46
7 13 15 2 0 5 2 5 1 0 5 3 0 5 7 4 33 11 100 58 1 0 1 3 15 15 0 16 73 6 8 90 100 98 100 100 16 21 13 43 32 5 53
0 1 0 0 1 3 14 0 5 0 0 1 5 77 99 91 7 8 1 7 0 0 2 0 23 4 5 64 9 74 91 100 100 100 100 100 100 93 100 100 100 87 25
0 0 0 2 4 0 0 0 1 4 0 12 100 92 53 2 0 0 0 0 0 4 5 5 5 17 18 5 92 76 26 99 100 100 100 95 100 100 100 100 100 96 68
0 0 0 0 6 0 1 0 0 0 0 0 0 0 0 0 0 9 8 0 2 0 2 4 3 5 5 18 7 2 0 20 100 77 5 5 31 47 13 6 66 67 14
0 0 1 4 8 3 0 0 0 0 6 0 0 0 0 1 0 1 0 0 0 0 5 5 5 3 0 0 3 0 6 76 64 20 5 5 10 60 100 5 5 6 4
0 0 5 0 0 6 0 0 0 0 2 0 0 0 0 0 0 0 0 1 0 0 0 0 0 0 0 0 4 5 9 3 100 98 0 0 6 44 5 40 5 5 4
0 0 2 0 6 4 9 4 0 0 0 0 0 0 0 0 0 0 0 0 0 0 0 0 0 0 0 0 0 1 4 29 48 61 0 0 0 0 0 5 11 1 10
4 0 0 1 32 2 0 22 3 0 0 0 0 0 29 3 0 0 0 0 0 0 0 0 0 4 5 0 0 10 100 100 100 0 0 0 0 0 0 2 0 5 0
1 16 0 0 0 6 0 0 0 0 0 0 41 4 48 77 1 0 0 0 0 0 0 2 0 83 50 80 0 0 15 100 35 0 0 0 0 3 0 0 0 6 7
13 13 90 15 0 66 0 0 0 9 0 0 40 4 85 10 22 6 8 0 43 4 100 10 21 47 97 78 3 2 80 8 0 5 5 5 0 2 4 0 3 1 4
40 100 0 0 49 14 0 18 11 65 97 0 16 0 0 35 49 100 5 5 100 0 44 84 0 100 98 81 95 100 70 100 13 0 5 5 8 4 4 5 5 5 11
8 100 0 0 18 4 0 61 26 77 12 0 0 12 83 89 100 87 53 91 61 99 45 8 98 1 70 90 2 2 61 53 32 0 0 4 4 5 9 4 5 5 4
0 100 0 0 45 60 52 59 59 18 100 0 0 2 98 6 2 15 83 38 52 34 97 3 52 82 100 20 52 45 54 0 72 0 3 0 0 0 0 5 1 4 4
4 2 0 0 0 0 34 24 28 0 36 0 0 0 5 71 7 3 88 85 1 97 82 38 0 97 22 99 39 94 10 20 74 42 93 57 25 0 0 0 4 3 2
19 0 0 0 0 1 22 0 0 1 2 0 0 0 0 10 1 61 33 100 70 46 94 88 3 90 100 42 16 100 98 2 7 28 0 69 0 25 68 5 0 0 4
16 0 0 19 0 5 86 0 100 4 46 96 83 0 0 0 1 96 100 10 1 31 0 100 4 4 98 78 82 30 17 42 100 11 0 64 0 32 0 5 5 3 5
0 0 0 75 0 0 0 0 68 4 46 1 4 60 8 0 0 13 13 0 47 98 9 82 95 69 100 100 100 100 12 57 76 0 34 0 0 22 0 0 6 8 5
0 0 0 33 0 0 0 0 0 0 100 39 86 100 5 18 0 2 0 0 73 100 11 0 39 1 100 78 100 1 100 0 17 17 97 30 0 0 0 0 3 5 7
0 0 0 0 0 0 0 0 67 4 4 92 7 4 0 24 2 0 7 0 49 61 0 0 100 45 0 84 0 100 71 12 47 79 5 7 15 70 0 0 0 1 29
0 0 0 0 0 0 0 0 13 100 44 82 31 6 0 8 88 7 0 0 0 3 4 0 82 46 0 7 5 91 42 100 100 0 0 3 0 98 31 0 0 0 0
0 0 0 0 0 0 0 0 0 8 100 0 1 24 0 0 8 37 0 8 7 37 5 0 0 17 100 1 2 18 88 46 66 96 61 0 0 2 0 0 0 0 0
0 0 0 0 0 0 0 0 0 0 6 100 4 23 1 0 0 31 3 0 97 5 0 0 0 0 0 100 6 0 10 0 7 100 99 0 0 0 0 0 0 0 0
0 0 0 0 0 0 0 0 0 0 0 72 46 73 62 0 0 26 4 8 2 0 2 2 0 2 0 1 97 0 5 13 28 36 76 8 0 0 0 0 0 0 0

GFSSE_prec_cloud_063.txt.gz
Cloud_Cover
9 4 1 0 5 0 5 4 3 4 1 0 0 2 1 1 3 0 0 0 0 0 1 0 0 0 2 3 2 5 56 3 5 9 30 54 82 98 100 82 100 100 100
0 0 0 2 1 0 5 0 5 26 0 0 0 1 0 3 0 1 5 1 15 0 0 5 2 0 4 4 5 28 93 84 19 47 5 16 100 100 100 100 100 100 100
0 0 0 5 0 0 0 0 0 0 3 0 1 3 0 10 17 5 4 4 4 4 3 0 6 5 2 13 35 8 100 100 100 100 100 100 31 12 76 100 100 86 38
0 0 0 5 0 0 0 0 0 0 5 5 3 5 43 37 6 5 13 5 1 0 3 2 13 6 3 32 18 23 100 100 100 100 92 100 97 51 6 8 82 88 61
0 0 0 2 0 2 0 0 0 0 0 58 17 5 0 4 0 0 1 0 4 0 3 5 4 5 5 4 5 22 80 90 100 100 100 96 50 76 98 100 100 100 55
0 0 0 5 4 0 15 4 0 1 26 31 5 12 3 0 0 0 1 1 0 0 1 48 12 6 5 4 1 4 89 100 100 100 100 100 81 46 97 18 57 15 15
0 0 0 11 3 0 0 1 0 8 2 0 0 6 0 0 2 2 1 2 18 10 5 3 5 4 0 0 0 0 2 22 5 5 5 5 39 85 100 100 100 6 5
0 0 0 2 4 1 3 0 0 0 0 0 0 0 3 0 0 0 0 5 23 63 3 5 0 0 0 0 0 27 0 4 0 2 4 5 10 25 9 34 7 14 4
0 0 0 2 6 0 0 4 0 0 0 0 0 0 0 0 0 0 0 5 4 1 0 0 0 0 0 0 38 8 0 0 0 0 0 5 87 100 100 6 5 7 7
0 0 0 0 0 0 0 0 0 7 2 0 0 0 0 0 0 0 0 0 0 0 6 0 0 0 0 0 1 0 0 2 0 0 0 0 0 3 12 5 4 3 4
0 0 0 0 0 0 0 0 1 0 0 0 0 0 0 0 0 0 0 0 0 0 5 0 0 0 0 22 100 0 94 3 0 0 0 0 0 0 0 0 15 0 1
0 0 0 0 0 0 0 0 0 0 0 0 0 0 2 0 0 0 0 0 0 0 2 2 1 23 36 3 68 17 17 0 0 0 0 0 0 1 0 0 0 12 3
0 0 0 0 0 0 0 0 0 0 0 0 2 35 21 0 0 0 1 7 3 3 8 9 85 66 89 0 55 18 0 79 24 0 0 0 0 0 0 2 6 0 4
0 0 0 0 0 0 0 0 0 0 0 98 8 33 44 17 5 2 0 53 0 42 5 0 97 95 80 49 79 62 96 58 4 0 5 0 0 0 8 6 1 9 5
33 0 0 0 0 0 0 0 5 0 0 0 0 2 22 19 21 20 10 7 10 0 5 0 0 2 0 48 85 92 48 38 11 0 1 0 0 0 0 6 1 4 4
73 55 0 0 1 9 0 0 8 10 0 95 6 100 13 2 4 0 0 67 11 27 20 0 21 75 0 4 31 5 0 0 3 0 0 0 0 2 2 2 0 0 4
0 6 0 0 67 0 0 0 3 87 21 22 0 3 0 4 0 70 12 0 11 0 25 0 8 77 3 42 73 2 0 0 0 54 0 0 0 0 0 0 0 0 2
0 0 0 0 0 0 0 0 17 92 19 4 0 0 0 2 7 5 2 30 7 0 5 9 100 51 1 0 26 100 62 11 2 0 0 0 0 0 0 0 0 0 0
0 0 0 0 0 0 0 0 0 0 0 0 0 0 1 6 98 2 13 4 24 0 6 38 54 100 14 7 7 22 0 49 0 0 0 0 0 1 5 0 5 4 4
0 0 0 0 0 0 0 0 0 70 0 0 0 0 0 5 2 0 0 2 44 13 17 10 0 60 32 98 14 0 0 0 0 0 0 0 0 0 0 4 0 6 21
0 0 0 0 0 0 0 1 13 0 0 0 0 0 0 0 0 0 0 0 73 25 0 57 2 27 99 98 7 54 0 98 74 0 0 0 0 0 0 0 0 0 5
0 0 0 0 0 0 0 0 0 0 0 0 0 3 0 0 0 0 0 0 16 26 0 2 16 38 8 100 0 10 9 19 49 5 0 0 0 0 0 0 0 1 2
0 0 0 0 0 0 0 0 0 0 0 0 0 0 3 0 0 0 0 2 4 3 0 0 88 15 0 0 0 100 74 26 0 7 12 5 0 0 0 0 0 0 0
0 0 0 0 0 0 0 0 0 0 0 0 0 0 0 22 6 0 0 6 32 1 0 0 11 0 0 0 0 10 0 2 84 0 0 46 4 0 0 0 0 0 0
0 0 0 0 0 0 0 0 0 0 34 0 0 0 0 0 2 5 0 11 42 0 0 0 0 96 38 0 0 0 15 3 76 0 0 0 0 0 0 0 0 0 0
0 0 0 0 0 0 0 0 0 0 0 3 0 0 4 0 0 1 1 0 2 0 2 2 0 0 0 0 0 0 0 60 0 2 0 0 0 0 0 0 0 2 1

GFSSE_prec_cloud_066.txt.gz
Cloud_Cover
11 0 1 2 4 1 0 4 3 1 0 0 0 0 1 0 0 0 0 0 0 0 0 0 7 3 19 6 5 86 20 4 5 5 5 41 64 53 14 64 80 98 100
0 0 0 2 0 0 0 0 0 3 0 0 4 0 1 0 0 0 14 7 3 3 0 6 1 0 1 8 33 47 99 72 93 51 5 7 10 98 100 100 100 100 100
0 0 0 0 0 0 0 0 0 0 0 2 0 0 0 3 3 4 5 4 8 4 4 0 6 22 0 27 23 15 100 100 100 100 84 28 22 43 99 99 100 100 28
0 0 0 0 0 0 0 0 0 0 0 0 0 10 3 9 5 4 7 7 6 4 2 2 7 5 5 5 26 96 97 100 100 100 100 78 87 95 74 5 52 96 100
0 0 1 0 0 1 0 0 0 5 5 1 2 1 0 0 1 0 0 2 2 6 2 4 0 4 4 10 38 9 99 100 100 100 100 100 100 100 96 38 41 85 100
0 0 5 0 0 0 0 0 2 5 2 0 0 5 0 0 7 0 0 0 0 1 10 2 0 1 0 4 12 83 100 100 100 100 100 100 100 100 97 81 24 6 7
2 0 0 0 0 2 0 0 2 0 0 2 4 2 0 13 0 2 13 4 1 0 0 0 0 3 0 5 79 22 6 41 0 5 41 87 100 100 100 93 100 100 40
1 0 0 2 0 0 1 0 9 1 0 1 0 0 11 8 3 9 8 6 3 0 0 0 0 0 0 0 0 1 67 0 0 5 5 5 11 32 86 100 100 100 75
0 0 0 2 0 0 0 0 0 0 0 0 0 7 0 0 5 5 5 2 0 0 0 0 0 0 0 0 0 0 0 0 0 2 32 67 46 37 24 12 16 14 7
0 0 0 0 0 0 0 10 1 0 0 0 0 0 0 4 0 0 8 2 0 0 2 0 0 0 0 0 0 0 0 0 0 0 0 19 53 95 79 17 5 5 10
8 0 0 0 0 0 0 8 4 0 0 0 0 0 0 0 0 4 0 0 0 0 46 7 0 0 0 0 0 0 0 0 0 0 0 0 0 0 0 16 0 2 0
0 0 0 0 0 0 0 0 0 0 2 0 0 0 0 0 0 0 0 0 4 0 0 4 4 0 0 0 0 37 0 0 0 0 0 0 0 1 1 2 6 8 3
0 0 0 0 0 0 0 0 0 0 0 0 0 0 0 2 0 0 0 0 0 0 16 1 0 3 0 0 0 0 0 8 0 0 0 0 0 1 0 10 8 6 4
0 0 0 0 0 0 0 0 3 0 0 2 5 2 0 4 0 0 0 0 0 0 11 5 15 10 8 1 0 0 11 1 0 0 0 0 0 0 0 2 0 13 3
0 0 0 0 0 0 0 0 0 0 1 3 0 2 0 5 5 1 9 0 1 0 0 0 0 0 0 10 71 0 37 4 0 1 9 0 0 0 0 9 0 4 5
0 0 0 0 0 0 0 0 0 0 0 3 0 4 0 0 0 0 2 70 0 0 0 3 0 0 0 4 0 0 0 0 0 0 1 0 0 0 0 1 1 1 1
0 0 0 0 0 0 0 0 0 0 4 1 0 0 0 1 0 0 0 0 0 0 0 8 1 0 0 19 2 0 0 0 5 0 0 0 0 0 0 0 0 0 0
0 0 0 0 0 0 0 0 63 0 1 0 0 0 0 2 0 0 0 0 0 0 9 1 45 0 21 0 98 0 0 0 0 0 0 0 0 0 0 0 2 0 0
0 0 0 0 0 0 0 0 78 91 0 0 0 0 5 9 0 2 0 0 0 0 0 83 46 10 0 0 0 0 0 0 0 0 0 0 0 0 0 0 0 1 4
0 0 0 0 0 0 0 0 0 0 0 0 0 1 5 4 0 0 1 0 0 0 0 1 0 2 10 0 0 0 0 0 0 0 0 0 0 0 0 2 3 5 5
0 0 0 0 0 0 0 0 0 0 0 0 0 0 0 0 0 0 0 0 0 0 0 0 0 0 27 0 0 0 18 29 0 0 0 0 0 0 0 0 1 4 0
7 0 0 0 0 0 0 0 0 0 0 0 1 0 0 0 0 0 0 0 0 0 0 0 0 0 4 0 0 1 0 0 0 0 0 0 0 0 0 0 0 0 2
3 0 0 0 0 0 0 0 0 0 0 0 0 0 0 0 0 0 2 3 0 0 0 0 0 0 0 0 0 72 0 0 0 0 0 0 0 0 0 0 0 0 0
0 0 0 0 0 0 0 0 0 0 0 0 0 0 0 0 4 0 1 9 32 0 0 0 4 0 0 0 0 17 0 0 0 0 0 0 0 0 0 0 0 0 0
0 0 0 0 0 0 0 0 0 0 0 0 0 0 0 5 5 5 1 73 1 0 1 0 0 0 0 0 0 0 0 0 0 0 0 0 0 0 0 0 0 0 0
0 0 0 0 0 0 0 0 0 0 0 0 0 0 0 0 0 29 61 5 2 0 0 0 0 0 0 0 0 0 2 22 0 0 0 0 0 0 0 0 0 0 0

GFSSE_prec_cloud_069.txt.gz
Cloud_Cover
12 0 6 4 0 1 2 0 1 0 0 0 0 15 1 0 0 0 0 0 0 3 0 0 2 80 64 79 7 36 26 2 11 8 28 5 5 45 52 26 56 57 76
0 0 4 0 0 3 0 0 1 0 0 0 2 14 0 0 0 7 0 0 0 0 0 1 1 2 36 90 89 16 8 64 93 80 28 5 11 28 13 100 100 100 100
0 4 0 0 0 1 0 0 0 0 1 1 8 0 4 7 0 13 0 3 9 6 1 0 11 4 14 17 40 100 100 97 86 100 98 100 64 71 99 100 100 100 100
0 4 0 0 0 9 8 40 52 5 6 2 6 6 11 5 5 7 5 1 2 23 5 0 66 6 2 5 96 100 100 100 100 100 100 100 100 74 44 62 71 100 100
0 0 0 0 0 8 0 9 12 7 5 2 14 1 0 0 5 12 2 1 0 0 2 2 3 4 5 89 75 100 100 100 100 100 100 100 100 100 100 100 7 14 9
0 0 0 0 1 2 8 18 15 5 2 0 13 1 3 6 0 9 0 5 6 0 8 3 6 46 5 16 100 100 86 20 100 100 100 100 100 100 100 100 95 14 29
0 0 0 0 0 0 0 2 0 5 12 1 1 2 6 14 4 5 1 0 0 3 1 0 4 16 4 5 5 63 100 19 5 51 95 100 100 100 100 100 100 77 21
0 0 1 3 0 0 0 1 2 5 2 0 1 6 6 2 11 11 0 0 1 0 0 4 23 15 1 5 4 3 0 0 5 5 5 28 100 100 100 100 100 99 10
7 7 0 1 1 1 0 2 0 0 2 2 4 7 6 5 4 0 0 0 16 0 5 3 0 0 0 0 0 0 0 0 4 5 52 70 78 12 70 100 100 100 59
22 0 2 0 0 0 9 1 0 1 4 0 7 5 3 8 4 0 0 4 91 3 1 0 0 0 0 0 0 0 0 0 0 0 85 16 34 36 5 10 40 26 5
41 16 8 7 2 0 0 18 72 0 0 0 4 1 0 4 0 0 0 0 0 1 0 0 0 0 0 0 0 0 0 0 0 0 0 2 8 54 28 19 13 4 6
96 55 19 10 5 0 0 0 4 0 0 0 0 0 0 0 0 0 0 0 2 0 2 0 0 0 0 0 0 0 0 0 0 0 0 0 0 5 11 0 3 1 2
61 61 15 7 0 0 3 13 11 1 2 0 0 0 0 0 0 0 0 0 5 0 4 0 0 0 0 0 0 0 0 0 0 0 0 0 0 6 5 5 55 5 5
17 1 0 0 0 0 15 19 2 7 2 0 0 3 0 0 0 0 0 1 0 0 0 0 0 0 0 0 0 0 0 0 3 2 0 0 0 1 10 7 5 4 5
0 0 0 0 0 0 5 8 4 4 0 0 0 1 0 0 5 0 0 0 0 0 12 72 0 1 0 6 0 0 0 0 0 18 16 0 0 0 0 1 0 16 8
0 0 0 0 0 0 6 0 2 0 0 0 5 1 3 1 0 4 3 0 0 0 0 0 0 0 0 0 0 0 0 0 0 0 7 0 0 0 4 5 0 12 5
0 0 0 0 0 0 0 0 0 3 0 0 1 0 1 0 0 0 0 0 0 0 0 0 0 0 0 0 0 0 0 0 0 0 0 0 0 0 0 0 4 0 0
0 0 0 0 0 0 0 0 0 1 0 0 4 1 4 0 1 0 0 0 0 0 0 0 0 0 0 0 0 0 0 0 0 0 0 0 0 0 0 0 0 0 1
0 0 0 0 0 0 0 0 4 5 0 0 0 4 5 0 1 4 1 0 0 0 0 0 0 0 0 0 0 0 0 0 0 0 0 0 0 1 0 0 0 1 5
0 0 0 5 0 0 0 0 67 54 0 0 0 8 4 0 0 0 4 0 0 0 1 0 0 0 0 0 0 0 0 0 0 0 0 0 0 0 0 0 5 5 9
0 0 0 0 0 0 0 0 0 6 0 0 0 1 5 0 1 0 4 2 0 0 0 0 0 0 0 0 0 0 0 0 0 0 0 0 0 0 0 5 1 5 5
1 0 0 0 0 0 0 0 0 0 0 0 1 1 7 0 0 0 2 0 0 0 0 0 0 0 0 0 0 0 0 0 0 0 0 0 0 0 0 0 0 0 0
24 7 0 0 0 0 0 0 0 0 0 0 2 0 0 16 1 0 5 5 19 2 0 0 0 0 0 0 18 10 0 0 0 0 0 0 0 0 0 0 0 0 0
84 90 0 0 0 0 0 0 0 0 0 0 0 0 0 0 0 5 3 27 2 0 0 0 0 0 0 0 0 5 0 0 0 0 0 0 0 0 0 0 0 0 0
87 15 0 0 0 0 0 0 0 0 0 0 0 0 0 0 5 1 0 5 0 0 0 0 0 0 0 0 0 0 0 0 0 0 0 0 0 0 0 0 0 0 0
91 0 0 0 0 0 0 0 0 0 0 0 0 0 0 0 0 5 4 5 5 2 0 0 0 0 0 0 0 0 0 0 0 0 0 0 0 0 0 0 0 0 0

GFSSE_prec_cloud_072.txt.gz
Cloud_Cover
0 0 0 7 8 5 0 0 0 0 3 3 0 0 0 0 0 1 1 0 3 2 0 0 1 100 100 79 16 90 39 3 6 39 13 65 14 56 62 72 11 5 21
0 0 1 6 6 5 4 0 0 0 5 6 25 0 0 0 0 0 1 0 4 0 1 0 0 47 100 100 5 24 55 71 98 99 100 10 5 5 30 94 95 98 100
2 0 0 0 0 5 2 0 0 16 5 2 5 5 5 4 7 12 0 5 3 1 0 0 3 5 89 12 96 100 100 100 100 100 100 100 100 32 100 100 100 100 100
1 0 0 0 0 6 5 2 0 2 0 0 0 4 1 0 2 15 4 0 7 4 2 44 44 6 12 98 100 100 100 100 100 100 100 100 100 100 88 100 100 100 100
0 0 0 0 2 5 5 7 0 13 0 7 6 3 10 8 9 12 5 0 0 6 68 100 62 27 41 99 95 100 100 100 100 100 100 100 99 100 100 100 78 95 67
2 0 0 0 0 2 7 1 0 20 3 0 2 2 1 3 10 0 6 5 20 5 9 100 100 98 40 5 11 100 100 100 100 100 100 100 100 100 100 100 100 16 85
9 0 0 0 1 5 4 8 6 13 12 15 2 3 6 6 8 1 1 6 4 13 5 32 0 31 6 30 8 1 4 7 5 29 100 100 100 100 100 100 100 99 55
0 0 0 0 2 13 6 8 5 10 10 1 2 7 4 12 5 3 0 0 0 0 0 0 2 5 4 0 4 20 1 4 64 89 5 94 100 100 100 100 100 95 46
4 2 0 0 0 5 0 0 16 8 10 3 12 0 0 5 3 5 0 0 30 1 0 0 0 3 3 2 0 0 0 5 92 98 16 15 70 100 100 100 91 28 26
30 14 2 0 0 0 0 10 0 3 3 0 0 3 0 0 3 0 0 0 2 0 0 0 0 0 0 0 0 0 0 0 3 30 5 5 1 5 51 100 100 83 6
55 30 6 3 2 0 0 0 0 13 0 0 5 4 0 0 0 0 2 0 0 0 0 0 0 0 0 0 0 6 0 0 0 1 10 64 81 97 42 5 5 5 8
100 76 22 17 8 0 0 0 7 0 0 0 0 0 0 0 0 0 5 0 0 0 0 0 0 0 0 0 0 0 0 0 0 0 1 3 5 6 8 2 0 2 0
100 96 34 21 9 0 12 13 3 0 0 0 0 0 0 0 0 0 16 1 0 2 0 0 0 0 0 0 0 0 0 0 0 0 0 5 4 12 2 13 0 0 2
100 91 28 13 16 0 23 20 7 2 0 0 0 0 2 0 0 5 0 0 0 0 0 0 0 0 0 0 0 0 0 0 0 0 0 2 5 5 18 6 0 5 5
100 61 26 16 17 15 21 26 10 0 0 0 0 0 1 1 0 0 0 0 0 4 1 0 0 0 1 0 0 0 0 0 0 0 1 0 0 0 0 14 7 15 10
37 10 3 10 2 14 22 8 8 0 0 5 3 0 2 0 4 2 1 0 0 2 51 0 0 0 0 0 0 0 0 0 0 0 0 0 1 0 6 0 1 2 4
0 0 1 4 0 3 5 2 0 0 0 0 4 0 0 0 0 0 0 0 0 1 0 0 0 0 0 0 0 0 0 0 0 0 0 4 5 1 0 8 0 3 3
0 0 0 0 0 0 0 0 0 0 0 0 5 0 0 19 0 0 0 0 0 0 0 0 0 9 0 0 0 0 0 0 0 0 0 1 5 5 2 5 5 2 5
0 0 0 0 0 0 0 0 0 0 0 0 4 3 0 0 0 0 0 0 0 0 0 0 0 0 0 0 0 0 0 0 0 0 0 0 5 5 5 5 5 5 5
0 0 0 0 0 0 0 0 0 0 0 0 5 2 0 0 0 4 1 0 0 0 0 0 0 0 0 0 0 0 0 0 0 0 0 0 0 4 5 5 5 13 98
5 0 0 0 0 0 0 0 0 0 0 0 0 3 0 0 0 0 0 0 0 0 0 0 0 0 0 0 0 0 0 0 0 0 0 0 0 0 3 5 5 5 5
3 10 6 0 0 0 0 0 0 0 0 0 1 1 0 0 2 0 0 0 0 0 0 0 0 0 0 0 0 0 0 0 0 0 0 0 0 0 0 0 0 1 5
4 23 13 0 0 0 0 0 0 0 0 0 1 2 0 0 0 0 0 0 0 0 0 0 0 0 0 0 28 0 11 14 0 0 0 0 0 0 0 0 0 0 0
0 4 87 0 0 0 0 0 0 0 0 0 0 0 0 0 1 5 0 0 0 29 0 0 0 0 0 0 0 0 0 0 0 0 0 0 0 0 0 0 0 0 0
4 94 9 0 0 0 0 0 0 0 0 0 0 0 0 0 0 4 1 0 0 0 0 0 0 0 0 0 0 0 0 0 0 0 0 0 0 0 0 0 0 0 0
56 6 36 0 0 0 0 0 0 0 0 0 0 0 0 0 0 0 0 2 0 0 0 0 0 0 0 0 0 0 0 0 0 0 0 0 0 0 0 0 0 0 0

GFSSE_prec_cloud_075.txt.gz
Cloud_Cover
0 15 0 0 0 3 0 0 0 0 0 0 0 1 1 1 7 3 0 4 0 0 0 0 16 80 87 16 16 36 6 8 1 7 100 100 95 6 12 56 19 19 8
0 12 0 0 0 0 0 0 6 2 4 3 0 0 0 0 1 17 1 2 1 0 0 0 3 96 18 17 22 38 95 98 100 98 100 7 19 5 20 86 19 12 99
0 0 0 0 0 0 0 0 7 1 0 1 1 0 1 23 1 0 6 3 5 0 0 3 4 66 5 84 100 100 100 100 100 100 100 100 100 92 100 100 100 100 100
0 0 0 0 0 0 0 0 3 1 5 2 12 6 1 1 4 5 2 4 3 4 9 5 8 5 83 100 100 100 100 100 100 100 100 100 100 100 100 100 100 100 100
0 0 0 0 1 1 2 0 13 0 1 4 2 41 4 4 5 4 2 5 5 32 100 87 35 100 100 100 100 100 100 100 100 100 100 100 100 100 100 100 100 100 100
0 0 0 0 3 8 13 1 8 0 8 7 0 2 1 0 4 4 2 5 5 8 39 10 68 44 99 93 49 23 99 100 100 96 100 100 100 100 100 100 100 82 61
0 0 0 0 6 0 0 2 4 2 1 0 0 0 2 10 10 2 2 0 5 11 5 30 8 52 68 19 5 5 5 5 74 99 100 100 100 100 100 100 100 100 88
0 0 0 1 7 6 2 5 5 11 2 0 5 1 3 5 0 0 0 2 1 0 3 5 23 10 5 2 0 4 71 77 11 12 99 100 100 100 100 100 100 100 37
1 0 1 11 7 8 13 2 13 14 0 5 4 0 0 0 15 3 0 0 0 0 0 5 33 4 0 1 0 2 67 76 94 12 26 100 100 100 100 100 100 100 66
20 0 0 0 24 17 9 2 6 8 5 0 0 0 0 4 0 5 0 0 0 0 3 0 1 0 1 0 0 0 5 5 42 5 5 22 100 100 100 100 100 15 40
26 9 26 18 25 27 28 12 5 12 0 0 1 0 0 5 0 1 0 0 0 0 0 0 0 0 0 2 0 0 0 4 22 68 82 17 4 60 100 100 99 9 4
30 28 30 28 32 18 33 25 25 0 11 17 3 0 0 0 0 0 0 0 0 0 0 0 0 0 0 3 0 1 0 0 2 5 2 5 37 19 5 5 7 2 5
35 21 18 25 27 18 19 5 0 16 6 2 0 0 0 0 2 0 0 4 0 0 0 0 0 0 0 0 0 3 1 0 0 0 2 5 16 4 4 6 5 5 5
72 36 31 33 23 29 3 0 0 0 0 0 0 0 0 0 1 0 0 4 0 0 0 0 0 0 0 0 0 0 5 0 0 0 5 5 4 5 5 5 5 5 12
84 22 16 42 41 32 2 0 0 0 0 0 0 0 0 0 0 0 0 1 5 0 0 0 0 0 0 0 0 0 0 4 0 0 0 1 1 2 0 2 2 5 5
0 8 0 3 26 13 0 0 0 0 3 0 0 1 0 4 1 0 0 0 4 0 0 0 0 0 0 0 0 0 0 1 4 0 0 0 0 3 3 5 5 5 5
0 0 0 6 4 1 0 0 0 0 0 1 0 0 0 0 0 0 0 0 0 0 0 0 0 2 0 0 0 0 0 0 5 5 3 0 5 5 6 5 18 5 5
0 0 0 0 0 0 0 0 0 0 0 0 0 0 0 0 0 0 0 0 0 0 0 0 0 15 0 0 0 0 0 0 0 2 5 5 5 5 5 5 5 6 8
0 0 0 0 0 0 0 0 0 0 0 0 0 2 0 0 0 0 0 0 0 0 0 0 20 11 0 0 0 0 0 0 0 0 4 6 8 5 5 5 10 6 5
0 0 0 0 0 0 0 0 0 0 0 0 0 0 0 0 0 0 0 0 0 0 0 0 0 0 0 0 0 0 0 0 0 0 0 0 1 8 13 44 11 59 73
0 0 0 0 0 0 0 0 0 0 0 0 0 0 0 0 0 5 0 9 30 0 0 0 0 0 0 0 0 0 0 0 0 0 0 0 0 0 0 5 5 5 26
4 0 0 0 0 0 0 0 0 0 0 0 0 0 0 0 0 0 0 0 0 0 0 0 0 0 0 0 0 0 0 0 0 0 0 0 0 0 0 0 2 1 17
5 4 9 7 0 0 0 0 0 0 0 0 0 0 0 0 0 0 0 0 0 0 0 0 0 0 0 0 11 0 0 2 0 0 0 0 0 0 0 0 0 0 0
1 17 6 51 0 0 0 0 0 0 0 0 0 0 0 0 0 0 2 0 0 5 0 0 0 0 0 0 0 0 0 0 0 0 0 0 0 0 0 0 0 0 2
5 1 100 34 0 0 0 0 0 0 0 0 0 0 0 0 0 0 0 0 0 0 0 0 0 0 0 0 0 0 0 0 0 0 0 0 0 0 0 0 0 0 5
5 2 73 94 0 0 0 0 0 0 0 0 0 0 0 0 0 0 0 0 1 0 0 0 0 0 0 0 0 0 0 0 0 0 0 0 0 0 0 0 0 0 0

GFSSE_prec_cloud_078.txt.gz
Cloud_Cover
70 7 1 0 0 0 54 2 2 1 0 0 2 2 1 1 1 3 5 0 1 0 0 0 0 15 4 3 5 5 14 7 5 9 99 95 100 57 8 14 59 24 7
43 8 0 0 0 0 1 0 0 2 0 0 0 0 0 1 2 0 0 0 0 0 0 0 0 0 5 4 33 100 100 98 100 80 100 67 100 9 4 1 1 7 93
24 1 1 0 16 0 0 3 1 36 0 0 0 7 21 0 0 3 2 1 0 0 1 1 6 61 96 97 100 100 100 100 100 100 100 91 66 10 61 89 94 96 100
14 3 0 0 0 0 0 7 0 3 2 6 8 0 3 9 5 3 23 5 17 75 5 5 19 100 100 100 100 100 100 93 100 100 100 100 100 100 99 58 100 100 100
19 11 0 2 0 0 0 0 2 12 2 0 5 5 4 3 5 0 2 5 4 16 36 5 98 99 100 100 100 79 99 100 100 100 100 100 93 100 100 100 100 100 69
1 5 0 1 1 0 0 0 1 5 0 0 6 2 0 1 4 0 5 5 5 6 5 6 98 100 67 99 6 32 100 70 100 100 100 100 100 100 100 100 74 100 27
39 4 0 0 0 0 0 2 0 1 1 4 3 5 0 0 2 0 5 5 5 4 5 62 55 100 92 3 5 5 68 100 100 100 100 100 100 100 100 68 100 75 15
48 43 1 3 0 0 0 2 4 0 0 0 0 0 0 0 0 0 3 0 0 4 5 69 5 7 2 1 5 5 5 28 100 100 99 100 100 98 100 100 100 100 57
64 39 21 6 5 0 0 0 0 0 0 0 4 0 0 2 1 3 2 0 0 5 31 7 5 1 0 2 5 5 22 95 47 100 100 100 100 100 100 100 100 7 5
76 36 35 34 40 37 17 3 1 1 2 0 0 0 1 0 0 0 0 0 0 2 5 2 3 3 0 0 5 5 5 71 5 100 100 100 100 100 100 100 98 30 10
54 16 0 22 34 87 98 5 0 0 0 0 0 0 30 60 25 64 0 0 0 0 0 0 4 1 0 0 0 3 4 11 9 67 100 100 100 100 100 100 94 10 5
5 15 35 72 75 91 31 27 17 64 77 59 94 46 11 32 15 0 0 0 0 0 0 0 0 0 91 57 0 9 5 5 55 8 30 100 100 100 100 100 5 5 5
0 8 26 100 83 20 60 68 41 21 14 36 99 28 5 17 28 0 1 1 4 40 60 56 33 66 17 13 7 0 3 0 6 38 5 7 5 7 15 3 4 5 15
0 0 18 42 37 9 0 43 26 6 6 24 2 8 0 0 1 12 13 9 56 70 0 10 3 0 0 2 27 0 0 5 0 0 0 3 5 6 8 1 5 5 5
0 0 5 24 38 0 12 30 25 4 2 0 0 0 0 0 2 36 12 47 55 44 6 12 30 20 6 18 32 28 0 1 0 5 3 4 5 5 0 0 2 5 5
0 0 0 9 5 6 28 19 2 12 1 14 1 0 0 2 6 5 32 44 42 33 7 11 1 81 61 77 0 17 11 0 0 8 17 4 0 1 5 28 27 5 5
0 0 0 0 0 10 3 12 7 0 42 35 6 0 0 0 1 3 11 40 41 0 0 0 4 22 60 25 1 0 13 0 0 0 4 29 28 41 92 64 21 5 5
0 0 0 0 0 1 16 18 22 32 65 76 28 2 0 0 0 0 22 32 2 16 51 52 99 84 92 83 25 25 0 0 0 0 0 2 5 5 5 5 5 68 86
0 0 0 0 0 0 4 2 18 25 33 66 42 28 0 0 0 2 13 12 0 29 25 70 86 100 60 92 85 39 1 0 0 0 0 2 5 5 5 21 63 82 100
1 0 0 0 0 0 0 1 4 0 7 4 54 32 0 0 0 0 1 0 16 98 46 46 19 8 47 20 100 24 11 0 0 0 0 0 0 1 4 5 29 57 100
1 0 0 0 0 0 0 0 0 0 0 1 20 0 0 0 0 0 0 0 0 35 27 0 0 0 35 0 44 21 0 0 0 0 0 0 0 0 5 5 19 52 52
3 3 3 3 0 0 0 0 5 2 12 25 24 0 0 0 4 0 0 4 1 43 0 0 1 62 0 0 40 34 21 4 0 0 0 0 0 0 0 0 3 10 52
3 4 7 4 0 0 0 0 6 3 0 0 0 0 0 1 0 4 0 20 0 18 46 0 0 2 68 0 1 61 95 41 22 0 0 0 0 0 0 0 0 2 33
0 0 12 5 0 0 0 0 1 25 13 15 11 9 6 1 90 3 0 0 0 10 0 0 0 11 25 34 0 0 4 0 20 26 0 0 0 0 0 0 0 0 4
4 0 1 22 2 0 0 0 0 0 12 5 52 1 7 1 0 30 5 0 1 0 0 0 0 0 0 53 65 22 0 0 0 1 2 0 0 0 0 0 0 0 0
91 5 20 29 100 5 8 2 0 2 1 27 5 11 22 24 2 0 5 98 2 0 0 0 0 0 3 0 1 1 24 24 31 23 5 0 0 0 0 0 0 0 0

GFSSE_prec_cloud_081.txt.gz
Cloud_Cover
69 3 1 12 15 3 10 10 5 5 4 5 5 5 5 4 5 10 0 2 0 5 5 5 2 1 0 0 5 5 56 5 2 1 5 5 87 35 38 72 61 42 8
74 1 0 2 3 0 0 0 0 0 0 1 1 2 1 4 0 0 0 0 0 0 5 5 0 0 5 4 93 98 100 99 96 5 5 5 100 7 5 34 14 5 87
9 0 0 0 0 0 3 4 89 0 0 0 3 2 0 3 2 0 0 0 0 2 14 7 77 70 99 100 100 100 100 100 100 100 100 30 61 73 5 12 40 94 100
25 2 0 0 0 0 0 0 4 3 7 7 6 1 5 2 8 56 30 10 98 87 77 32 7 100 100 100 100 100 100 100 100 100 100 60 66 99 81 98 26 100 99
92 3 0 0 0 0 1 1 6 1 3 9 5 2 4 5 1 2 5 5 6 14 12 99 100 99 100 100 100 100 96 91 100 100 100 100 100 100 89 69 99 100 32
100 5 0 0 0 1 0 2 1 0 0 3 5 6 5 5 15 5 5 5 5 7 8 87 98 84 100 75 26 5 42 77 100 100 100 100 100 100 100 100 100 100 9
95 0 0 0 3 2 1 2 2 0 1 0 1 2 5 0 1 3 3 5 5 15 10 90 100 96 1 5 5 5 82 66 100 100 100 100 100 100 100 94 73 92 87
48 75 0 0 0 8 5 2 0 1 0 0 2 1 6 0 0 0 3 0 5 17 34 5 40 1 0 1 5 5 41 98 100 100 100 98 85 100 100 100 100 96 27
93 30 25 16 0 9 1 4 0 0 0 2 0 0 0 0 0 0 6 3 5 5 79 52 4 0 0 5 37 5 18 100 100 100 86 100 100 99 100 100 99 100 36
85 65 98 24 27 28 12 0 0 0 0 0 0 0 0 0 0 0 0 0 0 5 30 2 0 0 0 0 3 5 36 100 100 100 100 100 100 100 100 26 88 43 15
83 100 100 45 100 100 77 2 0 0 0 0 0 5 79 25 29 2 0 0 0 0 0 0 0 6 0 0 0 2 2 100 100 99 100 100 100 100 100 100 8 54 8
80 89 100 70 76 42 51 7 2 19 75 89 91 52 93 91 0 0 0 0 0 0 0 0 0 0 81 26 2 5 15 59 100 100 100 100 100 98 29 5 11 10 5
75 100 6 99 41 97 59 24 48 62 94 98 78 51 6 40 0 0 0 0 0 1 51 61 99 65 81 94 40 6 0 61 35 90 100 84 100 95 100 5 3 5 6
52 77 100 97 54 72 23 98 95 80 46 58 7 12 8 42 75 100 96 36 99 20 20 100 19 6 54 34 34 2 15 28 35 5 98 93 11 64 8 0 0 0 1
29 48 99 21 28 1 100 39 49 16 71 2 22 97 95 100 100 100 100 100 66 57 47 32 44 75 79 62 89 22 0 1 6 19 0 0 0 0 0 0 0 0 5
6 36 32 15 0 4 95 26 80 94 25 68 29 3 47 100 85 96 92 60 100 43 85 4 73 34 99 49 56 30 26 0 3 93 6 4 0 0 0 4 5 5 5
0 28 28 15 0 94 0 5 95 93 84 71 0 2 1 9 90 92 18 100 48 1 4 0 94 100 92 73 36 37 36 84 18 5 75 10 0 2 1 5 4 2 6
0 0 0 39 0 6 94 89 99 100 96 59 34 2 1 0 0 74 96 95 29 55 46 89 15 100 44 36 56 96 23 19 0 1 4 7 5 6 5 5 5 2 5
0 0 0 4 2 8 64 37 100 82 100 39 100 100 86 22 0 95 100 37 2 56 82 93 74 18 28 100 61 1 10 29 47 19 0 0 0 0 4 5 5 5 4
0 2 0 0 0 16 2 3 100 1 86 99 96 100 1 91 25 48 38 1 92 45 27 100 52 93 73 91 100 56 37 30 2 6 20 1 0 4 6 5 28 20 5
0 0 1 0 0 0 0 93 8 54 79 100 100 0 0 50 31 0 84 0 98 56 96 0 0 57 55 1 68 27 0 0 0 0 1 3 1 4 5 30 55 82 95
4 4 0 0 4 1 0 53 50 89 46 100 100 0 76 80 8 31 55 43 5 80 0 0 100 11 1 87 7 96 98 20 0 8 0 0 0 0 0 4 35 97 70
4 0 0 1 0 0 15 8 23 7 90 9 88 32 7 46 89 36 0 77 8 55 50 0 0 98 82 0 98 1 100 70 99 0 0 0 0 0 0 0 1 43 85
2 1 5 2 5 2 4 4 43 10 50 46 53 100 88 73 50 100 6 5 0 55 95 0 0 71 14 78 16 100 1 31 100 66 0 0 0 0 0 0 0 2 52
2 0 0 4 6 5 0 69 20 44 98 78 100 28 99 17 5 87 77 41 0 9 2 49 0 0 100 14 98 61 0 0 2 100 23 0 0 0 0 0 0 0 5
5 16 0 2 24 10 5 4 6 23 28 100 57 44 26 37 0 4 88 43 0 27 20 5 0 0 0 2 11 3 68 100 29 96 29 23 12 0 0 0 0 0 0

GFSSE_prec_cloud_084.txt.gz
Cloud_Cover
18 13 0 0 2 8 7 31 90 100 100 62 43 6 5 3 1 0 0 3 5 0 0 0 0 0 0 5 0 5 3 4 0 0 5 12 20 25 14 100 100 43 83
11 22 0 0 0 0 0 0 0 3 4 5 5 4 2 0 0 0 0 0 0 0 0 0 0 2 0 5 2 4 4 5 5 28 5 5 80 95 5 8 46 8 5
11 4 0 0 0 1 100 100 1 0 0 2 0 0 3 0 1 0 0 1 1 4 7 6 60 5 48 33 63 94 97 100 100 99 92 69 100 85 24 12 5 19 100
0 0 0 0 4 1 6 6 1 7 1 4 0 0 1 11 69 5 6 8 48 84 84 16 37 23 88 100 100 100 96 100 100 100 100 34 52 99 80 93 67 100 98
8 0 0 0 5 0 1 0 8 0 2 4 1 0 1 1 2 5 1 3 6 66 84 59 73 35 99 99 100 100 100 100 98 100 100 77 47 47 98 100 98 100 100
0 0 0 0 1 1 0 2 4 0 12 2 0 1 5 1 5 3 4 5 5 56 100 87 92 58 48 12 77 100 66 100 100 100 100 100 100 95 82 100 100 100 100
1 1 2 0 0 0 0 2 5 5 6 0 0 0 2 0 0 0 3 5 6 100 98 99 89 0 0 2 5 96 95 56 31 99 100 100 100 99 100 100 100 100 34
2 0 9 1 14 0 0 3 0 0 1 0 0 0 0 0 0 0 2 5 36 99 8 5 0 0 0 1 5 6 100 83 66 99 100 100 100 100 100 100 99 99 56
0 0 0 10 2 3 3 1 0 0 1 1 0 0 0 0 3 10 1 5 5 5 4 0 0 0 0 0 0 32 100 96 90 100 100 100 100 100 100 100 100 78 26
44 0 0 0 0 0 0 4 1 0 0 0 0 0 0 0 0 0 0 5 5 0 2 0 0 0 0 5 2 100 100 100 100 78 100 100 100 100 100 60 99 59 5
68 61 11 4 63 0 0 3 0 0 0 0 0 11 36 0 0 0 0 0 0 0 0 0 91 100 9 0 1 72 99 85 100 100 100 100 100 100 72 40 91 8 4
50 40 89 0 0 0 0 0 90 0 0 37 76 2 57 0 0 0 0 0 0 0 0 21 98 100 90 61 31 100 29 90 100 100 94 100 100 100 5 8 22 5 5
65 0 5 77 23 50 0 1 19 5 0 82 23 3 0 0 0 0 0 2 20 71 62 100 10 0 100 99 41 9 99 100 100 100 100 100 100 91 7 5 5 3 1
100 41 0 10 98 17 0 72 65 5 2 8 1 79 0 22 55 100 75 100 24 100 100 10 65 82 71 41 34 58 96 98 100 100 77 81 54 48 2 0 0 0 5
7 1 0 12 18 79 24 99 16 73 44 0 98 50 80 54 71 100 88 68 34 99 95 57 78 41 76 100 25 0 0 8 44 100 74 19 56 5 2 0 0 5 5
12 84 2 4 0 0 69 0 75 100 0 1 48 84 2 33 28 100 41 72 54 50 65 57 0 32 44 39 32 51 49 0 77 18 43 3 1 0 0 4 5 5 18
89 1 0 0 0 0 1 100 70 4 100 1 0 37 83 28 19 72 27 46 16 1 40 14 1 2 92 7 29 62 1 36 1 36 54 0 0 1 5 5 25 31 58
100 46 0 0 0 7 6 77 100 100 72 6 0 0 0 0 16 89 7 30 77 79 68 15 6 0 42 19 14 0 0 2 0 0 0 45 0 1 5 5 5 5 12
70 0 90 34 0 73 4 90 60 8 34 100 14 49 0 0 3 6 8 30 9 54 54 2 1 0 59 84 89 18 78 24 67 3 4 4 1 4 4 5 5 5 5
10 0 100 47 0 96 0 78 12 97 45 99 51 47 4 10 0 31 40 8 53 23 36 88 36 38 1 100 5 26 6 71 20 0 0 1 4 3 5 5 5 4 5
0 0 51 34 0 17 0 65 12 50 59 76 54 5 3 73 14 0 7 0 100 3 73 6 0 0 91 0 0 41 0 0 1 0 62 29 5 5 7 8 48 54 9
4 0 0 2 0 0 0 0 77 100 6 46 98 4 97 95 3 0 84 34 50 41 0 11 66 20 83 0 27 24 58 20 87 21 0 0 0 0 2 5 14 88 100
3 5 0 0 0 0 0 0 4 58 39 18 88 0 2 40 4 75 1 85 24 2 0 0 50 1 33 14 0 100 40 60 0 0 0 0 0 0 0 0 5 75 93
0 1 5 4 0 0 33 0 0 78 24 0 3 9 15 68 28 5 0 0 84 45 53 0 88 35 0 0 0 100 39 100 0 79 0 0 0 0 0 0 0 31 80
1 0 0 0 0 0 0 21 7 0 51 96 33 19 2 0 79 22 19 0 4 100 38 74 0 3 61 87 0 0 2 41 100 19 5 0 0 0 0 0 0 9 5
14 0 0 0 0 2 10 28 2 0 80 69 85 92 15 0 0 0 63 0 4 45 7 2 0 2 51 1 0 0 0 0 2 33 23 64 0 0 0 0 0 0 0

GFSSE_prec_cloud_087.txt.gz
Cloud_Cover
8 0 0 2 2 6 76 100 100 100 100 99 100 100 100 100 100 99 100 100 90 74 82 6 0 0 2 3 2 3 2 3 4 4 7 5 60 5 72 100 80 87 100
0 0 0 0 0 0 0 0 6 94 100 100 100 12 6 0 0 0 0 0 0 0 0 0 0 4 2 0 1 4 1 0 0 2 6 5 36 5 7 38 19 13 6
0 0 0 0 2 5 4 0 0 0 1 0 0 0 1 0 0 0 0 1 7 5 1 2 5 5 5 5 5 40 5 5 52 19 36 5 43 9 88 5 5 34 16
0 0 0 0 0 0 0 1 3 0 0 0 0 0 1 1 5 6 3 5 52 30 50 66 5 33 5 5 93 63 100 99 95 40 46 74 66 63 64 28 40 92 70
0 0 12 0 0 2 12 6 0 0 0 0 0 0 1 0 4 1 2 5 5 5 38 52 5 5 91 96 100 100 100 98 99 96 100 58 68 100 90 88 81 89 100
0 0 0 3 0 0 4 2 1 1 0 0 2 0 0 0 0 0 5 5 5 70 5 2 5 5 5 25 47 95 100 100 100 100 100 100 99 16 65 14 100 100 34
0 0 0 0 0 0 0 3 2 0 0 0 0 0 0 0 0 2 7 95 5 7 6 1 0 0 0 2 9 53 100 96 100 100 100 100 100 79 41 94 100 100 11
0 0 0 0 0 0 0 0 1 0 5 13 0 0 0 0 0 5 5 5 5 5 1 0 0 0 0 2 5 5 100 10 100 100 100 100 100 47 94 100 100 98 5
0 0 0 0 0 0 0 0 0 0 1 1 0 7 0 0 0 1 5 4 0 0 0 2 3 0 0 3 4 100 100 52 25 100 100 100 100 99 100 100 100 68 5
0 0 0 0 0 0 0 0 0 0 0 0 0 0 0 0 0 4 5 0 0 0 0 10 0 0 1 5 96 100 100 37 92 100 100 100 100 100 100 100 100 68 5
0 0 0 0 0 2 0 0 0 0 0 0 16 0 0 0 0 0 0 0 0 16 43 91 26 2 0 99 95 100 100 100 100 100 100 100 100 100 100 100 17 17 5
39 0 0 0 0 0 0 2 0 0 0 1 0 0 2 5 0 0 0 5 100 100 98 17 90 5 2 21 80 100 30 100 92 100 100 100 100 100 84 5 100 6 5
0 0 0 0 0 0 0 0 0 0 3 1 0 1 64 94 4 2 4 4 11 100 77 8 73 1 1 12 93 84 100 93 70 100 100 100 100 100 5 5 50 5 5
1 0 0 2 0 0 0 0 0 0 0 0 8 14 26 100 7 0 80 54 35 6 5 0 0 12 42 48 27 92 99 83 100 100 100 100 100 58 5 5 1 5 5
93 0 0 3 0 30 28 0 0 0 0 0 1 0 3 96 4 33 46 8 96 23 6 3 0 3 63 3 5 83 45 90 75 83 100 90 97 18 4 0 2 5 5
1 0 0 0 39 54 41 61 43 0 0 0 0 0 36 14 51 2 0 12 88 64 2 0 1 0 3 10 4 2 4 5 39 5 11 4 5 3 0 0 5 5 11
0 18 0 0 81 94 20 76 61 66 0 0 46 0 1 0 0 0 0 0 23 44 0 0 0 41 24 0 0 0 13 0 0 16 6 0 0 0 3 5 5 5 5
0 0 0 0 0 11 8 3 56 33 8 33 0 0 0 0 0 0 0 28 2 2 1 0 3 46 0 0 0 0 0 0 0 0 0 0 0 0 5 5 5 5 5
56 6 0 0 0 0 0 100 43 58 2 0 0 0 0 0 0 0 21 3 4 1 0 0 0 77 94 0 0 0 0 0 0 0 1 0 3 4 0 5 5 5 5
63 0 0 0 0 0 0 0 0 0 3 34 15 1 0 0 0 0 0 1 28 17 36 2 28 40 96 9 0 0 0 3 5 2 2 0 2 4 2 3 5 5 5
5 0 92 0 0 2 0 0 0 77 12 0 100 4 5 0 0 0 1 2 0 0 0 0 0 0 37 4 0 0 66 23 0 0 0 0 2 5 5 5 5 4 5
1 4 37 2 0 1 1 0 0 0 0 16 31 2 85 80 4 1 6 0 83 0 0 0 0 0 0 0 0 0 5 4 0 0 0 0 0 1 5 20 7 92 10
0 1 0 0 0 0 0 81 58 50 0 0 28 43 0 47 0 0 3 3 1 0 0 0 0 8 0 0 0 0 0 0 0 0 0 0 0 0 0 5 35 74 5
2 5 0 0 0 0 0 69 69 28 1 32 20 0 0 66 10 0 5 9 53 2 0 0 0 0 0 0 0 0 0 7 0 0 0 0 0 0 0 0 5 26 98
7 11 0 0 0 0 6 6 5 50 46 3 5 3 0 10 86 5 40 5 17 28 94 0 0 0 0 0 34 0 18 4 17 0 1 1 0 0 0 0 0 17 70
68 14 0 0 0 1 14 17 0 6 9 45 2 62 86 100 3 3 72 2 0 1 0 0 0 0 0 0 0 0 0 85 77 6 0 0 0 0 0 0 0 0 0

GFSSE_prec_cloud_090.txt.gz
Cloud_Cover
1 0 5 5 5 47 43 5 11 5 10 26 6 41 90 100 100 98 100 100 100 100 100 89 10 15 5 9 11 16 19 4 4 10 5 8 26 51 48 100 100 93 100
0 0 0 0 5 5 6 5 79 34 44 9 14 24 52 100 100 100 95 51 13 8 15 0 4 5 0 1 0 0 4 5 18 59 18 10 56 78 29 100 26 33 43
0 0 0 2 3 2 0 0 0 0 33 25 8 0 0 0 0 0 4 5 11 5 8 2 5 7 5 5 5 5 5 3 5 1 14 5 28 44 5 15 38 27 5
0 0 0 0 0 1 0 0 12 1 0 0 0 0 0 2 1 0 5 30 30 25 6 5 5 5 5 5 54 100 92 98 98 85 65 6 38 75 83 66 35 38 28
3 0 0 0 0 13 10 1 1 0 0 0 2 4 1 0 0 5 10 5 5 76 5 4 3 5 4 42 44 100 100 100 100 97 85 93 93 86 98 100 41 68 21
0 0 0 4 0 6 0 0 0 0 0 1 0 0 0 0 0 5 5 5 5 6 5 1 0 1 5 85 100 100 100 100 100 100 100 100 95 99 97 51 100 79 60
0 1 0 0 0 0 0 1 0 0 6 11 6 0 1 0 5 5 5 1 4 4 0 0 0 0 5 20 100 100 100 100 100 100 100 100 100 99 12 94 100 96 66
0 11 0 0 0 0 0 1 0 0 1 1 6 2 0 3 7 2 4 5 5 0 0 0 0 0 4 20 99 100 100 100 84 100 100 100 98 46 100 100 100 100 45
0 0 0 0 5 0 6 2 0 2 1 0 0 0 2 3 5 10 0 0 0 4 0 0 0 0 0 0 98 100 100 100 100 100 100 100 99 69 100 100 100 75 30
0 0 0 0 0 0 4 0 0 0 0 0 1 1 3 0 2 0 0 2 96 6 2 0 0 0 2 5 68 98 94 14 100 100 100 100 100 99 100 100 100 100 5
0 0 0 0 0 0 4 1 0 0 0 5 4 5 0 0 1 0 16 5 26 78 0 0 0 2 31 100 100 100 83 86 100 100 100 100 100 100 100 100 82 85 5
0 0 0 0 0 0 0 0 0 0 0 4 3 5 4 0 4 0 5 18 100 18 0 5 2 5 51 70 100 100 100 100 92 100 100 100 100 100 100 92 100 59 5
0 0 0 0 0 0 0 0 0 0 0 0 2 5 4 4 0 10 76 74 46 0 0 0 0 94 100 31 44 100 99 100 54 100 100 100 100 100 90 23 72 15 5
0 0 0 0 0 0 0 0 0 0 0 0 0 4 0 4 2 5 74 84 4 0 0 2 0 2 5 89 100 38 5 44 100 100 100 100 100 100 5 5 18 5 12
0 0 0 0 0 5 0 0 0 0 0 0 0 58 0 4 5 21 5 5 1 0 0 0 2 1 1 12 100 97 14 90 98 100 100 100 100 99 3 4 4 5 34
52 0 4 0 35 47 4 0 0 0 0 0 0 0 1 0 0 0 74 2 0 0 0 0 0 3 0 0 75 99 6 17 22 100 87 54 22 4 4 0 5 9 95
4 0 0 0 49 33 29 0 0 0 0 0 0 0 0 0 0 0 6 12 0 0 0 0 0 0 0 55 31 5 2 5 5 3 5 0 1 1 1 4 5 5 6
0 0 0 0 0 0 0 0 0 0 0 0 0 0 0 0 0 0 0 0 3 0 0 0 0 0 0 0 0 0 0 0 0 2 0 0 1 5 5 5 5 5 5
0 0 0 0 0 0 0 0 0 1 0 5 0 0 0 0 0 0 0 1 0 0 0 0 66 0 0 17 0 0 0 0 0 2 0 4 2 5 5 5 5 5 5
0 0 0 0 0 0 3 69 0 4 0 3 0 0 0 0 0 0 0 0 0 0 0 0 4 0 0 0 0 0 0 0 4 5 5 5 5 5 5 5 12 75 100
0 0 0 0 0 0 0 0 0 1 32 48 0 1 5 0 0 0 0 1 0 0 0 0 0 33 0 0 0 0 0 0 0 0 0 1 4 5 28 5 5 5 15
0 0 0 0 0 0 0 0 15 10 2 24 1 0 0 5 18 0 0 0 0 0 0 0 0 0 12 0 1 0 0 0 0 0 0 0 0 0 27 36 33 44 7
2 0 0 0 0 0 0 0 16 2 9 97 8 0 1 57 8 5 0 4 0 0 0 0 0 0 0 0 0 0 0 0 0 0 0 0 0 0 2 5 5 69 8
0 9 0 0 0 0 3 13 28 0 5 5 11 4 6 55 0 5 5 4 0 0 0 4 0 0 0 0 0 0 0 0 0 0 0 0 0 0 0 0 60 100 100
100 5 5 0 0 0 0 19 73 41 4 2 5 5 100 34 86 4 29 81 54 26 5 6 16 0 0 0 0 0 0 0 0 0 0 0 0 0 0 1 58 54 14
100 98 58 5 0 0 0 3 0 0 5 2 4 46 100 32 5 3 3 25 51 64 8 97 92 8 5 0 0 1 2 2 0 0 0 0 0 0 0 1 3 0 0

GFSSE_prec_cloud_093.txt.gz
Cloud_Cover
5 5 5 5 54 13 87 100 69 5 6 3 2 4 5 12 42 92 83 100 100 100 100 94 39 47 12 5 5 36 40 5 13 11 92 100 100 90 46 99 99 77 63
10 37 16 17 7 22 100 86 99 99 27 65 5 59 88 97 100 100 100 100 99 100 45 16 94 4 3 1 0 5 73 24 25 5 26 64 52 100 100 100 92 70 65
0 0 0 0 6 5 5 5 5 12 30 4 68 94 54 34 12 5 5 13 5 3 27 94 80 5 25 6 3 4 2 5 5 2 5 5 30 95 30 67 72 96 87
0 0 0 0 1 1 0 0 0 0 0 0 1 0 4 2 5 5 5 5 5 5 7 5 5 6 5 6 33 32 8 6 13 37 51 55 55 95 91 100 100 71 9
0 0 0 0 0 0 0 10 0 0 0 1 5 12 5 0 8 4 6 5 5 5 0 0 2 4 5 43 100 100 100 96 88 99 80 34 100 91 38 99 100 84 17
8 0 0 0 15 0 0 4 0 0 0 0 0 2 1 6 5 3 5 5 5 5 12 0 0 5 56 49 100 100 100 100 100 97 100 50 71 79 100 100 88 94 6
16 0 0 0 6 0 0 0 2 2 1 1 1 3 0 8 5 5 5 5 5 0 0 4 6 5 5 99 100 100 92 100 100 100 100 98 73 98 86 100 100 98 84
8 0 0 0 0 0 2 1 2 10 5 13 4 1 2 5 7 8 5 4 39 0 0 0 2 7 5 55 100 100 100 100 100 100 88 98 48 99 94 100 100 100 92
6 0 0 0 0 0 0 4 2 2 6 5 0 2 6 4 2 1 12 27 2 0 0 0 2 2 2 26 98 100 100 100 100 100 93 100 72 100 100 100 100 100 99
20 0 0 0 0 0 0 0 0 2 0 0 0 1 30 17 5 5 5 3 0 0 0 0 68 78 74 98 100 100 100 100 100 99 100 100 100 100 100 100 100 100 56
15 2 0 9 0 10 0 0 1 1 0 2 3 0 7 2 12 68 5 1 0 0 0 2 94 100 100 100 99 100 100 100 100 85 99 100 100 100 100 100 100 90 16
21 17 2 0 0 0 0 0 0 0 0 2 13 0 0 2 4 12 88 0 0 4 52 38 5 96 100 100 84 100 100 100 100 100 100 100 100 100 100 100 76 80 29
0 1 0 0 0 0 0 0 9 0 0 0 0 0 0 6 38 98 17 0 0 0 8 70 92 72 98 100 76 100 100 66 83 100 100 100 100 100 100 98 97 66 87
0 0 0 0 0 0 0 0 0 0 0 7 0 2 0 2 5 30 0 0 0 1 0 47 82 98 67 10 78 100 99 72 97 100 100 100 100 100 99 99 89 24 33
0 0 0 0 0 0 0 0 0 0 0 3 0 1 1 4 14 1 0 0 0 0 0 4 4 91 100 75 5 49 100 84 100 100 100 100 100 99 55 15 6 5 17
0 0 0 0 0 0 0 0 0 0 0 0 1 0 0 1 8 0 0 0 0 0 0 0 0 2 6 93 54 5 5 39 100 100 62 79 100 100 54 5 5 5 5
0 0 0 0 0 0 0 0 0 0 0 0 0 1 0 0 4 0 0 0 0 0 0 0 0 0 0 0 26 5 2 0 50 78 8 7 5 4 2 0 5 9 19
0 0 0 0 0 0 0 0 0 0 0 0 0 0 0 0 0 0 0 0 0 0 0 0 0 0 0 0 0 0 0 0 0 0 4 5 5 5 5 5 5 38 96
0 0 0 0 0 0 0 0 0 0 0 0 0 3 0 0 0 0 0 0 0 0 0 0 0 0 0 0 0 0 0 0 0 4 5 5 5 5 5 5 5 18 51
0 0 0 0 0 0 0 0 0 0 0 0 4 28 8 1 0 0 0 0 0 0 0 0 0 0 0 0 0 0 0 0 0 3 5 5 22 5 5 5 5 14 93
0 0 0 0 0 0 0 0 0 5 0 0 0 5 5 11 10 5 19 5 5 5 0 0 0 0 0 0 0 0 0 0 0 0 0 5 5 87 10 5 5 54 75
0 0 0 0 0 0 0 0 0 73 40 18 6 5 2 8 93 58 41 76 19 12 5 5 0 0 0 0 0 0 4 0 0 0 0 0 5 6 99 38 94 66 13
1 0 0 0 0 0 0 0 0 4 65 4 1 6 55 11 29 76 19 57 60 79 26 5 5 0 0 0 0 0 0 0 0 0 0 2 3 2 5 70 36 25 6
3 0 0 0 0 0 0 2 2 2 2 5 3 76 76 5 2 33 43 34 72 50 52 32 6 5 5 0 0 0 0 0 0 0 0 0 0 0 0 53 100 100 100
100 48 0 0 0 2 5 0 0 7 2 2 5 100 5 15 0 5 87 62 68 82 68 5 5 7 22 10 0 0 0 0 0 0 0 0 0 0 4 21 5 4 0
99 100 12 0 2 90 100 24 4 21 5 5 5 81 93 1 0 5 5 8 63 88 78 5 5 5 17 54 5 1 2 0 0 0 0 0 0 0 47 5 4 3 0

GFSSE_prec_cloud_096.txt.gz
Cloud_Cover
14 54 5 63 100 100 98 100 100 100 100 100 100 100 100 100 100 98 100 25 15 22 59 13 14 49 8 7 18 5 5 9 25 53 89 94 77 62 93 100 100 100 100
4 9 83 100 97 100 100 100 100 100 100 100 100 100 100 100 100 99 68 98 71 90 42 6 34 9 4 1 2 4 4 5 5 33 69 18 98 90 100 100 100 100 100
36 80 2 5 20 10 5 64 88 97 99 98 88 98 54 7 12 5 60 100 6 6 100 18 5 5 5 3 2 12 5 0 0 5 7 67 16 84 82 100 100 100 100
0 0 0 0 2 3 0 0 11 4 1 0 4 0 0 4 5 44 84 11 14 8 5 7 5 5 5 6 18 6 15 5 5 6 59 99 86 80 93 100 100 85 59
9 0 0 0 0 0 3 5 0 13 13 0 6 8 12 13 12 7 25 7 5 12 5 4 7 7 48 32 88 99 44 44 100 100 100 90 100 100 100 100 99 56 35
18 0 0 2 11 16 17 2 0 0 2 0 5 4 14 5 5 5 5 14 11 4 4 1 5 5 9 74 51 99 98 100 100 100 100 100 100 100 94 60 96 50 42
11 0 0 7 10 6 17 8 5 4 4 5 0 2 8 4 5 5 11 4 0 1 0 2 5 54 100 100 100 100 100 100 100 100 100 100 94 100 100 98 98 65 83
21 2 1 3 0 0 0 1 5 2 1 2 1 8 5 5 4 0 6 3 18 4 0 1 4 52 100 100 100 100 100 100 100 100 89 99 100 100 99 100 100 100 17
1 0 0 3 0 0 0 0 0 8 2 0 21 17 3 4 25 11 4 2 0 2 100 100 5 70 95 100 100 90 100 100 100 100 100 90 95 80 100 100 100 70 67
5 0 0 0 0 0 1 0 5 0 0 5 5 62 88 23 9 0 0 0 0 3 5 31 31 38 100 100 100 80 100 100 100 100 100 100 100 100 100 100 100 81 6
31 19 7 3 0 0 0 0 0 0 0 0 2 5 4 3 4 0 0 0 4 5 8 77 100 86 100 100 100 89 100 100 100 100 100 100 100 100 100 100 98 5 7
71 48 22 6 0 0 0 0 0 0 0 0 1 1 5 33 9 0 0 0 4 8 43 75 99 92 95 83 99 94 100 92 100 100 100 100 100 100 100 100 14 8 5
31 33 29 10 0 0 0 10 17 0 0 0 0 0 1 7 5 2 4 0 4 89 95 95 100 100 60 64 89 99 99 100 100 100 100 100 100 100 100 15 5 5 8
9 6 10 1 2 0 3 0 0 5 0 0 0 0 0 0 0 0 0 0 3 6 96 81 20 100 100 100 100 100 100 100 100 100 100 100 100 100 100 11 6 5 5
0 0 0 0 0 0 0 0 0 2 0 0 0 0 0 0 0 0 0 0 0 0 16 86 5 5 39 89 100 100 100 100 100 100 100 100 99 72 25 12 5 5 4
0 0 0 0 0 0 0 0 0 0 0 0 0 0 0 0 0 0 0 0 0 0 0 0 36 5 5 36 98 100 100 100 100 100 100 100 100 100 100 16 5 5 5
0 0 0 0 0 0 0 0 0 0 0 0 3 0 0 0 0 0 0 0 0 0 0 0 0 0 4 0 0 1 24 10 26 18 5 6 13 6 4 5 5 5 5
0 0 0 0 0 0 0 0 0 0 0 0 0 2 5 4 4 0 0 0 0 0 0 0 0 0 0 0 0 0 0 0 0 0 2 5 5 5 5 5 35 41 71
0 0 0 0 0 0 0 0 0 0 3 5 14 9 5 5 5 34 1 2 0 0 0 0 0 0 0 0 0 0 0 0 0 5 5 5 5 5 5 5 31 99 98
0 0 0 0 0 0 0 0 0 0 0 2 5 5 5 5 5 5 17 4 0 0 0 0 0 0 0 0 0 0 0 0 0 4 5 19 36 5 5 5 62 77 83
0 0 0 0 0 0 0 0 1 2 0 3 5 5 5 5 5 62 5 12 5 2 0 0 0 0 0 0 0 0 0 0 0 5 5 5 100 85 5 5 11 96 100
0 0 0 0 0 0 0 8 0 4 3 22 97 32 24 34 9 5 47 50 10 5 5 2 0 0 0 0 0 0 0 0 0 5 5 5 6 100 95 100 100 100 98
0 0 0 0 0 0 0 0 0 0 0 40 91 36 6 46 51 61 10 96 12 17 5 5 3 0 0 0 0 0 0 0 0 4 1 5 5 7 63 12 45 85 94
0 0 0 0 0 2 0 0 0 0 0 3 83 28 1 5 9 12 71 19 5 6 5 5 5 4 0 0 0 0 0 0 0 0 4 0 5 5 16 88 62 40 16
94 74 2 0 2 5 5 0 0 0 5 5 20 27 0 5 3 4 34 6 59 5 5 5 5 5 4 0 0 0 0 0 0 0 0 2 2 3 0 1 4 0 4
100 53 100 3 84 8 5 1 5 2 4 37 80 4 4 0 0 5 5 46 97 24 4 5 4 5 5 3 0 0 0 0 0 0 0 1 5 6 5 5 4 4 0

GFSSE_prec_cloud_099.txt.gz
Cloud_Cover
57 100 100 100 100 100 100 100 100 100 100 100 100 100 100 100 100 8 12 55 69 76 68 31 36 52 93 50 21 6 23 15 10 30 96 99 99 95 100 100 100 65 7
6 58 100 100 100 100 100 100 97 100 100 100 92 43 22 10 5 8 37 97 98 98 99 98 50 10 10 10 5 6 11 83 78 100 83 45 22 95 100 100 26 20 27
3 33 73 100 100 100 100 100 100 99 100 61 23 83 99 90 91 76 12 14 5 6 5 3 4 3 7 14 9 10 5 10 7 5 5 5 92 86 88 45 50 34 9
2 20 21 3 4 4 1 3 2 28 1 3 5 5 28 20 23 81 62 16 20 49 5 5 7 5 24 5 5 24 5 5 32 15 54 90 100 100 95 32 90 17 58
15 34 9 5 5 5 3 4 7 5 2 5 10 8 43 23 12 6 5 5 5 8 42 5 5 91 100 88 24 45 5 53 78 100 100 100 100 100 100 100 77 84 54
15 0 0 0 3 35 7 9 5 5 5 5 5 5 14 22 6 5 5 22 11 4 5 5 99 100 100 100 98 100 34 72 100 100 100 100 100 100 100 91 90 100 34
0 0 1 6 3 5 5 2 0 5 5 1 30 5 8 8 49 28 73 9 6 0 3 5 80 85 100 100 100 100 100 100 100 100 100 100 100 100 100 93 100 70 86
0 0 22 5 5 5 3 68 0 5 0 5 6 12 67 4 0 0 4 0 0 5 3 5 47 100 100 100 100 100 100 100 100 100 100 100 100 100 100 100 100 100 72
17 19 11 18 4 0 0 3 1 0 3 68 6 96 93 64 3 0 2 0 6 1 5 3 17 98 100 100 100 100 100 100 100 100 97 100 100 99 100 100 100 49 5
2 24 36 19 22 11 1 3 1 1 5 99 99 83 80 1 0 0 0 0 5 6 61 5 74 100 100 100 100 100 100 100 100 100 99 48 100 100 100 100 7 9 5
38 34 14 1 1 0 21 10 8 1 0 5 6 70 3 2 5 0 0 0 2 58 67 9 64 100 100 100 100 99 100 100 91 71 77 62 100 100 100 100 45 5 5
26 21 18 7 20 13 22 7 12 11 8 8 5 4 0 0 0 0 5 5 5 22 6 18 99 100 100 100 100 100 100 100 100 100 88 100 100 100 98 73 5 5 5
4 15 19 6 25 15 0 0 0 0 18 0 0 5 4 1 0 0 0 5 4 6 51 70 28 66 95 92 100 100 100 100 100 100 100 100 100 100 100 65 5 6 4
4 10 4 1 25 23 0 0 0 0 0 0 0 0 0 0 0 0 0 4 5 5 12 11 4 5 5 95 100 100 100 100 100 100 100 100 100 100 30 5 5 5 5
0 0 0 0 4 0 0 0 0 0 0 0 0 0 0 0 0 0 0 0 0 3 5 30 72 93 62 15 52 87 44 50 97 99 100 100 78 89 68 85 5 5 5
0 0 0 0 0 0 0 0 0 0 0 0 4 0 0 0 0 0 0 0 0 0 5 5 5 21 29 14 27 41 8 22 48 58 93 100 100 100 75 5 5 5 5
0 0 0 0 0 0 0 0 0 0 0 0 0 0 0 0 0 0 0 0 0 0 0 0 0 0 0 5 5 5 0 1 5 3 2 9 9 5 5 5 5 5 5
0 0 0 0 0 0 0 0 0 0 0 1 0 0 0 0 0 0 0 0 0 0 0 0 0 0 0 1 0 0 0 0 0 0 0 0 0 3 5 5 5 5 70
0 0 0 0 0 0 0 0 0 0 0 4 4 5 5 5 0 0 0 0 0 0 0 0 0 0 0 0 0 0 0 0 3 2 5 1 1 1 5 5 5 11 42
0 0 0 0 0 0 0 0 2 0 4 5 5 5 5 5 5 5 2 0 0 0 0 0 0 0 0 0 0 0 0 0 0 27 73 64 5 5 25 13 48 56 63
0 0 0 0 0 0 0 0 0 5 5 0 5 58 9 5 1 5 5 2 0 0 0 0 0 0 0 0 0 0 0 0 4 5 6 97 93 5 5 5 8 79 100
0 0 0 0 0 0 0 0 0 0 5 0 4 3 5 5 5 2 4 5 5 0 0 0 0 0 0 0 0 0 0 0 5 5 5 5 100 71 57 83 72 64 100
0 0 0 0 0 0 0 0 2 0 0 2 0 2 0 8 44 26 0 0 5 5 2 0 0 0 0 0 0 0 0 0 1 5 5 5 10 18 17 56 88 72 59
3 0 0 0 1 0 0 0 4 1 1 0 0 0 0 4 10 20 4 0 0 4 5 0 0 0 0 3 0 0 0 0 0 2 5 5 69 99 13 9 2 0 3
26 20 16 4 5 5 4 0 4 4 2 0 0 0 0 5 23 23 96 44 0 0 5 5 2 0 0 4 0 0 0 0 0 2 5 5 5 5 26 5 0 4 5
50 100 6 13 15 12 5 5 5 2 5 3 0 5 0 5 5 5 14 96 16 8 5 4 1 0 0 0 0 0 0 0 0 0 1 2 2 4 42 6 5 2 0

GFSSE_prec_cloud_102.txt.gz
Cloud_Cover
5 18 89 90 76 100 100 100 100 100 85 100 100 100 100 100 96 100 100 98 6 5 5 5 5 12 14 23 24 23 23 15 16 28 39 72 95 98 92 93 98 99 91
99 35 34 96 81 100 100 100 100 100 100 100 73 100 68 61 100 85 100 7 14 41 36 80 96 100 99 61 7 5 7 73 14 17 99 32 57 35 16 83 100 100 63
54 100 100 100 100 100 90 100 100 100 61 86 100 100 100 100 94 100 94 87 30 16 5 5 5 5 3 5 6 7 5 5 5 5 11 27 77 100 100 96 68 39 5
38 75 45 73 73 33 64 64 93 86 79 70 62 51 52 94 94 66 22 5 5 9 5 14 5 5 4 5 5 45 17 5 5 99 67 13 99 96 100 94 98 30 38
81 63 4 5 35 61 46 37 5 1 39 3 58 98 12 38 80 68 6 5 5 5 19 32 73 20 98 16 18 64 54 5 11 32 97 100 100 100 100 100 35 35 31
94 77 0 5 7 11 10 44 5 6 5 43 18 44 5 43 28 4 3 9 8 5 5 6 99 100 12 11 11 5 5 23 66 96 100 100 100 100 100 90 15 61 5
9 0 0 3 4 4 5 5 26 5 8 69 100 7 68 21 59 89 96 75 58 26 5 9 54 11 81 93 100 84 12 92 100 100 100 100 100 100 83 85 100 8 70
0 34 14 0 0 5 5 5 5 6 7 69 97 100 100 70 6 5 61 67 12 5 5 32 51 82 70 99 100 75 77 98 92 91 95 100 100 100 100 92 47 100 40
29 66 83 25 1 3 0 0 4 50 45 100 100 100 91 9 1 4 0 4 31 5 5 5 64 100 100 100 100 100 97 100 100 99 84 100 100 100 100 100 100 59 5
85 63 95 100 50 58 21 1 3 65 100 69 52 8 4 0 0 0 0 4 86 22 4 5 100 100 100 100 100 100 100 100 100 100 100 100 100 100 100 100 27 31 5
46 99 100 44 67 84 39 4 0 1 5 5 4 23 10 20 0 0 0 4 5 5 38 100 100 100 100 100 100 100 100 100 99 73 59 99 100 100 100 100 67 10 5
43 75 71 67 79 85 43 98 43 24 72 27 57 3 0 0 0 0 0 5 4 7 100 100 100 100 100 99 100 100 99 95 97 100 99 100 100 100 81 55 13 5 5
40 26 36 50 30 32 17 6 2 26 12 37 2 5 0 6 4 0 0 6 1 3 54 83 100 94 100 89 100 100 100 100 100 100 100 100 100 82 98 38 5 5 5
15 14 8 1 21 21 2 0 0 25 28 13 0 1 11 22 15 31 9 2 6 0 5 96 77 15 69 100 100 100 100 100 100 100 98 100 100 99 71 5 5 5 5
0 0 0 1 45 32 38 0 0 2 77 1 0 14 24 8 10 19 0 16 5 12 16 13 16 13 99 100 92 96 100 84 54 77 65 76 65 72 25 10 5 5 5
0 0 0 7 24 20 12 5 17 43 23 0 0 0 1 21 9 0 0 0 0 3 6 5 5 51 98 99 97 14 98 18 5 5 43 60 100 99 5 5 5 5 5
0 0 0 10 30 5 16 6 24 2 19 0 0 0 0 6 0 2 1 10 5 0 0 1 4 6 5 5 19 5 10 20 5 5 6 43 30 5 5 5 5 5 25
0 0 0 4 0 5 1 14 29 24 33 19 0 0 0 0 0 9 22 15 0 0 31 3 8 0 0 0 0 0 0 0 0 0 0 0 1 1 5 5 7 32 17
0 0 0 2 0 4 5 5 12 2 46 5 0 12 3 0 0 8 40 2 0 3 23 14 0 0 0 0 0 0 0 0 3 2 0 4 5 5 5 6 5 75 97
0 0 0 0 0 16 1 5 28 0 46 15 31 39 5 0 0 0 8 0 0 15 1 0 0 0 0 0 0 0 0 0 16 51 12 1 3 2 0 5 30 99 100
0 0 0 1 2 0 0 18 34 53 55 43 32 1 0 1 0 0 15 0 0 4 3 0 0 0 0 0 0 0 0 0 0 43 99 39 2 1 1 5 59 100 100
0 0 0 6 0 1 3 70 87 13 44 27 4 4 1 0 0 0 2 10 13 18 0 0 0 0 0 0 0 0 0 0 0 5 9 66 35 27 100 100 68 100 100
0 0 4 1 1 2 28 17 0 5 13 20 10 5 1 0 0 0 0 9 0 28 33 0 0 0 0 0 0 8 4 6 0 5 34 100 84 86 100 83 45 51 1
2 0 5 0 5 1 5 14 4 0 35 94 36 13 21 13 4 5 5 8 4 1 0 6 0 0 1 0 0 0 0 0 0 4 5 97 59 10 5 5 5 3 5
4 4 17 27 2 15 6 31 2 31 19 1 40 5 1 6 5 14 5 6 25 5 5 5 2 1 0 0 0 0 0 0 0 0 2 5 5 5 5 0 0 0 0
11 6 16 5 98 5 24 25 24 9 53 22 19 12 10 70 99 100 5 5 16 86 98 38 37 42 7 0 0 0 0 18 20 1 0 1 6 8 2 2 2 0 0

GFSSE_prec_cloud_105.txt.gz
Cloud_Cover
100 22 10 16 78 100 100 100 100 100 62 96 100 100 100 100 100 100 86 52 88 100 100 65 54 97 45 18 12 8 14 7 39 95 100 100 100 83 80 50 100 70 8
72 24 31 84 98 100 100 100 100 51 99 93 98 89 100 100 38 32 60 100 86 69 6 18 5 5 5 39 68 19 24 33 73 100 100 72 97 64 67 100 100 28 6
97 84 30 57 72 54 100 100 100 100 100 100 100 100 60 44 92 36 58 85 100 92 84 52 32 51 51 28 11 13 11 5 5 95 90 60 67 100 97 63 21 10 29
35 100 100 100 100 100 100 100 99 100 100 100 99 85 98 100 100 91 35 7 5 2 5 4 5 6 5 5 5 5 13 90 8 34 70 5 100 90 100 98 100 68 55
1 96 5 10 5 5 4 7 11 18 4 5 91 29 10 74 80 5 5 5 85 28 84 30 10 5 5 6 70 31 78 100 97 79 74 66 100 100 100 100 100 58 8
99 87 5 2 5 5 8 5 8 5 5 37 35 42 53 99 100 98 25 5 5 6 72 84 80 18 63 98 73 94 61 94 100 99 98 100 100 100 100 100 100 51 74
30 0 0 5 4 3 5 5 5 84 55 93 58 98 49 67 5 5 55 95 96 80 83 63 7 100 66 5 84 90 86 95 96 100 100 100 100 100 100 100 100 82 59
24 4 1 2 0 5 4 0 5 55 100 100 77 82 100 52 4 2 2 3 4 9 36 46 5 9 31 99 100 100 69 90 100 100 100 100 100 100 100 100 88 94 93
100 12 58 12 5 0 4 11 35 100 100 100 100 59 8 0 0 0 0 1 5 5 5 5 71 91 100 100 100 84 100 100 100 100 100 100 100 100 100 100 100 97 35
27 78 73 65 89 61 9 40 100 100 40 8 56 19 0 0 0 0 5 5 4 5 10 100 86 74 100 100 100 100 100 100 100 85 100 100 100 100 100 100 94 5 5
96 95 53 52 83 58 18 1 5 13 5 3 0 0 0 9 0 17 5 5 5 38 100 100 100 100 100 100 100 100 100 100 100 100 100 100 100 100 100 88 45 22 26
33 43 82 78 75 96 42 57 2 58 66 58 48 5 100 28 0 2 0 50 100 100 100 100 100 100 100 100 100 100 100 100 100 34 85 100 100 100 98 13 28 6 19
94 100 29 83 97 92 44 40 33 95 28 76 15 30 0 0 0 0 3 5 32 100 100 47 100 100 100 100 100 99 97 100 100 100 100 100 100 15 49 79 5 5 5
84 99 78 41 100 90 16 83 93 100 96 32 6 15 100 96 94 98 95 6 100 77 100 100 74 100 100 100 100 100 100 100 100 100 100 98 100 100 17 5 9 5 5
65 96 39 44 100 100 25 2 100 49 93 8 60 100 90 92 59 72 45 95 66 100 60 87 96 100 100 100 100 100 100 100 98 58 45 12 79 52 29 5 5 5 25
30 27 20 100 39 84 16 25 5 100 54 81 100 12 100 50 80 21 89 19 46 100 65 56 80 100 100 62 56 76 100 62 60 22 20 26 12 79 31 25 82 99 26
23 6 47 100 83 23 1 1 100 18 100 100 53 5 0 61 12 84 17 100 61 0 14 3 14 82 100 91 74 100 99 98 51 41 41 94 79 86 5 5 6 74 38
26 15 16 96 21 6 7 38 99 100 72 99 27 18 31 1 7 62 98 68 3 45 62 86 87 64 6 16 6 28 0 7 3 28 5 5 5 5 5 5 5 48 98
6 27 44 100 19 95 5 99 59 92 92 99 95 88 68 34 0 99 100 11 81 97 61 85 19 100 22 23 34 0 6 2 2 0 0 0 1 1 4 5 6 96 100
10 44 25 98 11 100 100 100 78 93 81 53 100 98 0 26 0 78 47 0 0 89 80 23 9 1 11 4 100 0 3 68 44 5 0 0 0 0 4 5 100 100 100
15 36 6 21 0 97 8 100 100 100 100 100 100 4 20 21 3 0 85 0 77 82 0 2 58 1 28 0 24 2 0 3 100 79 6 0 0 4 5 83 74 100 100
24 13 13 32 10 94 19 99 57 100 89 100 100 58 100 100 2 5 62 33 99 7 2 0 0 17 0 0 90 35 21 4 11 92 80 5 28 100 100 100 100 100 40
9 16 7 5 2 38 83 100 100 64 96 51 66 61 43 95 18 54 4 93 2 97 61 26 0 45 79 0 0 100 8 100 1 27 74 54 99 81 36 6 10 4 1
8 25 9 25 33 0 96 29 23 5 23 61 8 99 42 77 50 35 18 23 19 83 90 15 1 1 18 25 0 1 2 18 98 65 62 3 5 4 5 5 1 10 0
67 18 6 21 16 38 87 96 2 5 89 98 64 37 94 5 5 93 36 38 5 49 61 98 12 5 12 27 99 17 0 2 0 0 100 30 1 0 7 0 0 15 44
89 23 10 3 5 13 5 7 16 44 72 80 67 46 94 44 10 42 13 27 5 46 7 58 100 100 55 6 19 0 83 89 47 87 21 27 66 8 1 50 0 4 14

GFSSE_prec_cloud_108.txt.gz
Cloud_Cover
17 100 67 100 100 100 100 100 100 100 100 100 100 99 76 88 100 100 93 96 100 95 70 88 96 87 73 46 6 84 92 100 100 100 100 35 98 100 83 100 100 85 7
5 4 15 9 100 100 100 100 100 100 100 100 100 98 61 94 100 100 100 95 85 83 100 86 6 17 22 10 5 33 100 100 100 100 100 100 96 76 93 100 99 90 32
45 32 5 30 100 100 100 100 100 100 100 100 88 96 100 100 100 100 100 100 80 96 97 100 100 100 100 95 5 6 68 91 90 97 100 82 95 72 100 100 99 93 11
87 100 61 60 65 56 74 100 100 100 100 100 100 100 100 100 97 98 100 99 100 95 58 6 5 5 5 5 15 21 65 43 50 44 85 84 72 63 66 100 100 92 100
25 6 20 63 95 100 80 32 36 100 100 100 100 88 37 14 98 18 8 40 7 5 5 5 26 33 5 35 84 32 31 80 35 94 96 44 38 100 100 100 100 100 31
14 5 0 0 2 5 5 5 1 0 0 10 10 5 11 89 99 89 94 78 9 10 48 80 5 7 70 22 21 58 99 95 82 100 74 67 100 100 100 100 100 21 50
1 0 0 0 0 5 8 0 4 3 5 5 20 31 20 87 27 5 4 5 38 90 100 91 100 48 97 61 34 78 95 82 56 100 100 99 100 100 100 100 100 95 6
0 0 1 0 2 0 0 1 59 33 85 87 6 10 50 54 3 1 0 0 0 5 13 74 100 100 100 43 88 97 99 100 100 100 100 100 100 100 100 100 100 16 47
19 0 5 10 1 5 5 5 70 82 72 11 4 5 5 1 1 0 0 0 4 5 20 5 5 62 99 92 90 47 95 100 100 100 100 100 100 100 100 100 70 99 85
61 10 12 6 3 0 2 41 42 28 0 0 0 0 0 0 0 0 0 0 5 5 5 5 5 6 70 100 89 99 97 100 100 100 100 100 100 100 100 97 100 96 23
0 78 0 18 95 2 1 0 0 0 0 0 0 0 0 0 0 5 0 4 36 72 100 88 86 100 100 99 100 100 100 100 100 88 100 100 100 100 100 100 32 21 5
3 84 40 28 100 64 0 0 3 0 0 0 86 100 2 0 0 5 25 98 71 74 95 73 100 100 100 100 100 100 100 100 100 100 100 100 100 77 89 80 65 5 5
80 81 100 18 79 58 0 0 67 14 28 0 94 55 0 0 0 89 9 4 95 100 100 96 50 100 100 100 100 100 100 100 100 99 100 100 100 97 23 15 5 5 5
32 95 4 100 0 100 21 99 27 29 30 10 0 3 64 34 82 100 100 13 100 100 100 78 100 100 100 85 100 100 100 100 100 100 100 100 48 100 99 43 31 5 40
25 90 58 36 100 13 82 100 26 25 68 100 87 100 61 46 79 100 92 48 41 84 83 100 100 100 100 100 100 92 99 96 100 91 100 90 100 84 91 10 6 5 5
29 5 0 0 2 48 31 70 35 0 37 79 100 100 100 40 5 8 18 100 61 52 31 99 100 100 96 94 100 100 100 100 100 100 96 66 58 89 97 14 5 5 5
4 0 74 14 7 100 0 6 91 13 72 6 66 100 10 14 6 100 66 9 0 70 0 31 94 45 8 6 15 100 100 100 99 99 77 11 5 5 11 5 5 5 29
24 0 21 53 41 0 4 37 2 64 21 89 0 1 43 0 0 1 69 4 0 0 5 0 98 98 74 2 5 1 4 5 6 46 10 2 5 4 4 3 5 14 99
0 2 95 50 5 0 3 1 100 80 26 25 29 65 0 0 0 78 0 0 4 86 26 40 0 5 54 39 70 0 0 2 0 0 0 0 0 0 0 2 88 75 23
0 11 93 98 100 7 100 75 33 98 46 97 0 98 0 0 0 22 60 100 29 63 89 0 100 0 47 51 95 14 5 0 0 0 0 0 0 0 0 44 72 86 100
0 46 25 63 47 28 17 58 28 69 54 50 100 48 19 13 0 0 21 100 82 7 0 0 0 0 0 47 2 0 4 5 3 0 0 0 1 5 8 79 28 96 45
0 29 23 99 48 16 70 31 74 66 30 31 10 5 96 91 5 17 7 4 93 32 0 0 0 6 0 0 0 23 16 1 18 6 0 34 5 5 8 10 2 0 0
0 0 0 53 4 7 90 100 6 100 52 25 64 1 75 89 5 62 17 27 4 28 0 0 0 46 0 0 0 3 100 100 72 0 5 4 0 0 0 0 10 4 4
0 0 0 17 4 5 2 5 88 61 100 86 69 93 44 23 87 0 3 5 39 92 19 3 0 98 8 0 51 57 100 100 100 100 15 31 7 2 61 100 100 100 72
8 2 0 5 38 92 78 4 1 84 96 13 99 100 13 0 79 100 1 7 5 18 43 52 45 0 81 2 12 100 100 100 100 100 100 100 100 91 97 100 100 100 100
1 1 5 4 1 4 2 10 12 79 55 77 100 36 33 25 1 75 85 40 5 6 76 98 96 75 0 7 68 100 100 98 98 100 100 100 100 100 100 100 100 100 32

GFSSE_prec_cloud_111.txt.gz
Cloud_Cover
81 72 66 12 59 85 100 100 100 100 100 100 100 100 100 93 32 59 27 70 7 81 86 91 45 8 77 99 75 89 86 100 46 100 97 94 89 99 100 100 100 100 66
23 78 6 88 100 100 100 100 100 100 100 100 100 100 100 78 62 84 100 24 89 41 12 72 99 99 90 38 78 100 33 57 85 16 71 98 98 84 100 100 100 100 37
86 29 5 5 88 75 41 97 100 90 100 100 100 100 100 91 94 100 98 100 100 100 100 100 87 100 100 100 100 100 100 68 94 100 100 100 89 100 100 56 5 5 13
30 72 47 26 45 19 13 95 100 100 93 100 100 100 74 87 100 100 100 100 100 100 100 100 98 100 94 36 16 42 53 85 15 99 76 98 57 65 76 54 22 74 75
0 0 2 26 64 92 98 100 100 100 100 100 99 100 100 100 100 100 21 8 27 26 5 5 8 45 11 85 68 50 99 100 86 19 52 59 85 32 98 100 100 92 40
0 0 0 0 0 2 5 4 5 5 5 12 99 96 98 34 54 56 81 99 100 100 99 23 38 27 20 94 88 91 62 72 100 36 100 100 90 100 100 100 100 25 90
0 0 0 0 0 4 1 5 2 3 4 11 9 10 41 70 80 53 5 5 5 5 56 95 99 19 32 67 65 100 85 65 98 68 100 90 94 100 100 100 99 68 19
0 0 0 0 1 1 5 5 5 5 5 6 4 0 6 0 5 0 0 0 0 2 5 5 96 100 100 62 68 91 11 17 5 15 96 100 92 100 100 100 18 17 86
0 0 0 4 5 5 5 25 5 69 10 1 1 0 0 0 1 0 0 0 2 5 3 5 27 100 100 100 99 66 92 6 22 100 100 100 100 100 100 100 88 96 100
0 0 0 0 0 0 5 5 5 0 2 0 1 4 0 0 0 0 0 0 3 5 6 6 7 19 96 100 64 95 42 100 70 100 100 100 100 100 100 58 100 100 14
0 0 0 0 0 0 0 0 0 0 56 97 85 10 0 0 5 48 7 2 4 5 12 42 92 5 24 51 50 9 64 75 66 98 98 100 100 100 100 100 95 31 50
0 42 0 0 0 0 0 0 0 4 70 44 5 4 2 21 4 4 4 15 56 5 40 100 100 100 41 31 100 100 81 44 50 29 85 100 100 99 90 100 16 5 5
0 5 1 5 0 0 0 0 0 0 72 24 0 10 100 100 72 4 68 84 36 14 50 100 100 100 100 10 45 100 98 88 97 97 76 100 100 100 100 100 14 5 5
22 56 0 0 0 0 0 0 4 6 45 69 8 14 100 100 99 10 100 100 100 10 41 100 100 100 97 7 55 100 100 100 100 100 100 100 100 100 100 9 5 5 5
57 0 47 84 48 49 80 0 4 5 90 95 6 98 29 87 1 4 100 100 100 8 3 7 99 100 75 93 51 100 100 100 100 100 100 100 100 83 26 5 5 5 5
0 96 0 32 28 0 1 68 26 11 68 62 3 4 0 0 12 12 76 98 30 2 24 91 94 39 39 42 100 100 83 100 100 100 68 38 5 5 5 5 5 5 5
0 0 0 0 0 95 3 75 1 0 6 0 0 0 0 0 89 26 0 0 0 78 100 98 60 84 27 67 95 60 17 31 59 83 6 0 0 0 0 5 5 5 18
0 0 64 0 0 20 0 0 0 0 0 0 0 0 5 5 36 12 0 0 0 3 38 26 4 0 2 4 4 3 2 4 0 0 0 0 0 4 4 5 5 6 29
0 0 0 0 0 0 0 0 2 0 9 13 0 18 0 5 38 56 1 2 0 0 0 5 90 0 0 0 0 0 0 5 0 0 0 0 4 0 0 2 5 5 13
0 0 3 0 0 0 0 71 52 0 39 4 2 0 1 3 100 4 0 0 71 0 0 0 0 25 6 57 0 0 0 0 0 0 0 5 5 4 3 39 24 0 0
0 0 0 14 0 3 7 79 16 4 100 30 11 33 3 4 1 0 5 0 0 0 0 0 0 1 30 20 0 0 0 0 0 81 100 100 100 99 100 100 100 100 95
0 0 44 4 0 2 5 0 12 0 0 0 7 0 4 6 10 5 6 78 14 0 0 0 0 2 0 9 12 99 72 48 68 100 100 100 100 100 100 100 100 100 100
0 0 0 8 15 8 51 5 67 21 30 36 86 0 72 0 2 5 7 26 75 5 2 3 4 0 4 10 6 100 100 100 100 100 100 100 100 100 100 100 100 100 100
0 0 0 8 0 2 64 94 74 85 22 5 5 46 18 17 12 5 5 39 87 93 5 0 3 1 4 20 47 84 93 100 100 100 100 100 100 100 100 100 100 100 100
5 5 5 4 4 17 5 96 100 11 100 99 45 59 84 64 86 25 0 0 5 69 92 5 17 15 5 70 92 74 100 100 100 100 100 100 100 100 100 100 100 100 100
2 0 0 5 0 3 5 40 100 94 79 98 100 100 92 100 92 83 2 0 0 3 34 100 6 2 21 2 39 73 100 100 100 100 100 100 100 100 100 100 100 100 100

GFSSE_prec_cloud_114.txt.gz
Cloud_Cover
100 100 100 100 100 100 100 100 100 100 100 100 100 100 100 100 100 100 80 89 88 100 95 100 100 100 100 100 80 96 95 100 100 99 85 45 50 84 98 100 41 36 54
97 100 88 65 93 94 100 100 100 100 100 100 100 100 100 100 96 96 100 53 99 99 100 100 100 99 82 80 13 99 85 38 76 76 43 87 98 98 100 100 91 9 19
43 5 2 34 78 87 30 50 99 100 100 100 100 100 100 90 56 98 63 79 100 100 99 100 100 100 100 100 100 100 100 100 99 98 77 27 28 54 80 10 43 62 30
2 2 3 5 28 81 50 61 46 78 100 100 100 95 100 76 13 87 80 90 100 100 100 100 100 100 100 100 100 97 77 98 65 100 100 94 94 98 40 99 70 68 56
0 0 0 0 3 23 8 5 63 82 100 100 100 77 55 84 100 98 98 100 100 94 70 73 46 84 100 53 94 88 92 96 80 96 99 90 100 68 94 99 79 85 32
0 0 0 0 0 0 1 5 6 29 7 6 5 5 5 69 100 82 35 59 94 99 99 67 97 10 5 53 100 100 93 100 100 90 100 74 100 100 100 91 96 63 15
0 0 1 0 0 0 0 0 4 5 6 5 5 16 36 10 7 30 19 20 5 5 100 100 100 62 96 94 78 50 99 100 76 100 90 100 100 100 100 100 98 89 81
0 0 2 2 2 5 5 5 6 17 15 8 5 31 3 0 3 2 3 0 5 5 79 98 100 100 100 100 96 100 95 97 100 99 92 100 100 100 100 100 100 100 100
0 0 0 12 22 97 98 58 59 100 48 3 5 3 3 2 0 0 0 6 5 5 5 29 100 100 100 100 100 100 100 89 100 100 100 100 100 100 100 100 100 100 100
0 0 0 0 2 72 26 7 5 5 25 5 57 5 0 0 0 4 38 5 5 5 9 100 75 100 100 100 100 100 100 100 100 100 100 100 100 100 100 100 100 99 46
0 0 0 0 0 0 2 1 81 88 69 12 4 5 22 16 26 5 2 5 11 18 22 5 41 100 96 100 100 100 100 100 100 100 100 100 100 100 100 100 100 20 6
0 0 0 0 0 0 0 9 63 5 4 5 46 97 34 29 100 96 41 49 76 92 5 16 44 95 100 100 100 100 100 100 100 92 100 100 100 100 100 100 73 41 28
0 0 0 0 0 0 0 9 10 4 0 13 78 17 60 21 100 100 100 82 35 89 82 76 86 86 100 100 100 100 100 100 100 100 100 100 100 100 100 57 14 90 100
0 0 0 0 0 0 18 98 9 1 5 72 73 65 34 12 100 100 100 100 12 81 98 81 97 88 100 100 100 100 100 100 100 100 100 100 98 61 6 22 27 22 52
0 0 0 0 0 0 5 8 0 0 0 4 90 84 5 22 66 10 46 100 5 77 60 94 52 93 100 100 100 100 100 100 97 72 24 5 5 5 5 4 3 0 5
0 0 0 3 0 0 0 0 0 29 1 1 5 3 1 3 2 0 6 2 5 22 98 100 76 81 100 100 100 92 16 9 16 4 5 3 2 8 33 41 11 4 5
0 0 0 0 0 0 13 0 0 4 0 0 0 5 5 1 11 0 2 98 85 19 6 2 85 100 11 65 60 5 5 5 5 0 24 99 100 100 100 100 81 90 14
0 0 0 0 0 1 87 0 0 0 0 1 5 4 5 43 0 0 12 5 99 9 0 0 0 0 39 10 5 5 0 0 5 100 100 100 100 100 100 100 100 100 100
0 0 0 0 0 0 0 0 0 0 5 5 9 14 10 0 0 0 0 2 54 57 32 0 0 0 0 6 0 1 15 83 100 100 100 100 100 100 100 100 100 100 100
55 0 0 0 0 0 0 0 0 0 5 20 33 5 15 3 0 0 1 0 0 0 0 0 0 1 5 12 8 93 100 100 100 100 100 100 100 100 100 100 100 100 100
4 0 0 0 0 0 0 28 0 0 0 5 42 50 68 69 2 2 5 20 10 0 2 0 0 94 76 99 100 100 100 82 100 100 100 100 100 100 100 100 100 100 100
5 5 5 5 3 0 0 2 0 0 18 0 34 22 92 100 100 18 2 0 2 21 5 5 90 70 56 78 55 79 95 100 100 100 100 100 100 96 100 100 100 100 100
2 83 5 9 5 4 0 0 0 2 5 4 1 7 38 77 100 100 30 2 2 5 24 6 5 6 77 100 100 100 98 100 58 100 100 100 100 100 100 100 100 100 100
4 6 13 4 2 5 5 3 3 5 5 67 36 4 5 44 100 99 100 8 5 0 1 1 1 4 9 41 71 84 70 26 100 65 99 100 100 100 100 100 100 100 100
5 5 5 4 2 4 5 5 5 5 100 74 100 29 6 5 96 100 100 50 18 6 0 0 0 5 6 92 80 54 79 36 55 93 100 100 100 100 97 100 100 100 100
4 0 5 5 5 17 5 8 34 5 6 64 100 100 100 96 83 30 94 75 8 36 92 3 0 0 32 44 40 79 100 46 100 100 92 100 100 100 99 95 100 100 100

GFSSE_prec_cloud_117.txt.gz
Cloud_Cover
100 100 100 100 100 100 100 100 100 100 100 100 100 100 100 97 99 100 100 100 98 94 37 19 94 100 98 82 84 79 98 100 99 100 97 100 100 98 94 80 99 100 99
99 100 100 100 66 100 100 100 100 100 100 100 100 99 100 100 100 100 100 87 75 97 83 72 98 71 45 69 93 99 100 100 99 86 78 100 97 100 100 61 32 48 97
13 66 75 7 98 29 73 100 100 100 77 99 100 98 100 100 72 99 99 70 100 46 95 92 55 96 100 98 100 100 100 100 100 100 96 100 100 94 68 97 98 63 92
6 34 5 5 5 47 39 6 89 98 100 78 96 96 84 100 100 100 100 100 99 100 100 100 100 100 100 100 100 100 100 100 100 100 99 100 100 100 100 68 100 100 100
0 0 3 4 5 42 70 79 100 91 32 92 100 100 100 100 100 100 100 100 100 100 100 100 100 100 100 100 100 100 100 100 100 100 100 100 100 100 91 98 100 100 100
0 0 0 0 2 3 14 19 26 61 47 100 100 79 53 15 29 67 100 100 100 70 96 100 100 100 100 100 100 100 100 100 100 100 100 100 99 97 98 100 100 100 100
6 0 3 2 2 0 0 0 5 5 6 12 41 87 84 87 100 97 100 100 100 100 100 100 100 100 100 100 100 100 100 100 100 100 100 100 100 100 100 100 100 100 100
4 2 1 2 2 4 3 5 5 16 5 51 99 76 31 6 8 6 5 6 72 26 99 100 100 100 100 100 100 100 100 100 100 100 95 100 100 100 100 100 100 100 33
0 4 10 25 5 5 6 26 17 98 100 42 4 8 9 7 3 2 5 5 5 46 34 66 100 100 100 100 100 100 100 100 100 100 100 100 100 100 100 100 100 36 15
0 1 11 5 8 65 80 5 7 5 5 48 89 66 25 25 5 5 3 9 5 5 61 99 100 100 100 100 100 100 100 100 100 90 100 100 100 100 100 100 32 5 5
11 0 0 3 19 47 4 17 77 88 38 57 55 99 93 18 4 5 5 5 5 17 87 86 84 78 100 100 100 100 100 100 100 63 36 99 73 100 100 100 58 23 5
32 2 0 0 3 5 88 73 76 96 44 97 29 93 64 79 14 5 81 5 5 7 76 100 100 83 100 96 99 100 100 96 61 68 50 90 100 100 100 100 100 38 5
0 0 0 3 20 62 17 5 54 14 65 86 18 8 5 8 5 5 9 51 72 89 88 100 100 99 93 100 95 64 73 64 78 66 93 100 100 100 100 100 13 6 5
0 0 0 7 4 4 77 13 5 62 72 70 46 5 19 4 5 9 93 64 62 100 74 100 100 100 100 100 100 92 19 5 43 69 100 100 33 100 100 100 100 86 75
0 0 0 36 24 0 0 3 1 3 52 5 2 5 5 5 4 4 5 14 88 83 90 84 100 100 99 71 15 87 63 39 72 100 100 100 100 100 100 100 100 32 2
0 0 0 0 1 3 4 0 0 2 20 4 3 0 0 2 1 5 41 15 48 21 51 89 97 100 100 98 53 61 33 90 100 100 100 100 100 100 100 100 100 20 2
0 0 0 0 0 2 0 7 5 0 5 5 2 0 0 1 9 93 47 2 0 24 33 22 29 100 61 26 9 11 75 100 100 100 100 100 100 100 100 99 100 100 0
0 0 0 0 0 1 13 22 73 16 1 0 0 0 0 0 0 2 56 0 0 0 2 5 5 5 0 0 17 37 100 100 100 55 5 35 100 100 100 100 100 100 47
0 0 0 0 0 3 21 5 6 39 21 2 4 5 0 0 3 3 5 0 0 0 0 0 0 0 10 91 100 100 100 100 16 4 51 76 73 100 100 100 100 100 88
0 0 0 0 0 0 0 0 5 5 28 19 0 5 4 0 0 0 3 71 4 3 3 0 4 67 91 100 92 29 96 16 9 87 91 5 5 56 100 100 99 90 100
0 0 0 0 0 0 0 3 5 5 5 40 98 0 0 4 5 15 12 5 5 5 33 30 100 81 81 100 99 100 100 100 71 82 99 14 100 100 100 100 98 10 98
8 58 1 3 5 3 1 4 0 2 5 33 91 42 0 1 0 3 31 22 100 78 91 5 38 8 7 22 71 46 62 33 33 16 72 96 100 100 100 100 100 100 58
5 29 53 5 2 5 5 54 24 3 5 5 38 88 51 5 5 4 5 5 5 4 5 5 3 5 69 10 7 9 30 21 39 98 84 69 82 100 100 100 100 100 100
1 5 5 15 5 5 5 18 14 13 5 5 14 20 22 13 35 8 1 4 5 5 5 4 5 5 4 5 5 6 29 5 4 18 95 99 94 100 100 100 100 100 100
5 5 0 5 18 7 5 5 5 48 99 100 100 71 6 23 97 71 11 4 0 3 0 0 0 0 2 0 11 6 46 5 5 16 91 56 99 100 100 100 100 100 100
5 5 5 5 5 24 5 70 5 41 73 71 100 96 100 19 57 37 58 7 12 2 0 0 4 5 28 5 10 5 5 5 5 64 46 59 55 84 81 100 100 46 100

GFSSE_prec_cloud_120.txt.gz
Cloud_Cover
100 100 100 100 100 100 100 100 100 100 93 100 99 100 100 100 100 100 97 100 100 100 99 100 100 100 100 86 97 96 97 87 100 100 100 100 83 75 66 97 70 66 98
100 93 100 100 100 100 100 100 100 100 100 89 100 100 100 100 100 100 100 100 100 100 100 98 100 100 98 94 96 100 100 100 100 100 100 100 100 53 56 58 6 62 22
91 92 100 100 100 100 100 100 100 100 89 93 100 100 100 100 100 97 100 100 100 100 100 100 100 100 100 100 99 100 100 100 98 100 100 100 98 100 99 38 54 9 13
71 40 82 40 67 23 50 50 100 100 100 100 75 100 100 100 100 100 100 100 100 100 100 100 100 100 100 100 100 100 100 100 100 100 100 100 43 11 70 11 24 52 66
0 30 39 78 94 10 11 58 15 20 86 69 100 100 100 100 100 100 100 100 100 100 99 100 100 100 100 100 100 100 100 100 100 38 94 85 24 97 33 27 53 45 92
0 0 0 21 59 80 11 100 45 21 6 54 72 100 100 100 100 100 82 66 84 95 100 100 100 100 100 100 100 90 85 26 31 67 57 79 100 100 80 66 68 100 29
4 0 0 2 4 18 6 9 29 6 95 97 68 100 100 93 85 52 74 100 68 83 100 95 100 100 99 97 23 90 26 40 31 14 33 93 90 48 23 96 100 86 100
4 1 0 2 0 4 6 9 65 97 100 83 68 28 5 40 44 26 5 5 21 24 61 91 96 100 76 27 13 48 56 38 23 5 12 78 100 100 93 100 100 100 95
1 12 89 5 5 17 6 14 68 65 12 5 5 22 86 88 10 5 5 5 20 36 77 77 22 81 63 5 5 5 5 5 9 55 46 100 100 100 100 100 100 100 94
36 21 95 80 5 12 74 84 6 5 10 63 86 37 42 19 30 61 5 5 27 100 100 100 100 100 100 70 68 79 7 63 76 89 100 100 100 100 100 100 100 99 20
7 20 60 68 10 90 46 5 16 30 46 80 86 100 76 35 5 5 1 3 5 68 30 100 100 100 98 86 95 100 100 100 100 99 100 100 100 100 100 100 10 5 10
38 12 4 5 5 42 76 99 93 18 100 38 12 7 18 3 1 5 9 6 49 5 95 100 100 100 100 81 100 100 99 100 100 59 79 100 100 94 73 98 93 100 100
18 5 8 7 23 8 52 19 28 64 9 5 5 5 5 5 5 5 5 5 5 5 16 8 72 83 78 100 100 100 97 100 52 85 100 100 100 98 72 16 76 8 5
10 1 0 0 3 7 6 8 5 5 5 5 5 5 3 4 7 7 5 5 5 47 100 100 100 100 100 100 99 83 27 100 100 100 100 86 10 5 54 100 5 0 0
38 13 0 0 0 0 1 4 0 4 4 0 2 1 0 2 4 5 15 15 92 64 100 100 100 93 93 92 60 83 100 88 100 84 26 6 5 5 99 99 2 0 0
0 0 0 0 0 0 0 0 0 0 0 0 0 3 12 4 2 2 5 5 28 9 63 99 97 77 78 14 46 5 3 5 6 5 22 24 100 100 100 99 16 0 5
0 0 0 0 0 0 0 0 0 0 0 0 0 2 3 2 4 0 0 1 6 72 84 100 55 22 8 3 2 0 1 5 5 5 4 5 100 100 100 100 100 1 0
0 0 0 5 4 1 0 0 0 0 0 0 0 0 0 0 0 0 0 0 3 5 5 4 4 2 0 2 4 0 5 3 3 12 17 6 6 100 100 45 49 100 78
0 0 0 0 2 4 5 51 0 0 0 0 4 51 2 0 0 0 0 0 0 0 0 1 24 53 50 52 19 18 5 4 5 81 100 100 100 100 100 83 77 58 34
0 0 0 5 5 0 6 5 3 0 3 4 1 2 2 1 2 0 0 0 0 5 4 4 16 84 50 38 5 5 3 2 5 7 100 100 100 100 100 90 11 14 5
0 4 0 0 0 28 52 100 16 5 0 0 0 0 3 5 0 5 4 5 16 4 5 4 90 81 23 9 5 5 4 4 5 67 7 96 100 100 100 100 98 9 12
0 5 4 5 5 5 9 43 9 48 4 15 55 4 4 9 4 0 0 2 4 5 5 4 5 60 19 5 5 5 5 4 6 17 7 62 100 100 83 84 52 42 5
2 0 3 5 20 62 99 85 79 98 91 10 4 0 0 3 1 0 2 2 5 5 5 5 11 5 14 5 5 4 0 3 9 5 34 5 60 94 30 49 57 61 13
0 0 5 5 5 23 100 100 100 100 100 95 61 21 5 3 0 0 0 0 1 3 5 5 5 5 5 5 1 5 5 5 98 50 20 71 100 93 72 10 92 7 22
2 4 3 5 5 5 60 94 100 100 100 100 100 93 11 5 5 0 0 0 0 0 5 0 0 0 5 5 5 61 86 8 5 5 7 9 15 40 64 58 99 5 5
4 5 5 3 5 5 5 6 12 91 98 100 85 100 94 56 43 23 1 1 0 0 0 0 0 0 0 1 4 2 4 2 0 14 86 11 18 42 5 27 100 100 13

GFSSE_prec_cloud_123.txt.gz
Cloud_Cover
81 100 100 100 100 100 100 100 100 100 100 100 100 87 100 96 100 100 100 85 88 100 100 100 98 77 89 100 100 100 76 93 100 97 93 68 98 100 88 99 17 89 90
100 100 100 100 100 100 100 100 100 100 100 100 100 98 68 60 100 96 100 90 100 100 100 100 99 100 100 100 100 100 100 99 100 100 100 100 100 100 100 48 100 98 100
100 99 100 100 100 100 100 100 99 100 99 87 99 24 40 64 100 100 93 96 82 92 65 93 100 100 100 100 100 100 100 97 99 100 100 100 100 100 100 100 100 82 99
12 51 98 100 100 100 100 100 96 100 83 79 35 5 64 100 85 45 98 98 94 100 100 100 100 100 100 99 90 100 100 100 100 100 100 100 100 100 100 100 100 100 100
4 27 78 100 100 99 100 100 75 63 46 56 24 32 62 22 88 81 100 100 91 100 100 100 100 100 100 100 100 100 100 100 100 100 100 100 100 100 100 100 99 100 100
1 28 0 6 100 81 12 5 6 5 5 5 36 100 81 99 100 100 100 100 100 100 100 100 100 100 100 100 100 100 100 100 100 100 100 100 100 100 100 100 100 100 100
0 0 16 5 22 9 79 10 19 19 88 12 66 64 95 100 100 100 100 100 100 88 67 95 100 100 100 100 100 100 100 100 100 100 100 100 99 100 100 100 100 100 100
0 0 20 0 2 6 5 5 44 36 100 99 100 100 100 100 77 84 92 96 87 100 100 100 100 100 100 100 100 86 70 92 80 93 100 100 100 100 100 100 100 100 100
82 32 17 3 5 4 5 7 38 95 100 100 100 100 100 100 99 73 6 5 0 5 10 88 100 100 100 100 99 53 57 98 99 100 100 99 100 100 100 100 100 100 6
5 5 8 10 68 39 86 100 100 100 100 81 100 74 83 22 5 4 5 5 5 5 5 39 94 100 100 66 46 44 96 100 100 100 100 100 100 100 100 98 76 5 0
14 50 19 16 100 100 98 99 81 29 99 95 100 100 87 4 5 4 5 5 5 8 33 100 100 100 100 46 82 100 100 100 100 100 98 100 100 92 7 5 22 100 96
3 14 32 21 9 50 76 86 48 98 88 57 63 17 4 4 2 0 5 5 5 31 75 100 100 100 100 100 100 100 100 100 55 69 100 94 10 13 28 100 56 1 0
0 10 5 100 100 68 12 19 5 5 5 5 2 5 0 0 3 0 5 5 5 89 98 100 100 52 89 100 98 100 100 98 90 100 100 7 4 26 98 0 0 0 0
0 1 0 5 73 88 1 5 1 1 0 0 0 4 5 5 5 0 0 5 5 88 72 21 47 91 64 94 17 78 98 99 18 3 2 0 39 100 100 6 0 0 2
0 0 0 2 0 0 0 0 0 0 0 0 0 0 0 4 5 4 2 5 6 100 100 56 45 9 23 19 6 18 21 4 5 9 11 23 100 100 100 100 0 3 1
0 0 5 0 2 0 0 0 0 0 0 0 0 0 3 4 5 5 5 5 5 5 66 35 22 14 5 5 5 3 4 0 1 24 95 100 100 100 100 100 80 94 0
0 0 0 0 0 0 0 1 2 0 0 0 0 0 0 0 0 0 0 5 0 3 11 5 5 4 4 1 4 1 48 42 6 5 5 96 100 100 100 81 14 61 3
5 5 0 0 0 0 0 0 0 1 6 0 0 0 0 0 0 0 0 2 4 3 2 5 1 1 4 6 80 5 68 100 100 100 100 81 95 100 61 84 66 16 14
0 2 5 3 0 0 0 0 0 5 5 3 0 0 0 0 0 0 0 0 0 0 0 2 5 3 5 5 5 14 57 98 94 98 31 98 100 94 44 50 5 5 5
0 5 5 5 0 0 0 0 0 2 5 4 0 0 0 0 0 0 0 0 0 0 0 3 0 1 8 7 5 5 16 10 33 99 55 100 93 94 100 99 7 5 5
1 5 5 5 5 4 0 0 0 0 4 0 0 0 5 0 0 0 0 0 0 0 0 0 2 28 10 9 5 5 4 5 5 5 5 25 8 10 31 5 5 47 5
0 4 5 5 5 5 5 5 1 0 0 0 4 0 0 0 0 0 0 2 5 2 4 5 14 92 82 97 40 23 24 5 5 5 5 14 30 11 100 77 53 30 12
0 0 60 95 82 29 40 5 5 5 1 0 0 0 0 0 0 0 0 2 5 5 5 5 5 37 25 5 5 5 5 11 6 5 5 8 37 94 20 25 5 37 14
0 1 5 58 15 21 22 87 95 5 1 0 0 0 0 0 0 0 0 0 0 2 5 5 5 5 5 5 5 5 22 5 5 5 5 8 5 5 5 5 5 5 20
0 3 3 14 5 5 5 5 80 14 2 5 5 0 0 0 0 0 0 0 1 5 5 5 3 5 3 5 5 5 4 5 5 5 5 5 6 6 26 4 5 5 5
1 4 5 20 5 5 5 5 5 5 49 14 4 5 5 4 2 0 0 0 0 0 0 0 0 0 0 1 2 0 0 0 0 0 0 0 3 5 5 70 2 5 5